<?xml version="1.0"?>
<gpx xmlns="http://www.topografix.com/GPX/1/1" xmlns:xsi="http://www.w3.org/2001/XMLSchema-instance" xmlns:wptx1="http://www.garmin.com/xmlschemas/WaypointExtension/v1" xmlns:gpxtrx="http://www.garmin.com/xmlschemas/GpxExtensions/v3" xmlns:gpxtpx="http://www.garmin.com/xmlschemas/TrackPointExtension/v1" xmlns:gpxx="http://www.garmin.com/xmlschemas/GpxExtensions/v3" xmlns:trp="http://www.garmin.com/xmlschemas/TripExtensions/v1" xmlns:adv="http://www.garmin.com/xmlschemas/AdventuresExtensions/v1" xmlns:prs="http://www.garmin.com/xmlschemas/PressureExtension/v1" creator="Garmin Desktop App" version="1.1" xsi:schemaLocation="http://www.topografix.com/GPX/1/1 http://www.topografix.com/GPX/1/1/gpx.xsd http://www.garmin.com/xmlschemas/WaypointExtension/v1 http://www8.garmin.com/xmlschemas/WaypointExtensionv1.xsd http://www.garmin.com/xmlschemas/TrackPointExtension/v1 http://www.garmin.com/xmlschemas/TrackPointExtensionv1.xsd http://www.garmin.com/xmlschemas/GpxExtensions/v3 http://www8.garmin.com/xmlschemas/GpxExtensionsv3.xsd http://www.garmin.com/xmlschemas/ActivityExtension/v1 http://www8.garmin.com/xmlschemas/ActivityExtensionv1.xsd http://www.garmin.com/xmlschemas/AdventuresExtensions/v1 http://www8.garmin.com/xmlschemas/AdventuresExtensionv1.xsd http://www.garmin.com/xmlschemas/PressureExtension/v1 http://www.garmin.com/xmlschemas/PressureExtensionv1.xsd http://www.garmin.com/xmlschemas/TripExtensions/v1 http://www.garmin.com/xmlschemas/TripExtensionsv1.xsd">

  <metadata>
    <link href="http://www.garmin.com">
      <text>Garmin International</text>
    </link>
    <time>2013-06-30T22:14:41Z</time>
    <bounds maxlat="47.660061260685325" maxlon="11.939147002995014" minlat="47.619959888979793" minlon="11.834825500845909"/>
  </metadata>

  <trk>
    <name>Rotwandhaus 2013.06.30</name>
    <extensions>
      <gpxx:TrackExtension>
        <gpxx:DisplayColor>DarkMagenta</gpxx:DisplayColor>
      </gpxx:TrackExtension>
    </extensions>
    <trkseg>
      <trkpt lat="47.654014639556408" lon="11.834954582154751">
        <ele>896.086181640625</ele>
        <time>2013-06-30T12:33:05Z</time>
      </trkpt>
      <trkpt lat="47.653979603201151" lon="11.83496673591435">
        <ele>896.56689453125</ele>
        <time>2013-06-30T12:33:10Z</time>
      </trkpt>
      <trkpt lat="47.653836272656918" lon="11.835065977647901">
        <ele>895.60546875</ele>
        <time>2013-06-30T12:33:16Z</time>
      </trkpt>
      <trkpt lat="47.653639549389482" lon="11.835122304037213">
        <ele>896.086181640625</ele>
        <time>2013-06-30T12:33:21Z</time>
      </trkpt>
      <trkpt lat="47.653579618781805" lon="11.835221461951733">
        <ele>896.086181640625</ele>
        <time>2013-06-30T12:33:23Z</time>
      </trkpt>
      <trkpt lat="47.653390355408192" lon="11.835359595716">
        <ele>896.086181640625</ele>
        <time>2013-06-30T12:33:28Z</time>
      </trkpt>
      <trkpt lat="47.652998417615891" lon="11.83553502894938">
        <ele>896.56689453125</ele>
        <time>2013-06-30T12:33:36Z</time>
      </trkpt>
      <trkpt lat="47.652905965223908" lon="11.835575262084603">
        <ele>896.56689453125</ele>
        <time>2013-06-30T12:33:38Z</time>
      </trkpt>
      <trkpt lat="47.652749726548791" lon="11.835691351443529">
        <ele>898.4892578125</ele>
        <time>2013-06-30T12:33:42Z</time>
      </trkpt>
      <trkpt lat="47.652297522872686" lon="11.836217399686575">
        <ele>899.931396484375</ele>
        <time>2013-06-30T12:33:55Z</time>
      </trkpt>
      <trkpt lat="47.651963336393237" lon="11.836435245350003">
        <ele>899.931396484375</ele>
        <time>2013-06-30T12:34:02Z</time>
      </trkpt>
      <trkpt lat="47.651225393638015" lon="11.836487716063857">
        <ele>898.969970703125</ele>
        <time>2013-06-30T12:34:13Z</time>
      </trkpt>
      <trkpt lat="47.650921549648046" lon="11.836723163723946">
        <ele>898.4892578125</ele>
        <time>2013-06-30T12:34:19Z</time>
      </trkpt>
      <trkpt lat="47.650512428954244" lon="11.837205290794373">
        <ele>899.931396484375</ele>
        <time>2013-06-30T12:34:29Z</time>
      </trkpt>
      <trkpt lat="47.650067936629057" lon="11.837701583281159">
        <ele>901.373291015625</ele>
        <time>2013-06-30T12:34:40Z</time>
      </trkpt>
      <trkpt lat="47.649689074605703" lon="11.838009031489491">
        <ele>901.85400390625</ele>
        <time>2013-06-30T12:34:49Z</time>
      </trkpt>
      <trkpt lat="47.649458236992359" lon="11.83812478557229">
        <ele>902.815185546875</ele>
        <time>2013-06-30T12:34:54Z</time>
      </trkpt>
      <trkpt lat="47.649275260046124" lon="11.83827230706811">
        <ele>902.33447265625</ele>
        <time>2013-06-30T12:34:58Z</time>
      </trkpt>
      <trkpt lat="47.649042326956987" lon="11.838555950671434">
        <ele>903.776611328125</ele>
        <time>2013-06-30T12:35:04Z</time>
      </trkpt>
      <trkpt lat="47.648815009742975" lon="11.838530218228698">
        <ele>905.69921875</ele>
        <time>2013-06-30T12:35:11Z</time>
      </trkpt>
      <trkpt lat="47.648720042780042" lon="11.838531559333205">
        <ele>906.1796875</ele>
        <time>2013-06-30T12:35:14Z</time>
      </trkpt>
      <trkpt lat="47.64860755763948" lon="11.838588556274772">
        <ele>907.621826171875</ele>
        <time>2013-06-30T12:35:18Z</time>
      </trkpt>
      <trkpt lat="47.648404212668538" lon="11.838603978976607">
        <ele>909.06396484375</ele>
        <time>2013-06-30T12:35:24Z</time>
      </trkpt>
      <trkpt lat="47.648280495777726" lon="11.838744794949889">
        <ele>909.544677734375</ele>
        <time>2013-06-30T12:35:28Z</time>
      </trkpt>
      <trkpt lat="47.648105649277568" lon="11.838865745812654">
        <ele>910.986572265625</ele>
        <time>2013-06-30T12:35:33Z</time>
      </trkpt>
      <trkpt lat="47.647817563265562" lon="11.83911276049912">
        <ele>911.947998046875</ele>
        <time>2013-06-30T12:35:40Z</time>
      </trkpt>
      <trkpt lat="47.647595694288611" lon="11.839235136285424">
        <ele>913.389892578125</ele>
        <time>2013-06-30T12:35:46Z</time>
      </trkpt>
      <trkpt lat="47.647477760910988" lon="11.83930579572916">
        <ele>914.35107421875</ele>
        <time>2013-06-30T12:35:51Z</time>
      </trkpt>
      <trkpt lat="47.647334178909659" lon="11.83944652788341">
        <ele>915.3125</ele>
        <time>2013-06-30T12:35:55Z</time>
      </trkpt>
      <trkpt lat="47.647207612171769" lon="11.839474607259035">
        <ele>915.793212890625</ele>
        <time>2013-06-30T12:35:58Z</time>
      </trkpt>
      <trkpt lat="47.647061850875616" lon="11.839520372450352">
        <ele>916.273681640625</ele>
        <time>2013-06-30T12:36:02Z</time>
      </trkpt>
      <trkpt lat="47.646959340199828" lon="11.839670911431313">
        <ele>917.715576171875</ele>
        <time>2013-06-30T12:36:07Z</time>
      </trkpt>
      <trkpt lat="47.646927405148745" lon="11.839739140123129">
        <ele>917.715576171875</ele>
        <time>2013-06-30T12:36:10Z</time>
      </trkpt>
      <trkpt lat="47.646764293313026" lon="11.839848272502422">
        <ele>920.118896484375</ele>
        <time>2013-06-30T12:36:17Z</time>
      </trkpt>
      <trkpt lat="47.646750127896667" lon="11.83985548093915">
        <ele>919.638427734375</ele>
        <time>2013-06-30T12:36:18Z</time>
      </trkpt>
      <trkpt lat="47.64652943238616" lon="11.840007025748491">
        <ele>921.080322265625</ele>
        <time>2013-06-30T12:36:25Z</time>
      </trkpt>
      <trkpt lat="47.646360034123063" lon="11.840097801759839">
        <ele>922.04150390625</ele>
        <time>2013-06-30T12:36:30Z</time>
      </trkpt>
      <trkpt lat="47.646331619471312" lon="11.840097634121776">
        <ele>922.522216796875</ele>
        <time>2013-06-30T12:36:31Z</time>
      </trkpt>
      <trkpt lat="47.646211171522737" lon="11.840076679363847">
        <ele>923.964111328125</ele>
        <time>2013-06-30T12:36:38Z</time>
      </trkpt>
      <trkpt lat="47.646069182083011" lon="11.840066453441978">
        <ele>924.92578125</ele>
        <time>2013-06-30T12:36:44Z</time>
      </trkpt>
      <trkpt lat="47.646009251475334" lon="11.840039882808924">
        <ele>924.92578125</ele>
        <time>2013-06-30T12:36:46Z</time>
      </trkpt>
      <trkpt lat="47.645841110497713" lon="11.840001326054335">
        <ele>926.36767578125</ele>
        <time>2013-06-30T12:36:53Z</time>
      </trkpt>
      <trkpt lat="47.645751424133778" lon="11.839926978573203">
        <ele>927.3291015625</ele>
        <time>2013-06-30T12:36:56Z</time>
      </trkpt>
      <trkpt lat="47.645639022812247" lon="11.83979487977922">
        <ele>928.290283203125</ele>
        <time>2013-06-30T12:37:02Z</time>
      </trkpt>
      <trkpt lat="47.645394271239638" lon="11.839623469859362">
        <ele>929.25146484375</ele>
        <time>2013-06-30T12:37:08Z</time>
      </trkpt>
      <trkpt lat="47.645193440839648" lon="11.839561695232987">
        <ele>930.693603515625</ele>
        <time>2013-06-30T12:37:14Z</time>
      </trkpt>
      <trkpt lat="47.645009625703096" lon="11.839684322476387">
        <ele>931.65478515625</ele>
        <time>2013-06-30T12:37:20Z</time>
      </trkpt>
      <trkpt lat="47.644892111420631" lon="11.839817175641656">
        <ele>933.0966796875</ele>
        <time>2013-06-30T12:37:26Z</time>
      </trkpt>
      <trkpt lat="47.644843077287078" lon="11.839953884482384">
        <ele>934.05810546875</ele>
        <time>2013-06-30T12:37:30Z</time>
      </trkpt>
      <trkpt lat="47.644875766709447" lon="11.840315815061331">
        <ele>935.980712890625</ele>
        <time>2013-06-30T12:37:38Z</time>
      </trkpt>
      <trkpt lat="47.644850537180901" lon="11.840911852195859">
        <ele>938.384033203125</ele>
        <time>2013-06-30T12:37:51Z</time>
      </trkpt>
      <trkpt lat="47.644844502210617" lon="11.84096222743392">
        <ele>938.384033203125</ele>
        <time>2013-06-30T12:37:52Z</time>
      </trkpt>
      <trkpt lat="47.644822206348181" lon="11.841513169929385">
        <ele>939.825927734375</ele>
        <time>2013-06-30T12:38:03Z</time>
      </trkpt>
      <trkpt lat="47.644839640706778" lon="11.842079367488623">
        <ele>940.787353515625</ele>
        <time>2013-06-30T12:38:14Z</time>
      </trkpt>
      <trkpt lat="47.644810974597931" lon="11.842647911980748">
        <ele>944.632568359375</ele>
        <time>2013-06-30T12:38:25Z</time>
      </trkpt>
      <trkpt lat="47.644744925200939" lon="11.843039849773049">
        <ele>945.11328125</ele>
        <time>2013-06-30T12:38:33Z</time>
      </trkpt>
      <trkpt lat="47.64468289911747" lon="11.843404797837138">
        <ele>943.67138671875</ele>
        <time>2013-06-30T12:38:38Z</time>
      </trkpt>
      <trkpt lat="47.644434794783592" lon="11.844080463051796">
        <ele>940.306884765625</ele>
        <time>2013-06-30T12:38:43Z</time>
      </trkpt>
      <trkpt lat="47.644340498372912" lon="11.844310378655791">
        <ele>938.86474609375</ele>
        <time>2013-06-30T12:38:45Z</time>
      </trkpt>
      <trkpt lat="47.644131034612656" lon="11.844879677519202">
        <ele>936.94189453125</ele>
        <time>2013-06-30T12:38:50Z</time>
      </trkpt>
      <trkpt lat="47.643790813162923" lon="11.845562215894461">
        <ele>938.384033203125</ele>
        <time>2013-06-30T12:38:57Z</time>
      </trkpt>
      <trkpt lat="47.643310530111194" lon="11.84630099684">
        <ele>937.9033203125</ele>
        <time>2013-06-30T12:39:06Z</time>
      </trkpt>
      <trkpt lat="47.643018336966634" lon="11.846797792240977">
        <ele>934.538818359375</ele>
        <time>2013-06-30T12:39:12Z</time>
      </trkpt>
      <trkpt lat="47.642854303121567" lon="11.847300790250301">
        <ele>934.538818359375</ele>
        <time>2013-06-30T12:39:17Z</time>
      </trkpt>
      <trkpt lat="47.642883807420731" lon="11.847521234303713">
        <ele>933.0966796875</ele>
        <time>2013-06-30T12:39:19Z</time>
      </trkpt>
      <trkpt lat="47.642970308661461" lon="11.847921386361122">
        <ele>929.732177734375</ele>
        <time>2013-06-30T12:39:22Z</time>
      </trkpt>
      <trkpt lat="47.642891518771648" lon="11.848420444875956">
        <ele>928.290283203125</ele>
        <time>2013-06-30T12:39:26Z</time>
      </trkpt>
      <trkpt lat="47.642832929268479" lon="11.848530666902661">
        <ele>928.290283203125</ele>
        <time>2013-06-30T12:39:27Z</time>
      </trkpt>
      <trkpt lat="47.642723293974996" lon="11.848732000216842">
        <ele>927.3291015625</ele>
        <time>2013-06-30T12:39:29Z</time>
      </trkpt>
      <trkpt lat="47.642701584845781" lon="11.849117483943701">
        <ele>926.848388671875</ele>
        <time>2013-06-30T12:39:32Z</time>
      </trkpt>
      <trkpt lat="47.642620364204049" lon="11.849563401192427">
        <ele>924.445068359375</ele>
        <time>2013-06-30T12:39:36Z</time>
      </trkpt>
      <trkpt lat="47.642548028379679" lon="11.849631210789084">
        <ele>922.522216796875</ele>
        <time>2013-06-30T12:39:37Z</time>
      </trkpt>
      <trkpt lat="47.642335379496217" lon="11.849883170798421">
        <ele>922.04150390625</ele>
        <time>2013-06-30T12:39:40Z</time>
      </trkpt>
      <trkpt lat="47.641943274065852" lon="11.850112918764353">
        <ele>920.599609375</ele>
        <time>2013-06-30T12:39:45Z</time>
      </trkpt>
      <trkpt lat="47.641857862472534" lon="11.850103111937642">
        <ele>920.599609375</ele>
        <time>2013-06-30T12:39:46Z</time>
      </trkpt>
      <trkpt lat="47.641694247722626" lon="11.850077211856842">
        <ele>920.118896484375</ele>
        <time>2013-06-30T12:39:48Z</time>
      </trkpt>
      <trkpt lat="47.641081614419818" lon="11.850089617073536">
        <ele>916.273681640625</ele>
        <time>2013-06-30T12:39:55Z</time>
      </trkpt>
      <trkpt lat="47.640986479818821" lon="11.850100513547659">
        <ele>914.831787109375</ele>
        <time>2013-06-30T12:39:56Z</time>
      </trkpt>
      <trkpt lat="47.640686742961407" lon="11.850194726139307">
        <ele>911.947998046875</ele>
        <time>2013-06-30T12:39:59Z</time>
      </trkpt>
      <trkpt lat="47.640583561733365" lon="11.850247699767351">
        <ele>912.428466796875</ele>
        <time>2013-06-30T12:40:00Z</time>
      </trkpt>
      <trkpt lat="47.640375019982457" lon="11.850331099703908">
        <ele>910.986572265625</ele>
        <time>2013-06-30T12:40:02Z</time>
      </trkpt>
      <trkpt lat="47.639980651438236" lon="11.850471161305904">
        <ele>909.544677734375</ele>
        <time>2013-06-30T12:40:06Z</time>
      </trkpt>
      <trkpt lat="47.639692984521389" lon="11.85040888376534">
        <ele>909.544677734375</ele>
        <time>2013-06-30T12:40:09Z</time>
      </trkpt>
      <trkpt lat="47.639335496351123" lon="11.850411565974355">
        <ele>909.544677734375</ele>
        <time>2013-06-30T12:40:13Z</time>
      </trkpt>
      <trkpt lat="47.639097617939115" lon="11.85043235309422">
        <ele>908.102783203125</ele>
        <time>2013-06-30T12:40:16Z</time>
      </trkpt>
      <trkpt lat="47.63871087692678" lon="11.850179051980376">
        <ele>906.660400390625</ele>
        <time>2013-06-30T12:40:21Z</time>
      </trkpt>
      <trkpt lat="47.638637451454997" lon="11.850102273747325">
        <ele>906.1796875</ele>
        <time>2013-06-30T12:40:22Z</time>
      </trkpt>
      <trkpt lat="47.638397309929132" lon="11.849866155534983">
        <ele>903.2958984375</ele>
        <time>2013-06-30T12:40:25Z</time>
      </trkpt>
      <trkpt lat="47.638126909732819" lon="11.849718131124973">
        <ele>903.2958984375</ele>
        <time>2013-06-30T12:40:28Z</time>
      </trkpt>
      <trkpt lat="47.637973101809621" lon="11.849580835551023">
        <ele>902.815185546875</ele>
        <time>2013-06-30T12:40:30Z</time>
      </trkpt>
      <trkpt lat="47.637903532013297" lon="11.849512942135334">
        <ele>901.85400390625</ele>
        <time>2013-06-30T12:40:31Z</time>
      </trkpt>
      <trkpt lat="47.637471863999963" lon="11.849378412589431">
        <ele>898.4892578125</ele>
        <time>2013-06-30T12:40:36Z</time>
      </trkpt>
      <trkpt lat="47.637187717482448" lon="11.849238937720656">
        <ele>897.04736328125</ele>
        <time>2013-06-30T12:40:39Z</time>
      </trkpt>
      <trkpt lat="47.636998873203993" lon="11.849137684330344">
        <ele>895.124755859375</ele>
        <time>2013-06-30T12:40:41Z</time>
      </trkpt>
      <trkpt lat="47.636491265147924" lon="11.849091919139028">
        <ele>892.7216796875</ele>
        <time>2013-06-30T12:40:46Z</time>
      </trkpt>
      <trkpt lat="47.63608792796731" lon="11.849012961611152">
        <ele>889.83740234375</ele>
        <time>2013-06-30T12:40:50Z</time>
      </trkpt>
      <trkpt lat="47.635882906615734" lon="11.848995191976428">
        <ele>888.3955078125</ele>
        <time>2013-06-30T12:40:52Z</time>
      </trkpt>
      <trkpt lat="47.635471355170012" lon="11.849026624113321">
        <ele>886.953369140625</ele>
        <time>2013-06-30T12:40:56Z</time>
      </trkpt>
      <trkpt lat="47.635169690474868" lon="11.849282691255212">
        <ele>885.031005859375</ele>
        <time>2013-06-30T12:41:00Z</time>
      </trkpt>
      <trkpt lat="47.635159296914935" lon="11.849497519433498">
        <ele>884.55029296875</ele>
        <time>2013-06-30T12:41:01Z</time>
      </trkpt>
      <trkpt lat="47.635031640529633" lon="11.84995399788022">
        <ele>882.14697265625</ele>
        <time>2013-06-30T12:41:04Z</time>
      </trkpt>
      <trkpt lat="47.634688150137663" lon="11.850819261744618">
        <ele>877.821044921875</ele>
        <time>2013-06-30T12:41:10Z</time>
      </trkpt>
      <trkpt lat="47.634430825710297" lon="11.851306837052107">
        <ele>875.898193359375</ele>
        <time>2013-06-30T12:41:14Z</time>
      </trkpt>
      <trkpt lat="47.634242316707969" lon="11.851660134270787">
        <ele>873.9755859375</ele>
        <time>2013-06-30T12:41:17Z</time>
      </trkpt>
      <trkpt lat="47.633944256231189" lon="11.852254159748554">
        <ele>872.53369140625</ele>
        <time>2013-06-30T12:41:22Z</time>
      </trkpt>
      <trkpt lat="47.633847109973431" lon="11.852485248818994">
        <ele>872.052978515625</ele>
        <time>2013-06-30T12:41:24Z</time>
      </trkpt>
      <trkpt lat="47.633569501340389" lon="11.852880623191595">
        <ele>869.169189453125</ele>
        <time>2013-06-30T12:41:28Z</time>
      </trkpt>
      <trkpt lat="47.633251994848251" lon="11.853224113583565">
        <ele>868.6884765625</ele>
        <time>2013-06-30T12:41:32Z</time>
      </trkpt>
      <trkpt lat="47.633101036772132" lon="11.853522844612598">
        <ele>866.765869140625</ele>
        <time>2013-06-30T12:41:35Z</time>
      </trkpt>
      <trkpt lat="47.633124338462949" lon="11.853753766044974">
        <ele>866.765869140625</ele>
        <time>2013-06-30T12:41:37Z</time>
      </trkpt>
      <trkpt lat="47.633193740621209" lon="11.854332871735096">
        <ele>864.84326171875</ele>
        <time>2013-06-30T12:41:42Z</time>
      </trkpt>
      <trkpt lat="47.632908252999187" lon="11.854738723486662">
        <ele>864.362548828125</ele>
        <time>2013-06-30T12:41:47Z</time>
      </trkpt>
      <trkpt lat="47.632797444239259" lon="11.854904182255268">
        <ele>862.920654296875</ele>
        <time>2013-06-30T12:41:49Z</time>
      </trkpt>
      <trkpt lat="47.632546992972493" lon="11.855227472260594">
        <ele>861.95947265625</ele>
        <time>2013-06-30T12:41:53Z</time>
      </trkpt>
      <trkpt lat="47.632333841174841" lon="11.85605350881815">
        <ele>858.594482421875</ele>
        <time>2013-06-30T12:41:59Z</time>
      </trkpt>
      <trkpt lat="47.631922457367182" lon="11.856860350817442">
        <ele>856.191162109375</ele>
        <time>2013-06-30T12:42:06Z</time>
      </trkpt>
      <trkpt lat="47.631840482354164" lon="11.857129074633121">
        <ele>854.749267578125</ele>
        <time>2013-06-30T12:42:08Z</time>
      </trkpt>
      <trkpt lat="47.631900915876031" lon="11.857963325455785">
        <ele>853.307373046875</ele>
        <time>2013-06-30T12:42:13Z</time>
      </trkpt>
      <trkpt lat="47.631744174286723" lon="11.858505131676793">
        <ele>851.384765625</ele>
        <time>2013-06-30T12:42:17Z</time>
      </trkpt>
      <trkpt lat="47.631538147106767" lon="11.858834875747561">
        <ele>849.94287109375</ele>
        <time>2013-06-30T12:42:20Z</time>
      </trkpt>
      <trkpt lat="47.631434295326471" lon="11.859152633696795">
        <ele>848.9814453125</ele>
        <time>2013-06-30T12:42:23Z</time>
      </trkpt>
      <trkpt lat="47.631407221779227" lon="11.85950911603868">
        <ele>848.500732421875</ele>
        <time>2013-06-30T12:42:27Z</time>
      </trkpt>
      <trkpt lat="47.631544349715114" lon="11.860093167051673">
        <ele>845.616943359375</ele>
        <time>2013-06-30T12:42:32Z</time>
      </trkpt>
      <trkpt lat="47.631595227867365" lon="11.860514944419265">
        <ele>844.175048828125</ele>
        <time>2013-06-30T12:42:35Z</time>
      </trkpt>
      <trkpt lat="47.631533369421959" lon="11.860934123396873">
        <ele>843.21337890625</ele>
        <time>2013-06-30T12:42:38Z</time>
      </trkpt>
      <trkpt lat="47.63153781183064" lon="11.861640214920044">
        <ele>844.655517578125</ele>
        <time>2013-06-30T12:42:44Z</time>
      </trkpt>
      <trkpt lat="47.631563795730472" lon="11.861762003973126">
        <ele>844.175048828125</ele>
        <time>2013-06-30T12:42:45Z</time>
      </trkpt>
      <trkpt lat="47.631530435755849" lon="11.862518722191453">
        <ele>843.21337890625</ele>
        <time>2013-06-30T12:42:51Z</time>
      </trkpt>
      <trkpt lat="47.631371933966875" lon="11.862945444881916">
        <ele>843.694091796875</ele>
        <time>2013-06-30T12:42:55Z</time>
      </trkpt>
      <trkpt lat="47.631189962849021" lon="11.863555815070868">
        <ele>843.694091796875</ele>
        <time>2013-06-30T12:43:01Z</time>
      </trkpt>
      <trkpt lat="47.631094660609961" lon="11.864212034270167">
        <ele>843.21337890625</ele>
        <time>2013-06-30T12:43:07Z</time>
      </trkpt>
      <trkpt lat="47.63097538612783" lon="11.8646006193012">
        <ele>843.21337890625</ele>
        <time>2013-06-30T12:43:11Z</time>
      </trkpt>
      <trkpt lat="47.630695598199964" lon="11.864921478554606">
        <ele>842.73291015625</ele>
        <time>2013-06-30T12:43:16Z</time>
      </trkpt>
      <trkpt lat="47.630512872710824" lon="11.865256503224373">
        <ele>842.73291015625</ele>
        <time>2013-06-30T12:43:20Z</time>
      </trkpt>
      <trkpt lat="47.630453445017338" lon="11.865445598959923">
        <ele>842.73291015625</ele>
        <time>2013-06-30T12:43:22Z</time>
      </trkpt>
      <trkpt lat="47.630165526643395" lon="11.865713065490127">
        <ele>842.73291015625</ele>
        <time>2013-06-30T12:43:27Z</time>
      </trkpt>
      <trkpt lat="47.630032505840063" lon="11.86579923145473">
        <ele>842.252197265625</ele>
        <time>2013-06-30T12:43:29Z</time>
      </trkpt>
      <trkpt lat="47.629783311858773" lon="11.866041803732514">
        <ele>842.252197265625</ele>
        <time>2013-06-30T12:43:33Z</time>
      </trkpt>
      <trkpt lat="47.629489693790674" lon="11.866546561941504">
        <ele>840.81005859375</ele>
        <time>2013-06-30T12:43:39Z</time>
      </trkpt>
      <trkpt lat="47.629264052957296" lon="11.86738969758153">
        <ele>838.8876953125</ele>
        <time>2013-06-30T12:43:47Z</time>
      </trkpt>
      <trkpt lat="47.629204038530588" lon="11.867618020623922">
        <ele>838.406982421875</ele>
        <time>2013-06-30T12:43:49Z</time>
      </trkpt>
      <trkpt lat="47.629133714362979" lon="11.867985902354121">
        <ele>836.484375</ele>
        <time>2013-06-30T12:43:52Z</time>
      </trkpt>
      <trkpt lat="47.62895786203444" lon="11.86847934499383">
        <ele>834.0810546875</ele>
        <time>2013-06-30T12:43:56Z</time>
      </trkpt>
      <trkpt lat="47.628862308338284" lon="11.868865415453911">
        <ele>834.0810546875</ele>
        <time>2013-06-30T12:43:59Z</time>
      </trkpt>
      <trkpt lat="47.628893572837114" lon="11.869524735957384">
        <ele>832.63916015625</ele>
        <time>2013-06-30T12:44:04Z</time>
      </trkpt>
      <trkpt lat="47.628907738253474" lon="11.869786167517304">
        <ele>832.63916015625</ele>
        <time>2013-06-30T12:44:06Z</time>
      </trkpt>
      <trkpt lat="47.628765413537621" lon="11.870648162439466">
        <ele>832.158447265625</ele>
        <time>2013-06-30T12:44:13Z</time>
      </trkpt>
      <trkpt lat="47.628563074395061" lon="11.871653152629733">
        <ele>831.677734375</ele>
        <time>2013-06-30T12:44:21Z</time>
      </trkpt>
      <trkpt lat="47.628374313935637" lon="11.872613886371255">
        <ele>830.716552734375</ele>
        <time>2013-06-30T12:44:29Z</time>
      </trkpt>
      <trkpt lat="47.628328381106257" lon="11.872833156958222">
        <ele>831.197265625</ele>
        <time>2013-06-30T12:44:31Z</time>
      </trkpt>
      <trkpt lat="47.628066949546337" lon="11.873073130846024">
        <ele>830.716552734375</ele>
        <time>2013-06-30T12:44:35Z</time>
      </trkpt>
      <trkpt lat="47.62779981829226" lon="11.873402455821633">
        <ele>830.23583984375</ele>
        <time>2013-06-30T12:44:40Z</time>
      </trkpt>
      <trkpt lat="47.627711724489927" lon="11.87400377355516">
        <ele>829.755126953125</ele>
        <time>2013-06-30T12:44:45Z</time>
      </trkpt>
      <trkpt lat="47.627743324264884" lon="11.874123383313417">
        <ele>829.755126953125</ele>
        <time>2013-06-30T12:44:46Z</time>
      </trkpt>
      <trkpt lat="47.627887157723308" lon="11.874431250616908">
        <ele>828.7939453125</ele>
        <time>2013-06-30T12:44:49Z</time>
      </trkpt>
      <trkpt lat="47.627977598458529" lon="11.874882029369473">
        <ele>827.832275390625</ele>
        <time>2013-06-30T12:44:53Z</time>
      </trkpt>
      <trkpt lat="47.627852791920304" lon="11.875192495062947">
        <ele>827.832275390625</ele>
        <time>2013-06-30T12:44:56Z</time>
      </trkpt>
      <trkpt lat="47.627581469714642" lon="11.875475300475955">
        <ele>828.7939453125</ele>
        <time>2013-06-30T12:45:01Z</time>
      </trkpt>
      <trkpt lat="47.627476612105966" lon="11.875654840841889">
        <ele>828.7939453125</ele>
        <time>2013-06-30T12:45:05Z</time>
      </trkpt>
      <trkpt lat="47.627368737012148" lon="11.875764140859246">
        <ele>827.832275390625</ele>
        <time>2013-06-30T12:45:08Z</time>
      </trkpt>
      <trkpt lat="47.627038657665253" lon="11.876038061454892">
        <ele>828.313232421875</ele>
        <time>2013-06-30T12:45:15Z</time>
      </trkpt>
      <trkpt lat="47.626751912757754" lon="11.87671179883182">
        <ele>827.351806640625</ele>
        <time>2013-06-30T12:45:23Z</time>
      </trkpt>
      <trkpt lat="47.626680079847574" lon="11.876870635896921">
        <ele>827.351806640625</ele>
        <time>2013-06-30T12:45:25Z</time>
      </trkpt>
      <trkpt lat="47.626293171197176" lon="11.877325186505914">
        <ele>826.87109375</ele>
        <time>2013-06-30T12:45:33Z</time>
      </trkpt>
      <trkpt lat="47.626113211736083" lon="11.87745351344347">
        <ele>825.90966796875</ele>
        <time>2013-06-30T12:45:36Z</time>
      </trkpt>
      <trkpt lat="47.625629995018244" lon="11.877781497314572">
        <ele>827.351806640625</ele>
        <time>2013-06-30T12:45:44Z</time>
      </trkpt>
      <trkpt lat="47.625522203743458" lon="11.877808989956975">
        <ele>827.832275390625</ele>
        <time>2013-06-30T12:45:46Z</time>
      </trkpt>
      <trkpt lat="47.625198243185878" lon="11.877694493159652">
        <ele>829.755126953125</ele>
        <time>2013-06-30T12:45:53Z</time>
      </trkpt>
      <trkpt lat="47.624985594302416" lon="11.87766850925982">
        <ele>830.716552734375</ele>
        <time>2013-06-30T12:45:59Z</time>
      </trkpt>
      <trkpt lat="47.62477126903832" lon="11.877752495929599">
        <ele>832.158447265625</ele>
        <time>2013-06-30T12:46:05Z</time>
      </trkpt>
      <trkpt lat="47.624607570469379" lon="11.878005713224411">
        <ele>832.63916015625</ele>
        <time>2013-06-30T12:46:12Z</time>
      </trkpt>
      <trkpt lat="47.62444881722331" lon="11.878396812826395">
        <ele>834.561767578125</ele>
        <time>2013-06-30T12:46:22Z</time>
      </trkpt>
      <trkpt lat="47.624356783926487" lon="11.878739297389984">
        <ele>836.003662109375</ele>
        <time>2013-06-30T12:46:29Z</time>
      </trkpt>
      <trkpt lat="47.624262487515807" lon="11.879372466355562">
        <ele>837.92626953125</ele>
        <time>2013-06-30T12:46:42Z</time>
      </trkpt>
      <trkpt lat="47.624272461980581" lon="11.879812180995941">
        <ele>839.3681640625</ele>
        <time>2013-06-30T12:46:51Z</time>
      </trkpt>
      <trkpt lat="47.624315293505788" lon="11.880366895347834">
        <ele>841.771484375</ele>
        <time>2013-06-30T12:47:03Z</time>
      </trkpt>
      <trkpt lat="47.624282268807292" lon="11.880576526746154">
        <ele>841.771484375</ele>
        <time>2013-06-30T12:47:07Z</time>
      </trkpt>
      <trkpt lat="47.624180596321821" lon="11.880889507010579">
        <ele>839.848876953125</ele>
        <time>2013-06-30T12:47:12Z</time>
      </trkpt>
      <trkpt lat="47.624108763411641" lon="11.881154794245958">
        <ele>837.92626953125</ele>
        <time>2013-06-30T12:47:15Z</time>
      </trkpt>
      <trkpt lat="47.623911201953888" lon="11.881873374804854">
        <ele>836.484375</ele>
        <time>2013-06-30T12:47:22Z</time>
      </trkpt>
      <trkpt lat="47.623752616345882" lon="11.882293894886971">
        <ele>834.561767578125</ele>
        <time>2013-06-30T12:47:26Z</time>
      </trkpt>
      <trkpt lat="47.623683046549559" lon="11.882514674216509">
        <ele>832.63916015625</ele>
        <time>2013-06-30T12:47:28Z</time>
      </trkpt>
      <trkpt lat="47.623666785657406" lon="11.883021024987102">
        <ele>829.755126953125</ele>
        <time>2013-06-30T12:47:32Z</time>
      </trkpt>
      <trkpt lat="47.623699894174933" lon="11.883286479860544">
        <ele>830.23583984375</ele>
        <time>2013-06-30T12:47:34Z</time>
      </trkpt>
      <trkpt lat="47.623656056821346" lon="11.883729128167033">
        <ele>827.832275390625</ele>
        <time>2013-06-30T12:47:38Z</time>
      </trkpt>
      <trkpt lat="47.62340652756393" lon="11.883807918056846">
        <ele>825.90966796875</ele>
        <time>2013-06-30T12:47:41Z</time>
      </trkpt>
      <trkpt lat="47.623032024130225" lon="11.883774222806096">
        <ele>821.583740234375</ele>
        <time>2013-06-30T12:47:45Z</time>
      </trkpt>
      <trkpt lat="47.622718205675483" lon="11.883730804547668">
        <ele>820.62255859375</ele>
        <time>2013-06-30T12:47:48Z</time>
      </trkpt>
      <trkpt lat="47.622329955920577" lon="11.883859047666192">
        <ele>817.258056640625</ele>
        <time>2013-06-30T12:47:52Z</time>
      </trkpt>
      <trkpt lat="47.621990656480193" lon="11.884256936609745">
        <ele>814.3740234375</ele>
        <time>2013-06-30T12:47:56Z</time>
      </trkpt>
      <trkpt lat="47.621729644015431" lon="11.884802095592022">
        <ele>811.489990234375</ele>
        <time>2013-06-30T12:48:00Z</time>
      </trkpt>
      <trkpt lat="47.621561335399747" lon="11.885237954556942">
        <ele>808.12548828125</ele>
        <time>2013-06-30T12:48:03Z</time>
      </trkpt>
      <trkpt lat="47.621510541066527" lon="11.885378938168287">
        <ele>808.12548828125</ele>
        <time>2013-06-30T12:48:04Z</time>
      </trkpt>
      <trkpt lat="47.621399480849504" lon="11.885641040280461">
        <ele>807.644775390625</ele>
        <time>2013-06-30T12:48:06Z</time>
      </trkpt>
      <trkpt lat="47.621152130886912" lon="11.886124508455396">
        <ele>807.644775390625</ele>
        <time>2013-06-30T12:48:10Z</time>
      </trkpt>
      <trkpt lat="47.621094547212124" lon="11.886372361332178">
        <ele>809.086669921875</ele>
        <time>2013-06-30T12:48:12Z</time>
      </trkpt>
      <trkpt lat="47.621104521676898" lon="11.88674041070044">
        <ele>807.644775390625</ele>
        <time>2013-06-30T12:48:15Z</time>
      </trkpt>
      <trkpt lat="47.621183479204774" lon="11.887081051245332">
        <ele>808.12548828125</ele>
        <time>2013-06-30T12:48:18Z</time>
      </trkpt>
      <trkpt lat="47.621041825041175" lon="11.88747332431376">
        <ele>808.12548828125</ele>
        <time>2013-06-30T12:48:22Z</time>
      </trkpt>
      <trkpt lat="47.620513262227178" lon="11.887743640691042">
        <ele>807.644775390625</ele>
        <time>2013-06-30T12:48:29Z</time>
      </trkpt>
      <trkpt lat="47.620320897549391" lon="11.888195173814893">
        <ele>808.12548828125</ele>
        <time>2013-06-30T12:48:34Z</time>
      </trkpt>
      <trkpt lat="47.620254848152399" lon="11.888909479603171">
        <ele>807.644775390625</ele>
        <time>2013-06-30T12:48:40Z</time>
      </trkpt>
      <trkpt lat="47.620247304439545" lon="11.889157667756081">
        <ele>807.1640625</ele>
        <time>2013-06-30T12:48:42Z</time>
      </trkpt>
      <trkpt lat="47.620301619172096" lon="11.889763176441193">
        <ele>805.241455078125</ele>
        <time>2013-06-30T12:48:47Z</time>
      </trkpt>
      <trkpt lat="47.620203634724021" lon="11.890322333201766">
        <ele>805.72216796875</ele>
        <time>2013-06-30T12:48:52Z</time>
      </trkpt>
      <trkpt lat="47.620080336928368" lon="11.890867576003075">
        <ele>807.1640625</ele>
        <time>2013-06-30T12:48:58Z</time>
      </trkpt>
      <trkpt lat="47.620086707174778" lon="11.890981150791049">
        <ele>806.683349609375</ele>
        <time>2013-06-30T12:49:00Z</time>
      </trkpt>
      <trkpt lat="47.620165329426527" lon="11.891213078051805">
        <ele>808.60595703125</ele>
        <time>2013-06-30T12:49:04Z</time>
      </trkpt>
      <trkpt lat="47.620468586683273" lon="11.891545336693525">
        <ele>808.60595703125</ele>
        <time>2013-06-30T12:49:12Z</time>
      </trkpt>
      <trkpt lat="47.620560871437192" lon="11.891619013622403">
        <ele>807.644775390625</ele>
        <time>2013-06-30T12:49:14Z</time>
      </trkpt>
      <trkpt lat="47.620719373226166" lon="11.891844905912876">
        <ele>809.086669921875</ele>
        <time>2013-06-30T12:49:19Z</time>
      </trkpt>
      <trkpt lat="47.620777208358049" lon="11.891930233687162">
        <ele>809.086669921875</ele>
        <time>2013-06-30T12:49:21Z</time>
      </trkpt>
      <trkpt lat="47.621041154488921" lon="11.892162831500173">
        <ele>809.5673828125</ele>
        <time>2013-06-30T12:49:26Z</time>
      </trkpt>
      <trkpt lat="47.621289426460862" lon="11.892250422388315">
        <ele>810.0478515625</ele>
        <time>2013-06-30T12:49:31Z</time>
      </trkpt>
      <trkpt lat="47.621341394260526" lon="11.892283447086811">
        <ele>810.528564453125</ele>
        <time>2013-06-30T12:49:33Z</time>
      </trkpt>
      <trkpt lat="47.62146569788456" lon="11.892330050468445">
        <ele>809.5673828125</ele>
        <time>2013-06-30T12:49:38Z</time>
      </trkpt>
      <trkpt lat="47.621772726997733" lon="11.892407918348908">
        <ele>810.528564453125</ele>
        <time>2013-06-30T12:49:44Z</time>
      </trkpt>
      <trkpt lat="47.621858222410083" lon="11.892410516738892">
        <ele>811.00927734375</ele>
        <time>2013-06-30T12:49:47Z</time>
      </trkpt>
      <trkpt lat="47.62195335701108" lon="11.892422921955585">
        <ele>811.489990234375</ele>
        <time>2013-06-30T12:49:52Z</time>
      </trkpt>
      <trkpt lat="47.622125688940287" lon="11.892493832856417">
        <ele>811.489990234375</ele>
        <time>2013-06-30T12:49:56Z</time>
      </trkpt>
      <trkpt lat="47.622213531285524" lon="11.89251646399498">
        <ele>811.00927734375</ele>
        <time>2013-06-30T12:50:01Z</time>
      </trkpt>
      <trkpt lat="47.62226952239871" lon="11.892477488145232">
        <ele>812.93212890625</ele>
        <time>2013-06-30T12:50:06Z</time>
      </trkpt>
      <trkpt lat="47.622383600100875" lon="11.892440943047404">
        <ele>812.93212890625</ele>
        <time>2013-06-30T12:50:11Z</time>
      </trkpt>
      <trkpt lat="47.622617706656456" lon="11.892506238073111">
        <ele>813.893310546875</ele>
        <time>2013-06-30T12:50:18Z</time>
      </trkpt>
      <trkpt lat="47.622719630599022" lon="11.892535910010338">
        <ele>813.412841796875</ele>
        <time>2013-06-30T12:50:24Z</time>
      </trkpt>
      <trkpt lat="47.62274787761271" lon="11.89255703240633">
        <ele>813.412841796875</ele>
        <time>2013-06-30T12:50:30Z</time>
      </trkpt>
      <trkpt lat="47.622842341661453" lon="11.892547225579619">
        <ele>813.412841796875</ele>
        <time>2013-06-30T12:50:35Z</time>
      </trkpt>
      <trkpt lat="47.62314124032855" lon="11.892608245834708">
        <ele>813.412841796875</ele>
        <time>2013-06-30T12:50:40Z</time>
      </trkpt>
      <trkpt lat="47.62326730415225" lon="11.892625680193305">
        <ele>813.893310546875</ele>
        <time>2013-06-30T12:50:46Z</time>
      </trkpt>
      <trkpt lat="47.623276021331549" lon="11.892620315775275">
        <ele>813.893310546875</ele>
        <time>2013-06-30T12:50:47Z</time>
      </trkpt>
      <trkpt lat="47.623383225873113" lon="11.892587458714843">
        <ele>814.854736328125</ele>
        <time>2013-06-30T12:50:51Z</time>
      </trkpt>
      <trkpt lat="47.623703749850392" lon="11.892472878098488">
        <ele>814.854736328125</ele>
        <time>2013-06-30T12:50:58Z</time>
      </trkpt>
      <trkpt lat="47.623723614960909" lon="11.89244857057929">
        <ele>815.816162109375</ele>
        <time>2013-06-30T12:50:59Z</time>
      </trkpt>
      <trkpt lat="47.623759992420673" lon="11.89245100133121">
        <ele>816.296630859375</ele>
        <time>2013-06-30T12:51:05Z</time>
      </trkpt>
      <trkpt lat="47.624104488641024" lon="11.89243926666677">
        <ele>817.258056640625</ele>
        <time>2013-06-30T12:51:07Z</time>
      </trkpt>
      <trkpt lat="47.624391233548522" lon="11.89267672598362">
        <ele>818.21923828125</ele>
        <time>2013-06-30T12:51:13Z</time>
      </trkpt>
      <trkpt lat="47.624450074508786" lon="11.892702877521515">
        <ele>817.738525390625</ele>
        <time>2013-06-30T12:51:14Z</time>
      </trkpt>
      <trkpt lat="47.624597931280732" lon="11.892835143953562">
        <ele>818.21923828125</ele>
        <time>2013-06-30T12:51:18Z</time>
      </trkpt>
      <trkpt lat="47.62492910027504" lon="11.893022060394287">
        <ele>818.699951171875</ele>
        <time>2013-06-30T12:51:24Z</time>
      </trkpt>
      <trkpt lat="47.625180138275027" lon="11.893106801435351">
        <ele>819.1806640625</ele>
        <time>2013-06-30T12:51:29Z</time>
      </trkpt>
      <trkpt lat="47.625445006415248" lon="11.893055755645037">
        <ele>819.661376953125</ele>
        <time>2013-06-30T12:51:35Z</time>
      </trkpt>
      <trkpt lat="47.625572914257646" lon="11.892998926341534">
        <ele>819.1806640625</ele>
        <time>2013-06-30T12:51:39Z</time>
      </trkpt>
      <trkpt lat="47.625594958662987" lon="11.892979564145207">
        <ele>819.1806640625</ele>
        <time>2013-06-30T12:51:40Z</time>
      </trkpt>
      <trkpt lat="47.625783132389188" lon="11.892842352390289">
        <ele>820.62255859375</ele>
        <time>2013-06-30T12:51:46Z</time>
      </trkpt>
      <trkpt lat="47.625897880643606" lon="11.892788121476769">
        <ele>821.103271484375</ele>
        <time>2013-06-30T12:51:48Z</time>
      </trkpt>
      <trkpt lat="47.626189403235912" lon="11.892653089016676">
        <ele>821.103271484375</ele>
        <time>2013-06-30T12:51:54Z</time>
      </trkpt>
      <trkpt lat="47.626363663002849" lon="11.892702709883451">
        <ele>821.583740234375</ele>
        <time>2013-06-30T12:51:59Z</time>
      </trkpt>
      <trkpt lat="47.626428036019206" lon="11.892732633277774">
        <ele>821.583740234375</ele>
        <time>2013-06-30T12:52:01Z</time>
      </trkpt>
      <trkpt lat="47.626674380153418" lon="11.892614616081119">
        <ele>823.506591796875</ele>
        <time>2013-06-30T12:52:08Z</time>
      </trkpt>
      <trkpt lat="47.626833049580455" lon="11.892595924437046">
        <ele>823.506591796875</ele>
        <time>2013-06-30T12:52:12Z</time>
      </trkpt>
      <trkpt lat="47.627048464491963" lon="11.892563821747899">
        <ele>823.506591796875</ele>
        <time>2013-06-30T12:52:17Z</time>
      </trkpt>
      <trkpt lat="47.627173941582441" lon="11.892534820362926">
        <ele>825.428955078125</ele>
        <time>2013-06-30T12:52:22Z</time>
      </trkpt>
      <trkpt lat="47.627174779772758" lon="11.892526187002659">
        <ele>825.90966796875</ele>
        <time>2013-06-30T12:52:23Z</time>
      </trkpt>
      <trkpt lat="47.627153238281608" lon="11.892491318285465">
        <ele>825.90966796875</ele>
        <time>2013-06-30T12:52:26Z</time>
      </trkpt>
      <trkpt lat="47.62726865708828" lon="11.892497353255749">
        <ele>824.948486328125</ele>
        <time>2013-06-30T12:52:31Z</time>
      </trkpt>
      <trkpt lat="47.627346524968743" lon="11.892508752644062">
        <ele>826.87109375</ele>
        <time>2013-06-30T12:52:35Z</time>
      </trkpt>
      <trkpt lat="47.627371838316321" lon="11.892537167295814">
        <ele>826.87109375</ele>
        <time>2013-06-30T12:52:42Z</time>
      </trkpt>
      <trkpt lat="47.627386590465903" lon="11.892584692686796">
        <ele>826.87109375</ele>
        <time>2013-06-30T12:52:48Z</time>
      </trkpt>
      <trkpt lat="47.627399247139692" lon="11.892631966620684">
        <ele>826.87109375</ele>
        <time>2013-06-30T12:52:50Z</time>
      </trkpt>
      <trkpt lat="47.627561436966062" lon="11.892718467861414">
        <ele>827.351806640625</ele>
        <time>2013-06-30T12:52:55Z</time>
      </trkpt>
      <trkpt lat="47.627627989277244" lon="11.892773201689124">
        <ele>827.832275390625</ele>
        <time>2013-06-30T12:52:59Z</time>
      </trkpt>
      <trkpt lat="47.627757405862212" lon="11.892777727916837">
        <ele>828.313232421875</ele>
        <time>2013-06-30T12:53:03Z</time>
      </trkpt>
      <trkpt lat="47.62793661095202" lon="11.892688376829028">
        <ele>829.755126953125</ele>
        <time>2013-06-30T12:53:09Z</time>
      </trkpt>
      <trkpt lat="47.627993859350681" lon="11.89268946647644">
        <ele>831.677734375</ele>
        <time>2013-06-30T12:53:18Z</time>
      </trkpt>
      <trkpt lat="47.628014981746674" lon="11.892671529203653">
        <ele>831.197265625</ele>
        <time>2013-06-30T12:53:30Z</time>
      </trkpt>
      <trkpt lat="47.628369620069861" lon="11.892586955800653">
        <ele>831.677734375</ele>
        <time>2013-06-30T12:53:42Z</time>
      </trkpt>
      <trkpt lat="47.628450924530625" lon="11.892523923888803">
        <ele>830.716552734375</ele>
        <time>2013-06-30T12:53:48Z</time>
      </trkpt>
      <trkpt lat="47.628677906468511" lon="11.892441026866436">
        <ele>831.677734375</ele>
        <time>2013-06-30T12:53:54Z</time>
      </trkpt>
      <trkpt lat="47.628997256979346" lon="11.892473716288805">
        <ele>831.197265625</ele>
        <time>2013-06-30T12:54:01Z</time>
      </trkpt>
      <trkpt lat="47.629197835922241" lon="11.892475727945566">
        <ele>832.158447265625</ele>
        <time>2013-06-30T12:54:06Z</time>
      </trkpt>
      <trkpt lat="47.629442671313882" lon="11.892477069050074">
        <ele>833.11962890625</ele>
        <time>2013-06-30T12:54:12Z</time>
      </trkpt>
      <trkpt lat="47.62978658080101" lon="11.892512105405331">
        <ele>833.600341796875</ele>
        <time>2013-06-30T12:54:20Z</time>
      </trkpt>
      <trkpt lat="47.630127053707838" lon="11.892585195600986">
        <ele>835.04248046875</ele>
        <time>2013-06-30T12:54:28Z</time>
      </trkpt>
      <trkpt lat="47.630445901304483" lon="11.892676893621683">
        <ele>835.04248046875</ele>
        <time>2013-06-30T12:54:36Z</time>
      </trkpt>
      <trkpt lat="47.630673553794622" lon="11.892751911655068">
        <ele>835.52294921875</ele>
        <time>2013-06-30T12:54:42Z</time>
      </trkpt>
      <trkpt lat="47.631028275936842" lon="11.892979983240366">
        <ele>836.003662109375</ele>
        <time>2013-06-30T12:54:51Z</time>
      </trkpt>
      <trkpt lat="47.631246624514461" lon="11.893191207200289">
        <ele>837.92626953125</ele>
        <time>2013-06-30T12:54:57Z</time>
      </trkpt>
      <trkpt lat="47.631410155445337" lon="11.893403939902782">
        <ele>837.92626953125</ele>
        <time>2013-06-30T12:55:03Z</time>
      </trkpt>
      <trkpt lat="47.631414765492082" lon="11.893435958772898">
        <ele>837.92626953125</ele>
        <time>2013-06-30T12:55:04Z</time>
      </trkpt>
      <trkpt lat="47.631880464032292" lon="11.893504438921809">
        <ele>837.92626953125</ele>
        <time>2013-06-30T12:55:10Z</time>
      </trkpt>
      <trkpt lat="47.632107445970178" lon="11.893527321517467">
        <ele>838.8876953125</ele>
        <time>2013-06-30T12:55:12Z</time>
      </trkpt>
      <trkpt lat="47.632310288026929" lon="11.893614660948515">
        <ele>839.3681640625</ele>
        <time>2013-06-30T12:55:18Z</time>
      </trkpt>
      <trkpt lat="47.632598038762808" lon="11.893622623756528">
        <ele>839.848876953125</ele>
        <time>2013-06-30T12:55:23Z</time>
      </trkpt>
      <trkpt lat="47.63279752805829" lon="11.893552467226982">
        <ele>839.848876953125</ele>
        <time>2013-06-30T12:55:28Z</time>
      </trkpt>
      <trkpt lat="47.63292845338583" lon="11.893499074503779">
        <ele>840.81005859375</ele>
        <time>2013-06-30T12:55:31Z</time>
      </trkpt>
      <trkpt lat="47.633130708709359" lon="11.893438221886754">
        <ele>840.81005859375</ele>
        <time>2013-06-30T12:55:36Z</time>
      </trkpt>
      <trkpt lat="47.633213270455599" lon="11.893432270735502">
        <ele>841.771484375</ele>
        <time>2013-06-30T12:55:40Z</time>
      </trkpt>
      <trkpt lat="47.63334671035409" lon="11.893708286806941">
        <ele>842.73291015625</ele>
        <time>2013-06-30T12:55:46Z</time>
      </trkpt>
      <trkpt lat="47.633344950154424" lon="11.894141295924783">
        <ele>843.21337890625</ele>
        <time>2013-06-30T12:55:54Z</time>
      </trkpt>
      <trkpt lat="47.633360205218196" lon="11.894526863470674">
        <ele>844.655517578125</ele>
        <time>2013-06-30T12:56:02Z</time>
      </trkpt>
      <trkpt lat="47.633448801934719" lon="11.894858367741108">
        <ele>845.616943359375</ele>
        <time>2013-06-30T12:56:08Z</time>
      </trkpt>
      <trkpt lat="47.633505631238222" lon="11.894985185936093">
        <ele>846.09765625</ele>
        <time>2013-06-30T12:56:11Z</time>
      </trkpt>
      <trkpt lat="47.633521724492311" lon="11.895138993859291">
        <ele>847.058837890625</ele>
        <time>2013-06-30T12:56:15Z</time>
      </trkpt>
      <trkpt lat="47.63359640724957" lon="11.895266901701689">
        <ele>847.53955078125</ele>
        <time>2013-06-30T12:56:19Z</time>
      </trkpt>
      <trkpt lat="47.63378013856709" lon="11.895325072109699">
        <ele>847.53955078125</ele>
        <time>2013-06-30T12:56:21Z</time>
      </trkpt>
      <trkpt lat="47.633954733610153" lon="11.895338986068964">
        <ele>848.020263671875</ele>
        <time>2013-06-30T12:56:26Z</time>
      </trkpt>
      <trkpt lat="47.634152881801128" lon="11.895336974412203">
        <ele>848.9814453125</ele>
        <time>2013-06-30T12:56:31Z</time>
      </trkpt>
      <trkpt lat="47.634487152099609" lon="11.895250976085663">
        <ele>849.462158203125</ele>
        <time>2013-06-30T12:56:39Z</time>
      </trkpt>
      <trkpt lat="47.634673062711954" lon="11.895172605291009">
        <ele>849.94287109375</ele>
        <time>2013-06-30T12:56:44Z</time>
      </trkpt>
      <trkpt lat="47.634799545630813" lon="11.89517461694777">
        <ele>850.423583984375</ele>
        <time>2013-06-30T12:56:49Z</time>
      </trkpt>
      <trkpt lat="47.634808178991079" lon="11.89518048427999">
        <ele>850.423583984375</ele>
        <time>2013-06-30T12:56:50Z</time>
      </trkpt>
      <trkpt lat="47.634952766820788" lon="11.895257765427232">
        <ele>850.904052734375</ele>
        <time>2013-06-30T12:56:55Z</time>
      </trkpt>
      <trkpt lat="47.635218221694231" lon="11.895369496196508">
        <ele>851.384765625</ele>
        <time>2013-06-30T12:57:01Z</time>
      </trkpt>
      <trkpt lat="47.635345794260502" lon="11.8954545725137">
        <ele>851.865478515625</ele>
        <time>2013-06-30T12:57:05Z</time>
      </trkpt>
      <trkpt lat="47.635507145896554" lon="11.895526573061943">
        <ele>852.345947265625</ele>
        <time>2013-06-30T12:57:10Z</time>
      </trkpt>
      <trkpt lat="47.635805541649461" lon="11.895528417080641">
        <ele>852.82666015625</ele>
        <time>2013-06-30T12:57:17Z</time>
      </trkpt>
      <trkpt lat="47.636003941297531" lon="11.895471001043916">
        <ele>853.307373046875</ele>
        <time>2013-06-30T12:57:22Z</time>
      </trkpt>
      <trkpt lat="47.636342570185661" lon="11.895449794828892">
        <ele>854.268798828125</ele>
        <time>2013-06-30T12:57:31Z</time>
      </trkpt>
      <trkpt lat="47.636630153283477" lon="11.895596226677299">
        <ele>855.710693359375</ele>
        <time>2013-06-30T12:57:40Z</time>
      </trkpt>
      <trkpt lat="47.636897871270776" lon="11.895667389035225">
        <ele>857.152587890625</ele>
        <time>2013-06-30T12:57:48Z</time>
      </trkpt>
      <trkpt lat="47.637184867635369" lon="11.895586922764778">
        <ele>859.0751953125</ele>
        <time>2013-06-30T12:57:56Z</time>
      </trkpt>
      <trkpt lat="47.637428613379598" lon="11.895281318575144">
        <ele>860.03662109375</ele>
        <time>2013-06-30T12:58:04Z</time>
      </trkpt>
      <trkpt lat="47.637678058817983" lon="11.895081829279661">
        <ele>860.998046875</ele>
        <time>2013-06-30T12:58:12Z</time>
      </trkpt>
      <trkpt lat="47.637876458466053" lon="11.895115524530411">
        <ele>861.478759765625</ele>
        <time>2013-06-30T12:58:18Z</time>
      </trkpt>
      <trkpt lat="47.638089023530483" lon="11.895243348553777">
        <ele>862.920654296875</ele>
        <time>2013-06-30T12:58:25Z</time>
      </trkpt>
      <trkpt lat="47.638291362673044" lon="11.895478125661612">
        <ele>864.362548828125</ele>
        <time>2013-06-30T12:58:32Z</time>
      </trkpt>
      <trkpt lat="47.63841918669641" lon="11.895643249154091">
        <ele>864.84326171875</ele>
        <time>2013-06-30T12:58:37Z</time>
      </trkpt>
      <trkpt lat="47.638550195842981" lon="11.895739892497659">
        <ele>864.84326171875</ele>
        <time>2013-06-30T12:58:41Z</time>
      </trkpt>
      <trkpt lat="47.638756306841969" lon="11.895800912752748">
        <ele>865.323974609375</ele>
        <time>2013-06-30T12:58:47Z</time>
      </trkpt>
      <trkpt lat="47.638780530542135" lon="11.89580837264657">
        <ele>864.84326171875</ele>
        <time>2013-06-30T12:58:48Z</time>
      </trkpt>
      <trkpt lat="47.639047997072339" lon="11.895836032927036">
        <ele>865.323974609375</ele>
        <time>2013-06-30T12:58:55Z</time>
      </trkpt>
      <trkpt lat="47.639407077804208" lon="11.895811138674617">
        <ele>866.28515625</ele>
        <time>2013-06-30T12:59:04Z</time>
      </trkpt>
      <trkpt lat="47.639596844092011" lon="11.89581080339849">
        <ele>868.6884765625</ele>
        <time>2013-06-30T12:59:09Z</time>
      </trkpt>
      <trkpt lat="47.639655685052276" lon="11.895817341282964">
        <ele>869.64990234375</ele>
        <time>2013-06-30T12:59:11Z</time>
      </trkpt>
      <trkpt lat="47.639932706952095" lon="11.895834356546402">
        <ele>871.091796875</ele>
        <time>2013-06-30T12:59:21Z</time>
      </trkpt>
      <trkpt lat="47.640198413282633" lon="11.895953379571438">
        <ele>872.052978515625</ele>
        <time>2013-06-30T12:59:29Z</time>
      </trkpt>
      <trkpt lat="47.640228169038892" lon="11.895982883870602">
        <ele>872.052978515625</ele>
        <time>2013-06-30T12:59:30Z</time>
      </trkpt>
      <trkpt lat="47.640454145148396" lon="11.896205758675933">
        <ele>873.4951171875</ele>
        <time>2013-06-30T12:59:38Z</time>
      </trkpt>
      <trkpt lat="47.640663860365748" lon="11.896320004016161">
        <ele>874.93701171875</ele>
        <time>2013-06-30T12:59:45Z</time>
      </trkpt>
      <trkpt lat="47.640838623046875" lon="11.896406505256891">
        <ele>875.41748046875</ele>
        <time>2013-06-30T12:59:51Z</time>
      </trkpt>
      <trkpt lat="47.640889333561063" lon="11.896442715078592">
        <ele>876.379150390625</ele>
        <time>2013-06-30T12:59:53Z</time>
      </trkpt>
      <trkpt lat="47.641011122614145" lon="11.896520331501961">
        <ele>877.340576171875</ele>
        <time>2013-06-30T12:59:59Z</time>
      </trkpt>
      <trkpt lat="47.641062000766397" lon="11.896539777517319">
        <ele>877.340576171875</ele>
        <time>2013-06-30T13:00:01Z</time>
      </trkpt>
      <trkpt lat="47.641251347959042" lon="11.896611023694277">
        <ele>879.74365234375</ele>
        <time>2013-06-30T13:00:09Z</time>
      </trkpt>
      <trkpt lat="47.641275571659207" lon="11.896620411425829">
        <ele>879.74365234375</ele>
        <time>2013-06-30T13:00:10Z</time>
      </trkpt>
      <trkpt lat="47.641368610784411" lon="11.896684700623155">
        <ele>880.224365234375</ele>
        <time>2013-06-30T13:00:14Z</time>
      </trkpt>
      <trkpt lat="47.641534069553018" lon="11.896782852709293">
        <ele>881.666259765625</ele>
        <time>2013-06-30T13:00:22Z</time>
      </trkpt>
      <trkpt lat="47.641670107841492" lon="11.896841358393431">
        <ele>883.108154296875</ele>
        <time>2013-06-30T13:00:28Z</time>
      </trkpt>
      <trkpt lat="47.641801871359348" lon="11.896917801350355">
        <ele>883.5888671875</ele>
        <time>2013-06-30T13:00:33Z</time>
      </trkpt>
      <trkpt lat="47.641936568543315" lon="11.897063311189413">
        <ele>885.511474609375</ele>
        <time>2013-06-30T13:00:40Z</time>
      </trkpt>
      <trkpt lat="47.642000103369355" lon="11.897110668942332">
        <ele>885.511474609375</ele>
        <time>2013-06-30T13:00:42Z</time>
      </trkpt>
      <trkpt lat="47.642218535766006" lon="11.897165318951011">
        <ele>886.953369140625</ele>
        <time>2013-06-30T13:00:49Z</time>
      </trkpt>
      <trkpt lat="47.642406038939953" lon="11.897144699469209">
        <ele>888.3955078125</ele>
        <time>2013-06-30T13:00:56Z</time>
      </trkpt>
      <trkpt lat="47.64253000728786" lon="11.897122319787741">
        <ele>889.356689453125</ele>
        <time>2013-06-30T13:01:01Z</time>
      </trkpt>
      <trkpt lat="47.642685994505882" lon="11.897104382514954">
        <ele>890.318115234375</ele>
        <time>2013-06-30T13:01:07Z</time>
      </trkpt>
      <trkpt lat="47.642861260101199" lon="11.896982425823808">
        <ele>891.279296875</ele>
        <time>2013-06-30T13:01:15Z</time>
      </trkpt>
      <trkpt lat="47.642960585653782" lon="11.896993992850184">
        <ele>892.240966796875</ele>
        <time>2013-06-30T13:01:19Z</time>
      </trkpt>
      <trkpt lat="47.643096959218383" lon="11.897014863789082">
        <ele>892.7216796875</ele>
        <time>2013-06-30T13:01:24Z</time>
      </trkpt>
      <trkpt lat="47.643209360539913" lon="11.897071190178394">
        <ele>894.16357421875</ele>
        <time>2013-06-30T13:01:33Z</time>
      </trkpt>
      <trkpt lat="47.643372220918536" lon="11.897056940943003">
        <ele>895.124755859375</ele>
        <time>2013-06-30T13:01:39Z</time>
      </trkpt>
      <trkpt lat="47.64352728612721" lon="11.897047637030482">
        <ele>896.086181640625</ele>
        <time>2013-06-30T13:01:45Z</time>
      </trkpt>
      <trkpt lat="47.643669610843062" lon="11.897039171308279">
        <ele>897.04736328125</ele>
        <time>2013-06-30T13:01:51Z</time>
      </trkpt>
      <trkpt lat="47.643754687160254" lon="11.897020898759365">
        <ele>897.528076171875</ele>
        <time>2013-06-30T13:01:55Z</time>
      </trkpt>
      <trkpt lat="47.643877565860748" lon="11.896960968151689">
        <ele>899.45068359375</ele>
        <time>2013-06-30T13:02:03Z</time>
      </trkpt>
      <trkpt lat="47.644013771787286" lon="11.896974379196763">
        <ele>900.412109375</ele>
        <time>2013-06-30T13:02:10Z</time>
      </trkpt>
      <trkpt lat="47.644172608852386" lon="11.896960968151689">
        <ele>900.892578125</ele>
        <time>2013-06-30T13:02:17Z</time>
      </trkpt>
      <trkpt lat="47.644272018224001" lon="11.896931966766715">
        <ele>901.85400390625</ele>
        <time>2013-06-30T13:02:22Z</time>
      </trkpt>
      <trkpt lat="47.644389197230339" lon="11.89692291431129">
        <ele>903.2958984375</ele>
        <time>2013-06-30T13:02:28Z</time>
      </trkpt>
      <trkpt lat="47.644594218581915" lon="11.896876059472561">
        <ele>904.73779296875</ele>
        <time>2013-06-30T13:02:38Z</time>
      </trkpt>
      <trkpt lat="47.644741572439671" lon="11.896827528253198">
        <ele>905.69921875</ele>
        <time>2013-06-30T13:02:46Z</time>
      </trkpt>
      <trkpt lat="47.644922118633986" lon="11.896741110831499">
        <ele>907.621826171875</ele>
        <time>2013-06-30T13:02:55Z</time>
      </trkpt>
      <trkpt lat="47.645099395886064" lon="11.896651675924659">
        <ele>909.06396484375</ele>
        <time>2013-06-30T13:03:05Z</time>
      </trkpt>
      <trkpt lat="47.645215233787894" lon="11.896624267101288">
        <ele>910.505859375</ele>
        <time>2013-06-30T13:03:11Z</time>
      </trkpt>
      <trkpt lat="47.645314643159509" lon="11.896573472768068">
        <ele>910.986572265625</ele>
        <time>2013-06-30T13:03:17Z</time>
      </trkpt>
      <trkpt lat="47.64545981772244" lon="11.896525947377086">
        <ele>911.947998046875</ele>
        <time>2013-06-30T13:03:24Z</time>
      </trkpt>
      <trkpt lat="47.645556880161166" lon="11.89647926017642">
        <ele>912.9091796875</ele>
        <time>2013-06-30T13:03:28Z</time>
      </trkpt>
      <trkpt lat="47.645706329494715" lon="11.896425699815154">
        <ele>914.35107421875</ele>
        <time>2013-06-30T13:03:35Z</time>
      </trkpt>
      <trkpt lat="47.645770534873009" lon="11.896361410617828">
        <ele>914.831787109375</ele>
        <time>2013-06-30T13:03:40Z</time>
      </trkpt>
      <trkpt lat="47.645828872919083" lon="11.896326877176762">
        <ele>915.3125</ele>
        <time>2013-06-30T13:03:43Z</time>
      </trkpt>
      <trkpt lat="47.645971449092031" lon="11.896248506382108">
        <ele>916.273681640625</ele>
        <time>2013-06-30T13:03:49Z</time>
      </trkpt>
      <trkpt lat="47.646109918132424" lon="11.89610400237143">
        <ele>918.1962890625</ele>
        <time>2013-06-30T13:03:58Z</time>
      </trkpt>
      <trkpt lat="47.646148726344109" lon="11.896042143926024">
        <ele>918.677001953125</ele>
        <time>2013-06-30T13:04:01Z</time>
      </trkpt>
      <trkpt lat="47.64627143740654" lon="11.895842654630542">
        <ele>920.118896484375</ele>
        <time>2013-06-30T13:04:10Z</time>
      </trkpt>
      <trkpt lat="47.64632273465395" lon="11.895778868347406">
        <ele>920.118896484375</ele>
        <time>2013-06-30T13:04:13Z</time>
      </trkpt>
      <trkpt lat="47.64635844156146" lon="11.895752884447575">
        <ele>921.080322265625</ele>
        <time>2013-06-30T13:04:15Z</time>
      </trkpt>
      <trkpt lat="47.646401021629572" lon="11.895737713202834">
        <ele>920.599609375</ele>
        <time>2013-06-30T13:04:18Z</time>
      </trkpt>
      <trkpt lat="47.646420802921057" lon="11.895738383755088">
        <ele>921.560791015625</ele>
        <time>2013-06-30T13:04:20Z</time>
      </trkpt>
      <trkpt lat="47.646532533690333" lon="11.89572136849165">
        <ele>922.522216796875</ele>
        <time>2013-06-30T13:04:26Z</time>
      </trkpt>
      <trkpt lat="47.646606294438243" lon="11.895716339349747">
        <ele>923.483642578125</ele>
        <time>2013-06-30T13:04:30Z</time>
      </trkpt>
      <trkpt lat="47.646648371592164" lon="11.89575313590467">
        <ele>923.483642578125</ele>
        <time>2013-06-30T13:04:33Z</time>
      </trkpt>
      <trkpt lat="47.646762952208519" lon="11.895829662680626">
        <ele>924.445068359375</ele>
        <time>2013-06-30T13:04:39Z</time>
      </trkpt>
      <trkpt lat="47.646833108738065" lon="11.895827734842896">
        <ele>924.92578125</ele>
        <time>2013-06-30T13:04:41Z</time>
      </trkpt>
      <trkpt lat="47.64707718975842" lon="11.895781047642231">
        <ele>927.8095703125</ele>
        <time>2013-06-30T13:04:55Z</time>
      </trkpt>
      <trkpt lat="47.647213395684958" lon="11.895739724859595">
        <ele>928.290283203125</ele>
        <time>2013-06-30T13:05:03Z</time>
      </trkpt>
      <trkpt lat="47.647295203059912" lon="11.895668646320701">
        <ele>929.732177734375</ele>
        <time>2013-06-30T13:05:08Z</time>
      </trkpt>
      <trkpt lat="47.647428726777434" lon="11.89558650366962">
        <ele>930.693603515625</ele>
        <time>2013-06-30T13:05:15Z</time>
      </trkpt>
      <trkpt lat="47.647557137534022" lon="11.895554317161441">
        <ele>932.135498046875</ele>
        <time>2013-06-30T13:05:21Z</time>
      </trkpt>
      <trkpt lat="47.647698037326336" lon="11.895501930266619">
        <ele>932.135498046875</ele>
        <time>2013-06-30T13:05:28Z</time>
      </trkpt>
      <trkpt lat="47.64781454578042" lon="11.895446106791496">
        <ele>933.577392578125</ele>
        <time>2013-06-30T13:05:33Z</time>
      </trkpt>
      <trkpt lat="47.647935831919312" lon="11.895387098193169">
        <ele>934.538818359375</ele>
        <time>2013-06-30T13:05:40Z</time>
      </trkpt>
      <trkpt lat="47.647982351481915" lon="11.895367568358779">
        <ele>935.5</ele>
        <time>2013-06-30T13:05:44Z</time>
      </trkpt>
      <trkpt lat="47.648068182170391" lon="11.895321467891335">
        <ele>936.46142578125</ele>
        <time>2013-06-30T13:05:49Z</time>
      </trkpt>
      <trkpt lat="47.648243866860867" lon="11.895311241969466">
        <ele>937.9033203125</ele>
        <time>2013-06-30T13:05:58Z</time>
      </trkpt>
      <trkpt lat="47.648320058360696" lon="11.895313672721386">
        <ele>937.9033203125</ele>
        <time>2013-06-30T13:06:02Z</time>
      </trkpt>
      <trkpt lat="47.648435644805431" lon="11.895334124565125">
        <ele>938.86474609375</ele>
        <time>2013-06-30T13:06:08Z</time>
      </trkpt>
      <trkpt lat="47.648674696683884" lon="11.895403107628226">
        <ele>940.306884765625</ele>
        <time>2013-06-30T13:06:16Z</time>
      </trkpt>
      <trkpt lat="47.648739237338305" lon="11.895511485636234">
        <ele>941.26806640625</ele>
        <time>2013-06-30T13:06:20Z</time>
      </trkpt>
      <trkpt lat="47.648771423846483" lon="11.895599495619535">
        <ele>941.748779296875</ele>
        <time>2013-06-30T13:06:23Z</time>
      </trkpt>
      <trkpt lat="47.648773016408086" lon="11.895703347399831">
        <ele>942.2294921875</ele>
        <time>2013-06-30T13:06:27Z</time>
      </trkpt>
      <trkpt lat="47.648875694721937" lon="11.895778868347406">
        <ele>942.710205078125</ele>
        <time>2013-06-30T13:06:33Z</time>
      </trkpt>
      <trkpt lat="47.64904442243278" lon="11.895539732649922">
        <ele>943.190673828125</ele>
        <time>2013-06-30T13:06:41Z</time>
      </trkpt>
      <trkpt lat="47.649134276434779" lon="11.895341919735074">
        <ele>945.593994140625</ele>
        <time>2013-06-30T13:06:50Z</time>
      </trkpt>
      <trkpt lat="47.649212731048465" lon="11.895214263349771">
        <ele>947.5166015625</ele>
        <time>2013-06-30T13:06:57Z</time>
      </trkpt>
      <trkpt lat="47.649329071864486" lon="11.895040087401867">
        <ele>948.95849609375</ele>
        <time>2013-06-30T13:07:05Z</time>
      </trkpt>
      <trkpt lat="47.649474246427417" lon="11.894907569512725">
        <ele>949.439208984375</ele>
        <time>2013-06-30T13:07:12Z</time>
      </trkpt>
      <trkpt lat="47.649597208946943" lon="11.894802208989859">
        <ele>950.881103515625</ele>
        <time>2013-06-30T13:07:19Z</time>
      </trkpt>
      <trkpt lat="47.649633334949613" lon="11.894774129614234">
        <ele>951.36181640625</ele>
        <time>2013-06-30T13:07:21Z</time>
      </trkpt>
      <trkpt lat="47.649745652452111" lon="11.894585117697716">
        <ele>953.284423828125</ele>
        <time>2013-06-30T13:07:30Z</time>
      </trkpt>
      <trkpt lat="47.649790579453111" lon="11.894375402480364">
        <ele>955.20703125</ele>
        <time>2013-06-30T13:07:37Z</time>
      </trkpt>
      <trkpt lat="47.649821005761623" lon="11.894042724743485">
        <ele>957.1298828125</ele>
        <time>2013-06-30T13:07:47Z</time>
      </trkpt>
      <trkpt lat="47.649907674640417" lon="11.89384407363832">
        <ele>958.09130859375</ele>
        <time>2013-06-30T13:07:55Z</time>
      </trkpt>
      <trkpt lat="47.650022674351931" lon="11.893728990107775">
        <ele>958.57177734375</ele>
        <time>2013-06-30T13:08:01Z</time>
      </trkpt>
      <trkpt lat="47.650113282725215" lon="11.893688002601266">
        <ele>959.533203125</ele>
        <time>2013-06-30T13:08:06Z</time>
      </trkpt>
      <trkpt lat="47.650264156982303" lon="11.893725050613284">
        <ele>960.013671875</ele>
        <time>2013-06-30T13:08:13Z</time>
      </trkpt>
      <trkpt lat="47.650407990440726" lon="11.893840720877051">
        <ele>960.013671875</ele>
        <time>2013-06-30T13:08:19Z</time>
      </trkpt>
      <trkpt lat="47.650603456422687" lon="11.893970556557178">
        <ele>959.533203125</ele>
        <time>2013-06-30T13:08:26Z</time>
      </trkpt>
      <trkpt lat="47.650881819427013" lon="11.893986146897078">
        <ele>960.97509765625</ele>
        <time>2013-06-30T13:08:34Z</time>
      </trkpt>
      <trkpt lat="47.650880645960569" lon="11.893981033936143">
        <ele>961.9365234375</ele>
        <time>2013-06-30T13:09:09Z</time>
      </trkpt>
      <trkpt lat="47.650880729779601" lon="11.893981117755175">
        <ele>961.9365234375</ele>
        <time>2013-06-30T13:09:16Z</time>
      </trkpt>
      <trkpt lat="47.650976199656725" lon="11.89392956905067">
        <ele>961.9365234375</ele>
        <time>2013-06-30T13:09:22Z</time>
      </trkpt>
      <trkpt lat="47.651289347559214" lon="11.893803840503097">
        <ele>962.4169921875</ele>
        <time>2013-06-30T13:09:30Z</time>
      </trkpt>
      <trkpt lat="47.651874488219619" lon="11.893665371462703">
        <ele>960.97509765625</ele>
        <time>2013-06-30T13:09:41Z</time>
      </trkpt>
      <trkpt lat="47.652131896466017" lon="11.893621115013957">
        <ele>961.455810546875</ele>
        <time>2013-06-30T13:09:46Z</time>
      </trkpt>
      <trkpt lat="47.652323758229613" lon="11.893493877723813">
        <ele>960.97509765625</ele>
        <time>2013-06-30T13:09:50Z</time>
      </trkpt>
      <trkpt lat="47.652434399351478" lon="11.893320372328162">
        <ele>961.455810546875</ele>
        <time>2013-06-30T13:09:53Z</time>
      </trkpt>
      <trkpt lat="47.652590805664659" lon="11.892988700419664">
        <ele>962.4169921875</ele>
        <time>2013-06-30T13:09:58Z</time>
      </trkpt>
      <trkpt lat="47.653009733185172" lon="11.892253523692489">
        <ele>961.9365234375</ele>
        <time>2013-06-30T13:10:10Z</time>
      </trkpt>
      <trkpt lat="47.653414243832231" lon="11.891423212364316">
        <ele>961.455810546875</ele>
        <time>2013-06-30T13:10:23Z</time>
      </trkpt>
      <trkpt lat="47.653693780303001" lon="11.890849471092224">
        <ele>962.4169921875</ele>
        <time>2013-06-30T13:10:32Z</time>
      </trkpt>
      <trkpt lat="47.653906429186463" lon="11.890306323766708">
        <ele>962.897705078125</ele>
        <time>2013-06-30T13:10:40Z</time>
      </trkpt>
      <trkpt lat="47.654220163822174" lon="11.889751441776752">
        <ele>964.8203125</ele>
        <time>2013-06-30T13:10:50Z</time>
      </trkpt>
      <trkpt lat="47.654422502964735" lon="11.889464529231191">
        <ele>967.2236328125</ele>
        <time>2013-06-30T13:10:58Z</time>
      </trkpt>
      <trkpt lat="47.654638504609466" lon="11.889164121821523">
        <ele>970.588134765625</ele>
        <time>2013-06-30T13:11:09Z</time>
      </trkpt>
      <trkpt lat="47.654753504320979" lon="11.888869078829885">
        <ele>972.0302734375</ele>
        <time>2013-06-30T13:11:19Z</time>
      </trkpt>
      <trkpt lat="47.654834222048521" lon="11.888588620349765">
        <ele>974.914306640625</ele>
        <time>2013-06-30T13:11:28Z</time>
      </trkpt>
      <trkpt lat="47.65492357313633" lon="11.88837144523859">
        <ele>975.87548828125</ele>
        <time>2013-06-30T13:11:35Z</time>
      </trkpt>
      <trkpt lat="47.654967494308949" lon="11.888308748602867">
        <ele>976.8369140625</ele>
        <time>2013-06-30T13:11:38Z</time>
      </trkpt>
      <trkpt lat="47.655117446556687" lon="11.888166423887014">
        <ele>978.27880859375</ele>
        <time>2013-06-30T13:11:45Z</time>
      </trkpt>
      <trkpt lat="47.655311906710267" lon="11.888011107221246">
        <ele>979.239990234375</ele>
        <time>2013-06-30T13:11:54Z</time>
      </trkpt>
      <trkpt lat="47.655497482046485" lon="11.887904154136777">
        <ele>982.604736328125</ele>
        <time>2013-06-30T13:12:03Z</time>
      </trkpt>
      <trkpt lat="47.655691523104906" lon="11.887858891859651">
        <ele>983.56591796875</ele>
        <time>2013-06-30T13:12:12Z</time>
      </trkpt>
      <trkpt lat="47.655897047370672" lon="11.887993086129427">
        <ele>985.488525390625</ele>
        <time>2013-06-30T13:12:22Z</time>
      </trkpt>
      <trkpt lat="47.656109780073166" lon="11.888074139133096">
        <ele>987.891845703125</ele>
        <time>2013-06-30T13:12:32Z</time>
      </trkpt>
      <trkpt lat="47.65638068318367" lon="11.888027200475335">
        <ele>990.29541015625</ele>
        <time>2013-06-30T13:12:44Z</time>
      </trkpt>
      <trkpt lat="47.65654195100069" lon="11.888103978708386">
        <ele>991.7373046875</ele>
        <time>2013-06-30T13:12:51Z</time>
      </trkpt>
      <trkpt lat="47.656689053401351" lon="11.888047568500042">
        <ele>993.17919921875</ele>
        <time>2013-06-30T13:12:58Z</time>
      </trkpt>
      <trkpt lat="47.656929865479469" lon="11.887833662331104">
        <ele>995.58251953125</ele>
        <time>2013-06-30T13:13:10Z</time>
      </trkpt>
      <trkpt lat="47.657095491886139" lon="11.887556640431285">
        <ele>997.505126953125</ele>
        <time>2013-06-30T13:13:21Z</time>
      </trkpt>
      <trkpt lat="47.657139496877789" lon="11.887442311272025">
        <ele>998.46630859375</ele>
        <time>2013-06-30T13:13:25Z</time>
      </trkpt>
      <trkpt lat="47.657238990068436" lon="11.887311805039644">
        <ele>998.947021484375</ele>
        <time>2013-06-30T13:13:31Z</time>
      </trkpt>
      <trkpt lat="47.657282240688801" lon="11.887206695973873">
        <ele>999.908447265625</ele>
        <time>2013-06-30T13:13:35Z</time>
      </trkpt>
      <trkpt lat="47.657301016151905" lon="11.887112315744162">
        <ele>1000.86962890625</ele>
        <time>2013-06-30T13:13:39Z</time>
      </trkpt>
      <trkpt lat="47.657349212095141" lon="11.886930009350181">
        <ele>1001.8310546875</ele>
        <time>2013-06-30T13:13:45Z</time>
      </trkpt>
      <trkpt lat="47.657456500455737" lon="11.88669347204268">
        <ele>1005.19580078125</ele>
        <time>2013-06-30T13:13:54Z</time>
      </trkpt>
      <trkpt lat="47.657545935362577" lon="11.886433465406299">
        <ele>1005.676513671875</ele>
        <time>2013-06-30T13:14:02Z</time>
      </trkpt>
      <trkpt lat="47.657717010006309" lon="11.886256271973252">
        <ele>1007.59912109375</ele>
        <time>2013-06-30T13:14:11Z</time>
      </trkpt>
      <trkpt lat="47.657873164862394" lon="11.886107660830021">
        <ele>1009.521728515625</ele>
        <time>2013-06-30T13:14:19Z</time>
      </trkpt>
      <trkpt lat="47.657966623082757" lon="11.885966761037707">
        <ele>1010.48291015625</ele>
        <time>2013-06-30T13:14:25Z</time>
      </trkpt>
      <trkpt lat="47.658044742420316" lon="11.885868106037378">
        <ele>1011.4443359375</ele>
        <time>2013-06-30T13:14:30Z</time>
      </trkpt>
      <trkpt lat="47.658105762675405" lon="11.885791998356581">
        <ele>1011.925048828125</ele>
        <time>2013-06-30T13:14:34Z</time>
      </trkpt>
      <trkpt lat="47.658193185925484" lon="11.88577925786376">
        <ele>1013.847412109375</ele>
        <time>2013-06-30T13:14:41Z</time>
      </trkpt>
      <trkpt lat="47.658257475122809" lon="11.885807001963258">
        <ele>1014.328125</ele>
        <time>2013-06-30T13:14:45Z</time>
      </trkpt>
      <trkpt lat="47.658346155658364" lon="11.885802811011672">
        <ele>1015.770263671875</ele>
        <time>2013-06-30T13:14:50Z</time>
      </trkpt>
      <trkpt lat="47.658496275544167" lon="11.885759308934212">
        <ele>1016.7314453125</ele>
        <time>2013-06-30T13:14:55Z</time>
      </trkpt>
      <trkpt lat="47.658518403768539" lon="11.8857391923666">
        <ele>1016.7314453125</ele>
        <time>2013-06-30T13:14:56Z</time>
      </trkpt>
      <trkpt lat="47.658721329644322" lon="11.885593431070447">
        <ele>1017.692626953125</ele>
        <time>2013-06-30T13:15:04Z</time>
      </trkpt>
      <trkpt lat="47.658884357661009" lon="11.885563842952251">
        <ele>1019.134765625</ele>
        <time>2013-06-30T13:15:11Z</time>
      </trkpt>
      <trkpt lat="47.658978067338467" lon="11.885587396100163">
        <ele>1020.09619140625</ele>
        <time>2013-06-30T13:15:17Z</time>
      </trkpt>
      <trkpt lat="47.659148974344134" lon="11.885681357234716">
        <ele>1021.5380859375</ele>
        <time>2013-06-30T13:15:25Z</time>
      </trkpt>
      <trkpt lat="47.65937059186399" lon="11.885735169053078">
        <ele>1022.980224609375</ele>
        <time>2013-06-30T13:15:33Z</time>
      </trkpt>
      <trkpt lat="47.659510653465986" lon="11.885714968666434">
        <ele>1022.49951171875</ele>
        <time>2013-06-30T13:15:39Z</time>
      </trkpt>
      <trkpt lat="47.659593047574162" lon="11.885678842663765">
        <ele>1023.4609375</ele>
        <time>2013-06-30T13:15:43Z</time>
      </trkpt>
      <trkpt lat="47.65980452299118" lon="11.885636346414685">
        <ele>1023.94140625</ele>
        <time>2013-06-30T13:15:51Z</time>
      </trkpt>
      <trkpt lat="47.659942908212543" lon="11.885684793815017">
        <ele>1024.90283203125</ele>
        <time>2013-06-30T13:15:57Z</time>
      </trkpt>
      <trkpt lat="47.660032343119383" lon="11.88577045686543">
        <ele>1025.38330078125</ele>
        <time>2013-06-30T13:16:01Z</time>
      </trkpt>
      <trkpt lat="47.660061260685325" lon="11.885874643921852">
        <ele>1026.825439453125</ele>
        <time>2013-06-30T13:16:05Z</time>
      </trkpt>
      <trkpt lat="47.660025805234909" lon="11.88590188510716">
        <ele>1028.267333984375</ele>
        <time>2013-06-30T13:16:08Z</time>
      </trkpt>
      <trkpt lat="47.659918600693345" lon="11.8858911562711">
        <ele>1029.709228515625</ele>
        <time>2013-06-30T13:16:15Z</time>
      </trkpt>
      <trkpt lat="47.659856155514717" lon="11.88595955260098">
        <ele>1032.112548828125</ele>
        <time>2013-06-30T13:16:21Z</time>
      </trkpt>
      <trkpt lat="47.659738725051284" lon="11.886101625859737">
        <ele>1033.07373046875</ele>
        <time>2013-06-30T13:16:30Z</time>
      </trkpt>
      <trkpt lat="47.65959489159286" lon="11.8862659111619">
        <ele>1034.515869140625</ele>
        <time>2013-06-30T13:16:40Z</time>
      </trkpt>
      <trkpt lat="47.65944829210639" lon="11.886381329968572">
        <ele>1036.919189453125</ele>
        <time>2013-06-30T13:16:49Z</time>
      </trkpt>
      <trkpt lat="47.659342680126429" lon="11.886461460962892">
        <ele>1039.322509765625</ele>
        <time>2013-06-30T13:16:57Z</time>
      </trkpt>
      <trkpt lat="47.659327844157815" lon="11.886477638036013">
        <ele>1039.80322265625</ele>
        <time>2013-06-30T13:16:58Z</time>
      </trkpt>
      <trkpt lat="47.659248299896717" lon="11.886615604162216">
        <ele>1041.2451171875</ele>
        <time>2013-06-30T13:17:06Z</time>
      </trkpt>
      <trkpt lat="47.659154254943132" lon="11.886855745688081">
        <ele>1042.687255859375</ele>
        <time>2013-06-30T13:17:15Z</time>
      </trkpt>
      <trkpt lat="47.659105891361833" lon="11.886987173929811">
        <ele>1043.6484375</ele>
        <time>2013-06-30T13:17:20Z</time>
      </trkpt>
      <trkpt lat="47.658947054296732" lon="11.887096976861358">
        <ele>1045.09033203125</ele>
        <time>2013-06-30T13:17:28Z</time>
      </trkpt>
      <trkpt lat="47.658790983259678" lon="11.887063616886735">
        <ele>1045.571044921875</ele>
        <time>2013-06-30T13:17:35Z</time>
      </trkpt>
      <trkpt lat="47.658700793981552" lon="11.887055151164532">
        <ele>1046.532470703125</ele>
        <time>2013-06-30T13:17:40Z</time>
      </trkpt>
      <trkpt lat="47.658551596105099" lon="11.887229327112436">
        <ele>1047.974365234375</ele>
        <time>2013-06-30T13:17:51Z</time>
      </trkpt>
      <trkpt lat="47.658492587506771" lon="11.887308955192566">
        <ele>1048.935546875</ele>
        <time>2013-06-30T13:17:56Z</time>
      </trkpt>
      <trkpt lat="47.658431734889746" lon="11.887416578829288">
        <ele>1049.89697265625</ele>
        <time>2013-06-30T13:18:02Z</time>
      </trkpt>
      <trkpt lat="47.658377839252353" lon="11.887580025941133">
        <ele>1051.3388671875</ele>
        <time>2013-06-30T13:18:09Z</time>
      </trkpt>
      <trkpt lat="47.658368283882737" lon="11.887668622657657">
        <ele>1051.819580078125</ele>
        <time>2013-06-30T13:18:13Z</time>
      </trkpt>
      <trkpt lat="47.658322351053357" lon="11.887811031192541">
        <ele>1052.30029296875</ele>
        <time>2013-06-30T13:18:20Z</time>
      </trkpt>
      <trkpt lat="47.658273065462708" lon="11.887932820245624">
        <ele>1053.742431640625</ele>
        <time>2013-06-30T13:18:26Z</time>
      </trkpt>
      <trkpt lat="47.65824775211513" lon="11.888003647327423">
        <ele>1054.22314453125</ele>
        <time>2013-06-30T13:18:29Z</time>
      </trkpt>
      <trkpt lat="47.658211374655366" lon="11.888238592073321">
        <ele>1055.6650390625</ele>
        <time>2013-06-30T13:18:38Z</time>
      </trkpt>
      <trkpt lat="47.658166280016303" lon="11.888418300077319">
        <ele>1057.10693359375</ele>
        <time>2013-06-30T13:18:45Z</time>
      </trkpt>
      <trkpt lat="47.6581387873739" lon="11.888489043340087">
        <ele>1057.587646484375</ele>
        <time>2013-06-30T13:18:49Z</time>
      </trkpt>
      <trkpt lat="47.658119341358542" lon="11.888556350022554">
        <ele>1058.068359375</ele>
        <time>2013-06-30T13:18:53Z</time>
      </trkpt>
      <trkpt lat="47.658094447106123" lon="11.888733291998506">
        <ele>1059.029541015625</ele>
        <time>2013-06-30T13:19:00Z</time>
      </trkpt>
      <trkpt lat="47.658054549247026" lon="11.8889304343611">
        <ele>1059.99072265625</ele>
        <time>2013-06-30T13:19:07Z</time>
      </trkpt>
      <trkpt lat="47.65803568996489" lon="11.889048703014851">
        <ele>1060.9521484375</ele>
        <time>2013-06-30T13:19:13Z</time>
      </trkpt>
      <trkpt lat="47.657982800155878" lon="11.889251125976443">
        <ele>1061.432861328125</ele>
        <time>2013-06-30T13:19:21Z</time>
      </trkpt>
      <trkpt lat="47.65797408297658" lon="11.889304602518678">
        <ele>1062.39404296875</ele>
        <time>2013-06-30T13:19:23Z</time>
      </trkpt>
      <trkpt lat="47.657907279208302" lon="11.889453548938036">
        <ele>1062.874755859375</ele>
        <time>2013-06-30T13:19:30Z</time>
      </trkpt>
      <trkpt lat="47.657872159034014" lon="11.88955832272768">
        <ele>1063.35546875</ele>
        <time>2013-06-30T13:19:35Z</time>
      </trkpt>
      <trkpt lat="47.657833183184266" lon="11.889864429831505">
        <ele>1064.79736328125</ele>
        <time>2013-06-30T13:19:46Z</time>
      </trkpt>
      <trkpt lat="47.657813653349876" lon="11.890079341828823">
        <ele>1066.2392578125</ele>
        <time>2013-06-30T13:19:53Z</time>
      </trkpt>
      <trkpt lat="47.657789429649711" lon="11.890217056497931">
        <ele>1066.719970703125</ele>
        <time>2013-06-30T13:19:58Z</time>
      </trkpt>
      <trkpt lat="47.657758416607976" lon="11.8904432002455">
        <ele>1067.68115234375</ele>
        <time>2013-06-30T13:20:06Z</time>
      </trkpt>
      <trkpt lat="47.657753136008978" lon="11.890467340126634">
        <ele>1067.68115234375</ele>
        <time>2013-06-30T13:20:07Z</time>
      </trkpt>
      <trkpt lat="47.657703431323171" lon="11.89061670564115">
        <ele>1068.642822265625</ele>
        <time>2013-06-30T13:20:14Z</time>
      </trkpt>
      <trkpt lat="47.657672250643373" lon="11.890716282650828">
        <ele>1069.12353515625</ele>
        <time>2013-06-30T13:20:18Z</time>
      </trkpt>
      <trkpt lat="47.657631179317832" lon="11.890907054767013">
        <ele>1070.084716796875</ele>
        <time>2013-06-30T13:20:25Z</time>
      </trkpt>
      <trkpt lat="47.657614750787616" lon="11.890992047265172">
        <ele>1070.084716796875</ele>
        <time>2013-06-30T13:20:28Z</time>
      </trkpt>
      <trkpt lat="47.657571583986282" lon="11.891206623986363">
        <ele>1071.046142578125</ele>
        <time>2013-06-30T13:20:36Z</time>
      </trkpt>
      <trkpt lat="47.657562447711825" lon="11.891258927062154">
        <ele>1072.00732421875</ele>
        <time>2013-06-30T13:20:38Z</time>
      </trkpt>
      <trkpt lat="47.65749866142869" lon="11.891351379454136">
        <ele>1072.00732421875</ele>
        <time>2013-06-30T13:20:43Z</time>
      </trkpt>
      <trkpt lat="47.657425822690129" lon="11.891495799645782">
        <ele>1072.96875</ele>
        <time>2013-06-30T13:20:50Z</time>
      </trkpt>
      <trkpt lat="47.657343847677112" lon="11.891671316698194">
        <ele>1074.41064453125</ele>
        <time>2013-06-30T13:20:58Z</time>
      </trkpt>
      <trkpt lat="47.657155841588974" lon="11.891806768253446">
        <ele>1074.891357421875</ele>
        <time>2013-06-30T13:21:05Z</time>
      </trkpt>
      <trkpt lat="47.656962219625711" lon="11.891908189281821">
        <ele>1075.8525390625</ele>
        <time>2013-06-30T13:21:11Z</time>
      </trkpt>
      <trkpt lat="47.656815368682146" lon="11.891988990828395">
        <ele>1076.333251953125</ele>
        <time>2013-06-30T13:21:17Z</time>
      </trkpt>
      <trkpt lat="47.656723419204354" lon="11.892034504562616">
        <ele>1077.294677734375</ele>
        <time>2013-06-30T13:21:21Z</time>
      </trkpt>
      <trkpt lat="47.656574388965964" lon="11.89208404161036">
        <ele>1077.775146484375</ele>
        <time>2013-06-30T13:21:28Z</time>
      </trkpt>
      <trkpt lat="47.656412115320563" lon="11.89202981069684">
        <ele>1079.217041015625</ele>
        <time>2013-06-30T13:21:37Z</time>
      </trkpt>
      <trkpt lat="47.656250847503543" lon="11.891820766031742">
        <ele>1080.6591796875</ele>
        <time>2013-06-30T13:21:46Z</time>
      </trkpt>
      <trkpt lat="47.656083712354302" lon="11.891721859574318">
        <ele>1082.10107421875</ele>
        <time>2013-06-30T13:21:55Z</time>
      </trkpt>
      <trkpt lat="47.655943818390369" lon="11.891661593690515">
        <ele>1083.062255859375</ele>
        <time>2013-06-30T13:22:03Z</time>
      </trkpt>
      <trkpt lat="47.655774755403399" lon="11.891514826565981">
        <ele>1084.02392578125</ele>
        <time>2013-06-30T13:22:13Z</time>
      </trkpt>
      <trkpt lat="47.655636202543974" lon="11.891460595652461">
        <ele>1085.4658203125</ele>
        <time>2013-06-30T13:22:22Z</time>
      </trkpt>
      <trkpt lat="47.655542409047484" lon="11.891516000032425">
        <ele>1086.90771484375</ele>
        <time>2013-06-30T13:22:31Z</time>
      </trkpt>
      <trkpt lat="47.655403688549995" lon="11.891617001965642">
        <ele>1088.349853515625</ele>
        <time>2013-06-30T13:22:39Z</time>
      </trkpt>
      <trkpt lat="47.655264800414443" lon="11.89180551096797">
        <ele>1089.31103515625</ele>
        <time>2013-06-30T13:22:50Z</time>
      </trkpt>
      <trkpt lat="47.655185339972377" lon="11.891975998878479">
        <ele>1090.7529296875</ele>
        <time>2013-06-30T13:22:57Z</time>
      </trkpt>
      <trkpt lat="47.655116273090243" lon="11.892107678577304">
        <ele>1092.195068359375</ele>
        <time>2013-06-30T13:23:04Z</time>
      </trkpt>
      <trkpt lat="47.65510244295001" lon="11.892141876742244">
        <ele>1092.195068359375</ele>
        <time>2013-06-30T13:23:06Z</time>
      </trkpt>
      <trkpt lat="47.65503010712564" lon="11.892312448471785">
        <ele>1092.67578125</ele>
        <time>2013-06-30T13:23:14Z</time>
      </trkpt>
      <trkpt lat="47.654960621148348" lon="11.892516883090138">
        <ele>1094.11767578125</ele>
        <time>2013-06-30T13:23:22Z</time>
      </trkpt>
      <trkpt lat="47.654940839856863" lon="11.892606820911169">
        <ele>1094.59814453125</ele>
        <time>2013-06-30T13:23:26Z</time>
      </trkpt>
      <trkpt lat="47.654892140999436" lon="11.8928296957165">
        <ele>1096.040283203125</ele>
        <time>2013-06-30T13:23:35Z</time>
      </trkpt>
      <trkpt lat="47.654828857630491" lon="11.893017450347543">
        <ele>1097.482177734375</ele>
        <time>2013-06-30T13:23:43Z</time>
      </trkpt>
      <trkpt lat="47.654781667515635" lon="11.893162205815315">
        <ele>1098.443359375</ele>
        <time>2013-06-30T13:23:49Z</time>
      </trkpt>
      <trkpt lat="47.654717713594437" lon="11.89339991658926">
        <ele>1099.40478515625</ele>
        <time>2013-06-30T13:23:58Z</time>
      </trkpt>
      <trkpt lat="47.654700614511967" lon="11.893471162766218">
        <ele>1100.366455078125</ele>
        <time>2013-06-30T13:24:02Z</time>
      </trkpt>
      <trkpt lat="47.654617968946695" lon="11.893666796386242">
        <ele>1100.366455078125</ele>
        <time>2013-06-30T13:24:11Z</time>
      </trkpt>
      <trkpt lat="47.654598858207464" lon="11.893717842176557">
        <ele>1101.808349609375</ele>
        <time>2013-06-30T13:24:13Z</time>
      </trkpt>
      <trkpt lat="47.654503807425499" lon="11.893853209912777">
        <ele>1102.76953125</ele>
        <time>2013-06-30T13:24:21Z</time>
      </trkpt>
      <trkpt lat="47.654330302029848" lon="11.894039874896407">
        <ele>1103.73095703125</ele>
        <time>2013-06-30T13:24:30Z</time>
      </trkpt>
      <trkpt lat="47.654212368652225" lon="11.894152024760842">
        <ele>1104.692138671875</ele>
        <time>2013-06-30T13:24:37Z</time>
      </trkpt>
      <trkpt lat="47.654195772483945" lon="11.894167447462678">
        <ele>1105.1728515625</ele>
        <time>2013-06-30T13:24:38Z</time>
      </trkpt>
      <trkpt lat="47.65411245636642" lon="11.894279597327113">
        <ele>1105.653564453125</ele>
        <time>2013-06-30T13:24:44Z</time>
      </trkpt>
      <trkpt lat="47.654075911268592" lon="11.894338438287377">
        <ele>1106.61474609375</ele>
        <time>2013-06-30T13:24:47Z</time>
      </trkpt>
      <trkpt lat="47.653974071145058" lon="11.894515631720424">
        <ele>1107.576171875</ele>
        <time>2013-06-30T13:24:55Z</time>
      </trkpt>
      <trkpt lat="47.653831243515015" lon="11.894704895094037">
        <ele>1108.056884765625</ele>
        <time>2013-06-30T13:25:04Z</time>
      </trkpt>
      <trkpt lat="47.653696378692985" lon="11.894882675260305">
        <ele>1109.979248046875</ele>
        <time>2013-06-30T13:25:13Z</time>
      </trkpt>
      <trkpt lat="47.653596047312021" lon="11.895082080736756">
        <ele>1111.42138671875</ele>
        <time>2013-06-30T13:25:23Z</time>
      </trkpt>
      <trkpt lat="47.65353393740952" lon="11.895264135673642">
        <ele>1113.343994140625</ele>
        <time>2013-06-30T13:25:31Z</time>
      </trkpt>
      <trkpt lat="47.653470067307353" lon="11.895450716838241">
        <ele>1114.30517578125</ele>
        <time>2013-06-30T13:25:39Z</time>
      </trkpt>
      <trkpt lat="47.653456069529057" lon="11.895499499514699">
        <ele>1114.785888671875</ele>
        <time>2013-06-30T13:25:41Z</time>
      </trkpt>
      <trkpt lat="47.653404017910361" lon="11.895702760666609">
        <ele>1115.747314453125</ele>
        <time>2013-06-30T13:25:49Z</time>
      </trkpt>
      <trkpt lat="47.653327658772469" lon="11.895925970748067">
        <ele>1117.669921875</ele>
        <time>2013-06-30T13:25:59Z</time>
      </trkpt>
      <trkpt lat="47.653313325718045" lon="11.89606536179781">
        <ele>1118.63134765625</ele>
        <time>2013-06-30T13:26:04Z</time>
      </trkpt>
      <trkpt lat="47.653301171958447" lon="11.896212296560407">
        <ele>1118.63134765625</ele>
        <time>2013-06-30T13:26:09Z</time>
      </trkpt>
      <trkpt lat="47.653116350993514" lon="11.896540364250541">
        <ele>1121.03466796875</ele>
        <time>2013-06-30T13:26:22Z</time>
      </trkpt>
      <trkpt lat="47.653069999068975" lon="11.896679420024157">
        <ele>1121.995849609375</ele>
        <time>2013-06-30T13:26:28Z</time>
      </trkpt>
      <trkpt lat="47.65305851586163" lon="11.896724179387093">
        <ele>1121.995849609375</ele>
        <time>2013-06-30T13:26:30Z</time>
      </trkpt>
      <trkpt lat="47.653021384030581" lon="11.896858541294932">
        <ele>1122.4765625</ele>
        <time>2013-06-30T13:26:36Z</time>
      </trkpt>
      <trkpt lat="47.652997830882668" lon="11.896992987021804">
        <ele>1123.91845703125</ele>
        <time>2013-06-30T13:26:42Z</time>
      </trkpt>
      <trkpt lat="47.652964806184173" lon="11.897147297859192">
        <ele>1124.399169921875</ele>
        <time>2013-06-30T13:26:47Z</time>
      </trkpt>
      <trkpt lat="47.652933122590184" lon="11.897320384159684">
        <ele>1125.3603515625</ele>
        <time>2013-06-30T13:26:54Z</time>
      </trkpt>
      <trkpt lat="47.652896074578166" lon="11.897466396912932">
        <ele>1126.32177734375</ele>
        <time>2013-06-30T13:27:01Z</time>
      </trkpt>
      <trkpt lat="47.652861960232258" lon="11.897593718022108">
        <ele>1127.283203125</ele>
        <time>2013-06-30T13:27:07Z</time>
      </trkpt>
      <trkpt lat="47.652804628014565" lon="11.89770670607686">
        <ele>1128.244384765625</ele>
        <time>2013-06-30T13:27:12Z</time>
      </trkpt>
      <trkpt lat="47.652736147865653" lon="11.897839391604066">
        <ele>1129.20556640625</ele>
        <time>2013-06-30T13:27:18Z</time>
      </trkpt>
      <trkpt lat="47.652721395716071" lon="11.898056315258145">
        <ele>1130.647705078125</ele>
        <time>2013-06-30T13:27:26Z</time>
      </trkpt>
      <trkpt lat="47.652719300240278" lon="11.898119682446122">
        <ele>1130.1669921875</ele>
        <time>2013-06-30T13:27:28Z</time>
      </trkpt>
      <trkpt lat="47.652709158137441" lon="11.8983418866992">
        <ele>1132.08984375</ele>
        <time>2013-06-30T13:27:36Z</time>
      </trkpt>
      <trkpt lat="47.652694741263986" lon="11.898440290242434">
        <ele>1132.570556640625</ele>
        <time>2013-06-30T13:27:40Z</time>
      </trkpt>
      <trkpt lat="47.652695663273335" lon="11.89855545759201">
        <ele>1133.53173828125</ele>
        <time>2013-06-30T13:27:44Z</time>
      </trkpt>
      <trkpt lat="47.652721898630261" lon="11.898824097588658">
        <ele>1135.454345703125</ele>
        <time>2013-06-30T13:27:53Z</time>
      </trkpt>
      <trkpt lat="47.652742350474" lon="11.898892996832728">
        <ele>1135.454345703125</ele>
        <time>2013-06-30T13:27:56Z</time>
      </trkpt>
      <trkpt lat="47.652752241119742" lon="11.899105310440063">
        <ele>1136.415771484375</ele>
        <time>2013-06-30T13:28:04Z</time>
      </trkpt>
      <trkpt lat="47.652696082368493" lon="11.899300357326865">
        <ele>1137.857666015625</ele>
        <time>2013-06-30T13:28:11Z</time>
      </trkpt>
      <trkpt lat="47.652618298307061" lon="11.899464894086123">
        <ele>1139.299560546875</ele>
        <time>2013-06-30T13:28:19Z</time>
      </trkpt>
      <trkpt lat="47.652590554207563" lon="11.899721128866076">
        <ele>1139.7802734375</ele>
        <time>2013-06-30T13:28:28Z</time>
      </trkpt>
      <trkpt lat="47.652591895312071" lon="11.899984404444695">
        <ele>1141.702880859375</ele>
        <time>2013-06-30T13:28:38Z</time>
      </trkpt>
      <trkpt lat="47.652638414874673" lon="11.900186408311129">
        <ele>1143.144775390625</ele>
        <time>2013-06-30T13:28:47Z</time>
      </trkpt>
      <trkpt lat="47.652642857283354" lon="11.900209374725819">
        <ele>1144.106201171875</ele>
        <time>2013-06-30T13:28:48Z</time>
      </trkpt>
      <trkpt lat="47.652689628303051" lon="11.900379359722137">
        <ele>1144.586669921875</ele>
        <time>2013-06-30T13:28:55Z</time>
      </trkpt>
      <trkpt lat="47.652769759297371" lon="11.900605335831642">
        <ele>1146.02880859375</ele>
        <time>2013-06-30T13:29:04Z</time>
      </trkpt>
      <trkpt lat="47.652812842279673" lon="11.90078747458756">
        <ele>1147.951416015625</ele>
        <time>2013-06-30T13:29:12Z</time>
      </trkpt>
      <trkpt lat="47.652834132313728" lon="11.900923596695065">
        <ele>1149.3935546875</ele>
        <time>2013-06-30T13:29:19Z</time>
      </trkpt>
      <trkpt lat="47.652849135920405" lon="11.900964919477701">
        <ele>1148.912841796875</ele>
        <time>2013-06-30T13:29:21Z</time>
      </trkpt>
      <trkpt lat="47.652899762615561" lon="11.90118326805532">
        <ele>1149.874267578125</ele>
        <time>2013-06-30T13:29:29Z</time>
      </trkpt>
      <trkpt lat="47.652900433167815" lon="11.901209922507405">
        <ele>1150.83544921875</ele>
        <time>2013-06-30T13:29:30Z</time>
      </trkpt>
      <trkpt lat="47.652964806184173" lon="11.901363059878349">
        <ele>1151.316162109375</ele>
        <time>2013-06-30T13:29:36Z</time>
      </trkpt>
      <trkpt lat="47.652993891388178" lon="11.901474539190531">
        <ele>1152.27734375</ele>
        <time>2013-06-30T13:29:40Z</time>
      </trkpt>
      <trkpt lat="47.653037644922733" lon="11.9016367290169">
        <ele>1153.23876953125</ele>
        <time>2013-06-30T13:29:46Z</time>
      </trkpt>
      <trkpt lat="47.653071591630578" lon="11.901766983792186">
        <ele>1153.719482421875</ele>
        <time>2013-06-30T13:29:51Z</time>
      </trkpt>
      <trkpt lat="47.653111573308706" lon="11.901942165568471">
        <ele>1155.161376953125</ele>
        <time>2013-06-30T13:29:58Z</time>
      </trkpt>
      <trkpt lat="47.653116099536419" lon="11.902011651545763">
        <ele>1156.12255859375</ele>
        <time>2013-06-30T13:30:01Z</time>
      </trkpt>
      <trkpt lat="47.653197320178151" lon="11.902224384248257">
        <ele>1157.083984375</ele>
        <time>2013-06-30T13:30:10Z</time>
      </trkpt>
      <trkpt lat="47.653208384290338" lon="11.902249110862613">
        <ele>1157.564697265625</ele>
        <time>2013-06-30T13:30:11Z</time>
      </trkpt>
      <trkpt lat="47.653224729001522" lon="11.902523199096322">
        <ele>1159.9677734375</ele>
        <time>2013-06-30T13:30:22Z</time>
      </trkpt>
      <trkpt lat="47.653212575241923" lon="11.902586901560426">
        <ele>1159.4873046875</ele>
        <time>2013-06-30T13:30:24Z</time>
      </trkpt>
      <trkpt lat="47.653101766481996" lon="11.902696704491973">
        <ele>1160.448486328125</ele>
        <time>2013-06-30T13:30:31Z</time>
      </trkpt>
      <trkpt lat="47.653091289103031" lon="11.902631493285298">
        <ele>1160.92919921875</ele>
        <time>2013-06-30T13:30:51Z</time>
      </trkpt>
      <trkpt lat="47.65312347561121" lon="11.902395877987146">
        <ele>1163.81298828125</ele>
        <time>2013-06-30T13:34:58Z</time>
      </trkpt>
      <trkpt lat="47.653141412883997" lon="11.902463436126709">
        <ele>1163.81298828125</ele>
        <time>2013-06-30T13:35:13Z</time>
      </trkpt>
      <trkpt lat="47.653156835585833" lon="11.902561588212848">
        <ele>1163.81298828125</ele>
        <time>2013-06-30T13:35:22Z</time>
      </trkpt>
      <trkpt lat="47.65310637652874" lon="11.902596037834883">
        <ele>1163.33251953125</ele>
        <time>2013-06-30T13:35:29Z</time>
      </trkpt>
      <trkpt lat="47.653108974918723" lon="11.902558738365769">
        <ele>1164.2939453125</ele>
        <time>2013-06-30T13:35:35Z</time>
      </trkpt>
      <trkpt lat="47.653111573308706" lon="11.902558235451579">
        <ele>1164.2939453125</ele>
        <time>2013-06-30T13:35:38Z</time>
      </trkpt>
      <trkpt lat="47.653156584128737" lon="11.902537615969777">
        <ele>1164.2939453125</ele>
        <time>2013-06-30T13:35:43Z</time>
      </trkpt>
      <trkpt lat="47.653227411210537" lon="11.902734423056245">
        <ele>1164.774658203125</ele>
        <time>2013-06-30T13:35:52Z</time>
      </trkpt>
      <trkpt lat="47.653274349868298" lon="11.902980599552393">
        <ele>1166.216552734375</ele>
        <time>2013-06-30T13:36:01Z</time>
      </trkpt>
      <trkpt lat="47.653342997655272" lon="11.903139101341367">
        <ele>1166.697265625</ele>
        <time>2013-06-30T13:36:08Z</time>
      </trkpt>
      <trkpt lat="47.653397899121046" lon="11.903259800747037">
        <ele>1167.658447265625</ele>
        <time>2013-06-30T13:36:14Z</time>
      </trkpt>
      <trkpt lat="47.653409969061613" lon="11.903300704434514">
        <ele>1167.658447265625</ele>
        <time>2013-06-30T13:36:16Z</time>
      </trkpt>
      <trkpt lat="47.653564112260938" lon="11.903446298092604">
        <ele>1169.1005859375</ele>
        <time>2013-06-30T13:36:25Z</time>
      </trkpt>
      <trkpt lat="47.653668969869614" lon="11.903601195663214">
        <ele>1170.54248046875</ele>
        <time>2013-06-30T13:36:34Z</time>
      </trkpt>
      <trkpt lat="47.653790842741728" lon="11.903801523149014">
        <ele>1172.94580078125</ele>
        <time>2013-06-30T13:36:45Z</time>
      </trkpt>
      <trkpt lat="47.65381146222353" lon="11.903866063803434">
        <ele>1173.426513671875</ele>
        <time>2013-06-30T13:36:48Z</time>
      </trkpt>
      <trkpt lat="47.65383493155241" lon="11.904049124568701">
        <ele>1174.3876953125</ele>
        <time>2013-06-30T13:36:54Z</time>
      </trkpt>
      <trkpt lat="47.653833841904998" lon="11.904215253889561">
        <ele>1174.868408203125</ele>
        <time>2013-06-30T13:36:59Z</time>
      </trkpt>
      <trkpt lat="47.653831411153078" lon="11.904271245002747">
        <ele>1174.868408203125</ele>
        <time>2013-06-30T13:37:01Z</time>
      </trkpt>
      <trkpt lat="47.653855886310339" lon="11.904388004913926">
        <ele>1175.82958984375</ele>
        <time>2013-06-30T13:37:06Z</time>
      </trkpt>
      <trkpt lat="47.653865190222859" lon="11.904535107314587">
        <ele>1176.791015625</ele>
        <time>2013-06-30T13:37:12Z</time>
      </trkpt>
      <trkpt lat="47.653875835239887" lon="11.904591014608741">
        <ele>1177.271728515625</ele>
        <time>2013-06-30T13:37:15Z</time>
      </trkpt>
      <trkpt lat="47.653883881866932" lon="11.904688915237784">
        <ele>1179.194091796875</ele>
        <time>2013-06-30T13:37:20Z</time>
      </trkpt>
      <trkpt lat="47.653879355639219" lon="11.904770890250802">
        <ele>1179.194091796875</ele>
        <time>2013-06-30T13:37:24Z</time>
      </trkpt>
      <trkpt lat="47.653764607384801" lon="11.904941210523248">
        <ele>1181.1171875</ele>
        <time>2013-06-30T13:37:33Z</time>
      </trkpt>
      <trkpt lat="47.653678441420197" lon="11.90514899790287">
        <ele>1183.520263671875</ele>
        <time>2013-06-30T13:37:43Z</time>
      </trkpt>
      <trkpt lat="47.653664695098996" lon="11.905201803892851">
        <ele>1184.0009765625</ele>
        <time>2013-06-30T13:37:46Z</time>
      </trkpt>
      <trkpt lat="47.653645751997828" lon="11.905325101688504">
        <ele>1185.44287109375</ele>
        <time>2013-06-30T13:37:53Z</time>
      </trkpt>
      <trkpt lat="47.653638543561101" lon="11.905380841344595">
        <ele>1185.44287109375</ele>
        <time>2013-06-30T13:37:56Z</time>
      </trkpt>
      <trkpt lat="47.653508456423879" lon="11.905551329255104">
        <ele>1186.884765625</ele>
        <time>2013-06-30T13:38:04Z</time>
      </trkpt>
      <trkpt lat="47.653384655714035" lon="11.905666412785649">
        <ele>1188.326904296875</ele>
        <time>2013-06-30T13:38:11Z</time>
      </trkpt>
      <trkpt lat="47.65337074175477" lon="11.905674710869789">
        <ele>1188.8076171875</ele>
        <time>2013-06-30T13:38:12Z</time>
      </trkpt>
      <trkpt lat="47.653301088139415" lon="11.90569088794291">
        <ele>1189.2880859375</ele>
        <time>2013-06-30T13:38:16Z</time>
      </trkpt>
      <trkpt lat="47.653099587187171" lon="11.905625844374299">
        <ele>1191.210693359375</ele>
        <time>2013-06-30T13:38:26Z</time>
      </trkpt>
      <trkpt lat="47.652987772598863" lon="11.905534900724888">
        <ele>1193.13330078125</ele>
        <time>2013-06-30T13:38:34Z</time>
      </trkpt>
      <trkpt lat="47.652900014072657" lon="11.905485363677144">
        <ele>1194.0947265625</ele>
        <time>2013-06-30T13:38:40Z</time>
      </trkpt>
      <trkpt lat="47.652823654934764" lon="11.905452506616712">
        <ele>1196.017578125</ele>
        <time>2013-06-30T13:38:48Z</time>
      </trkpt>
      <trkpt lat="47.652721730992198" lon="11.905489386990666">
        <ele>1196.978759765625</ele>
        <time>2013-06-30T13:38:55Z</time>
      </trkpt>
      <trkpt lat="47.652646880596876" lon="11.90555895678699">
        <ele>1197.940185546875</ele>
        <time>2013-06-30T13:39:02Z</time>
      </trkpt>
      <trkpt lat="47.652589799836278" lon="11.905640680342913">
        <ele>1198.420654296875</ele>
        <time>2013-06-30T13:39:08Z</time>
      </trkpt>
      <trkpt lat="47.652548057958484" lon="11.905746711418033">
        <ele>1200.343505859375</ele>
        <time>2013-06-30T13:39:14Z</time>
      </trkpt>
      <trkpt lat="47.652545711025596" lon="11.905870512127876">
        <ele>1201.785400390625</ele>
        <time>2013-06-30T13:39:19Z</time>
      </trkpt>
      <trkpt lat="47.652550069615245" lon="11.905921557918191">
        <ele>1202.265869140625</ele>
        <time>2013-06-30T13:39:21Z</time>
      </trkpt>
      <trkpt lat="47.652556439861655" lon="11.906011579558253">
        <ele>1202.74658203125</ele>
        <time>2013-06-30T13:39:25Z</time>
      </trkpt>
      <trkpt lat="47.652526516467333" lon="11.906140493229032">
        <ele>1204.188720703125</ele>
        <time>2013-06-30T13:39:32Z</time>
      </trkpt>
      <trkpt lat="47.652499862015247" lon="11.906191874295473">
        <ele>1204.188720703125</ele>
        <time>2013-06-30T13:39:35Z</time>
      </trkpt>
      <trkpt lat="47.652419982478023" lon="11.906348112970591">
        <ele>1205.630615234375</ele>
        <time>2013-06-30T13:39:43Z</time>
      </trkpt>
      <trkpt lat="47.652265084907413" lon="11.906398236751556">
        <ele>1206.111083984375</ele>
        <time>2013-06-30T13:39:51Z</time>
      </trkpt>
      <trkpt lat="47.652127370238304" lon="11.906540980562568">
        <ele>1208.9951171875</ele>
        <time>2013-06-30T13:40:01Z</time>
      </trkpt>
      <trkpt lat="47.652060315012932" lon="11.906682215631008">
        <ele>1209.956298828125</ele>
        <time>2013-06-30T13:40:09Z</time>
      </trkpt>
      <trkpt lat="47.651982866227627" lon="11.906796796247363">
        <ele>1210.917724609375</ele>
        <time>2013-06-30T13:40:17Z</time>
      </trkpt>
      <trkpt lat="47.651929641142488" lon="11.906926967203617">
        <ele>1211.3984375</ele>
        <time>2013-06-30T13:40:23Z</time>
      </trkpt>
      <trkpt lat="47.651918409392238" lon="11.907098460942507">
        <ele>1212.840576171875</ele>
        <time>2013-06-30T13:40:30Z</time>
      </trkpt>
      <trkpt lat="47.651926958933473" lon="11.907238438725471">
        <ele>1214.282470703125</ele>
        <time>2013-06-30T13:40:37Z</time>
      </trkpt>
      <trkpt lat="47.651931149885058" lon="11.907286467030644">
        <ele>1214.282470703125</ele>
        <time>2013-06-30T13:40:40Z</time>
      </trkpt>
      <trkpt lat="47.651883540675044" lon="11.907327705994248">
        <ele>1214.76318359375</ele>
        <time>2013-06-30T13:40:44Z</time>
      </trkpt>
      <trkpt lat="47.651713471859694" lon="11.907424433156848">
        <ele>1216.205078125</ele>
        <time>2013-06-30T13:40:53Z</time>
      </trkpt>
      <trkpt lat="47.651556730270386" lon="11.907536163926125">
        <ele>1217.16650390625</ele>
        <time>2013-06-30T13:41:03Z</time>
      </trkpt>
      <trkpt lat="47.651524627581239" lon="11.907612439244986">
        <ele>1217.64697265625</ele>
        <time>2013-06-30T13:41:07Z</time>
      </trkpt>
      <trkpt lat="47.651480287313461" lon="11.907724924385548">
        <ele>1219.089111328125</ele>
        <time>2013-06-30T13:41:13Z</time>
      </trkpt>
      <trkpt lat="47.65144307166338" lon="11.907787956297398">
        <ele>1220.05029296875</ele>
        <time>2013-06-30T13:41:17Z</time>
      </trkpt>
      <trkpt lat="47.651260429993272" lon="11.907812431454659">
        <ele>1221.01171875</ele>
        <time>2013-06-30T13:41:25Z</time>
      </trkpt>
      <trkpt lat="47.651094384491444" lon="11.907797008752823">
        <ele>1221.4921875</ele>
        <time>2013-06-30T13:41:34Z</time>
      </trkpt>
      <trkpt lat="47.65100528486073" lon="11.907885270193219">
        <ele>1222.45361328125</ele>
        <time>2013-06-30T13:41:40Z</time>
      </trkpt>
      <trkpt lat="47.650926997885108" lon="11.907954839989543">
        <ele>1222.934326171875</ele>
        <time>2013-06-30T13:41:45Z</time>
      </trkpt>
      <trkpt lat="47.650828929618001" lon="11.907978979870677">
        <ele>1223.8955078125</ele>
        <time>2013-06-30T13:41:50Z</time>
      </trkpt>
      <trkpt lat="47.650678725913167" lon="11.908004377037287">
        <ele>1226.298828125</ele>
        <time>2013-06-30T13:41:58Z</time>
      </trkpt>
      <trkpt lat="47.650615610182285" lon="11.90798350609839">
        <ele>1226.779541015625</ele>
        <time>2013-06-30T13:42:03Z</time>
      </trkpt>
      <trkpt lat="47.650464652106166" lon="11.907941345125437">
        <ele>1228.702392578125</ele>
        <time>2013-06-30T13:42:11Z</time>
      </trkpt>
      <trkpt lat="47.650397345423698" lon="11.907912092283368">
        <ele>1229.182861328125</ele>
        <time>2013-06-30T13:42:15Z</time>
      </trkpt>
      <trkpt lat="47.650327691808343" lon="11.907894155010581">
        <ele>1229.182861328125</ele>
        <time>2013-06-30T13:42:20Z</time>
      </trkpt>
      <trkpt lat="47.65020539984107" lon="11.907870350405574">
        <ele>1231.105712890625</ele>
        <time>2013-06-30T13:42:28Z</time>
      </trkpt>
      <trkpt lat="47.650140104815364" lon="11.907863561064005">
        <ele>1231.105712890625</ele>
        <time>2013-06-30T13:42:32Z</time>
      </trkpt>
      <trkpt lat="47.650106074288487" lon="11.907857274636626">
        <ele>1232.06689453125</ele>
        <time>2013-06-30T13:42:34Z</time>
      </trkpt>
      <trkpt lat="47.650041617453098" lon="11.907835230231285">
        <ele>1232.06689453125</ele>
        <time>2013-06-30T13:42:38Z</time>
      </trkpt>
      <trkpt lat="47.649949919432402" lon="11.907793739810586">
        <ele>1232.547607421875</ele>
        <time>2013-06-30T13:42:44Z</time>
      </trkpt>
      <trkpt lat="47.649843720719218" lon="11.90783011727035">
        <ele>1233.989501953125</ele>
        <time>2013-06-30T13:42:52Z</time>
      </trkpt>
      <trkpt lat="47.649820083752275" lon="11.907852161675692">
        <ele>1233.5087890625</ele>
        <time>2013-06-30T13:42:54Z</time>
      </trkpt>
      <trkpt lat="47.649717573076487" lon="11.907967915758491">
        <ele>1235.431396484375</ele>
        <time>2013-06-30T13:43:01Z</time>
      </trkpt>
      <trkpt lat="47.649666359648108" lon="11.908037904649973">
        <ele>1236.392822265625</ele>
        <time>2013-06-30T13:43:06Z</time>
      </trkpt>
      <trkpt lat="47.64953937381506" lon="11.90815064124763">
        <ele>1237.834716796875</ele>
        <time>2013-06-30T13:43:16Z</time>
      </trkpt>
      <trkpt lat="47.649478772655129" lon="11.908180229365826">
        <ele>1238.796142578125</ele>
        <time>2013-06-30T13:43:19Z</time>
      </trkpt>
      <trkpt lat="47.649309542030096" lon="11.908231778070331">
        <ele>1240.238037109375</ele>
        <time>2013-06-30T13:43:27Z</time>
      </trkpt>
      <trkpt lat="47.649224465712905" lon="11.908267987892032">
        <ele>1240.238037109375</ele>
        <time>2013-06-30T13:43:32Z</time>
      </trkpt>
      <trkpt lat="47.649209713563323" lon="11.908273687586188">
        <ele>1241.19921875</ele>
        <time>2013-06-30T13:43:33Z</time>
      </trkpt>
      <trkpt lat="47.649100497364998" lon="11.908266730606556">
        <ele>1241.679931640625</ele>
        <time>2013-06-30T13:43:39Z</time>
      </trkpt>
      <trkpt lat="47.648985413834453" lon="11.908178888261318">
        <ele>1243.6025390625</ele>
        <time>2013-06-30T13:43:47Z</time>
      </trkpt>
      <trkpt lat="47.648874688893557" lon="11.908149970695376">
        <ele>1244.08349609375</ele>
        <time>2013-06-30T13:43:54Z</time>
      </trkpt>
      <trkpt lat="47.648855745792389" lon="11.908146785572171">
        <ele>1243.6025390625</ele>
        <time>2013-06-30T13:43:55Z</time>
      </trkpt>
      <trkpt lat="47.648799754679203" lon="11.908124154433608">
        <ele>1245.044677734375</ele>
        <time>2013-06-30T13:43:58Z</time>
      </trkpt>
      <trkpt lat="47.648732950910926" lon="11.907984595745802">
        <ele>1245.525390625</ele>
        <time>2013-06-30T13:44:05Z</time>
      </trkpt>
      <trkpt lat="47.648668494075537" lon="11.907819136977196">
        <ele>1246.48681640625</ele>
        <time>2013-06-30T13:44:11Z</time>
      </trkpt>
      <trkpt lat="47.648592386394739" lon="11.907705226913095">
        <ele>1247.447998046875</ele>
        <time>2013-06-30T13:44:17Z</time>
      </trkpt>
      <trkpt lat="47.648512171581388" lon="11.907611014321446">
        <ele>1247.9287109375</ele>
        <time>2013-06-30T13:44:24Z</time>
      </trkpt>
      <trkpt lat="47.648437237367034" lon="11.907471623271704">
        <ele>1249.37060546875</ele>
        <time>2013-06-30T13:44:31Z</time>
      </trkpt>
      <trkpt lat="47.64839842915535" lon="11.907391240820289">
        <ele>1249.851318359375</ele>
        <time>2013-06-30T13:44:35Z</time>
      </trkpt>
      <trkpt lat="47.648288374766707" lon="11.907233828678727">
        <ele>1251.293212890625</ele>
        <time>2013-06-30T13:44:45Z</time>
      </trkpt>
      <trkpt lat="47.648248896002769" lon="11.907191583886743">
        <ele>1252.25439453125</ele>
        <time>2013-06-30T13:44:48Z</time>
      </trkpt>
      <trkpt lat="47.648174380883574" lon="11.907139532268047">
        <ele>1253.696533203125</ele>
        <time>2013-06-30T13:44:55Z</time>
      </trkpt>
      <trkpt lat="47.64812383800745" lon="11.907092342153192">
        <ele>1254.17724609375</ele>
        <time>2013-06-30T13:45:00Z</time>
      </trkpt>
      <trkpt lat="47.648069355636835" lon="11.907063173130155">
        <ele>1255.138427734375</ele>
        <time>2013-06-30T13:45:04Z</time>
      </trkpt>
      <trkpt lat="47.647986123338342" lon="11.907001482322812">
        <ele>1257.06103515625</ele>
        <time>2013-06-30T13:45:10Z</time>
      </trkpt>
      <trkpt lat="47.647902639582753" lon="11.906897881999612">
        <ele>1258.0224609375</ele>
        <time>2013-06-30T13:45:17Z</time>
      </trkpt>
      <trkpt lat="47.647820664569736" lon="11.906772656366229">
        <ele>1259.46435546875</ele>
        <time>2013-06-30T13:45:24Z</time>
      </trkpt>
      <trkpt lat="47.647785041481256" lon="11.906619938090444">
        <ele>1260.42578125</ele>
        <time>2013-06-30T13:45:31Z</time>
      </trkpt>
      <trkpt lat="47.647750675678253" lon="11.906494628638029">
        <ele>1262.348388671875</ele>
        <time>2013-06-30T13:45:37Z</time>
      </trkpt>
      <trkpt lat="47.647616900503635" lon="11.906396979466081">
        <ele>1263.309814453125</ele>
        <time>2013-06-30T13:45:48Z</time>
      </trkpt>
      <trkpt lat="47.64752528630197" lon="11.906359009444714">
        <ele>1265.232421875</ele>
        <time>2013-06-30T13:45:55Z</time>
      </trkpt>
      <trkpt lat="47.647409699857235" lon="11.90633830614388">
        <ele>1266.193603515625</ele>
        <time>2013-06-30T13:46:03Z</time>
      </trkpt>
      <trkpt lat="47.647279780358076" lon="11.906366301700473">
        <ele>1268.596923828125</ele>
        <time>2013-06-30T13:46:12Z</time>
      </trkpt>
      <trkpt lat="47.647193865850568" lon="11.906360937282443">
        <ele>1270.038818359375</ele>
        <time>2013-06-30T13:46:19Z</time>
      </trkpt>
      <trkpt lat="47.647131169214845" lon="11.906391950324178">
        <ele>1270.51953125</ele>
        <time>2013-06-30T13:46:24Z</time>
      </trkpt>
      <trkpt lat="47.647065706551075" lon="11.906387340277433">
        <ele>1271.480712890625</ele>
        <time>2013-06-30T13:46:28Z</time>
      </trkpt>
      <trkpt lat="47.646978450939059" lon="11.906378204002976">
        <ele>1271.96142578125</ele>
        <time>2013-06-30T13:46:33Z</time>
      </trkpt>
      <trkpt lat="47.646895637735724" lon="11.906307963654399">
        <ele>1273.403564453125</ele>
        <time>2013-06-30T13:46:39Z</time>
      </trkpt>
      <trkpt lat="47.646805280819535" lon="11.906259432435036">
        <ele>1274.845458984375</ele>
        <time>2013-06-30T13:46:45Z</time>
      </trkpt>
      <trkpt lat="47.64677569270134" lon="11.90625281073153">
        <ele>1275.325927734375</ele>
        <time>2013-06-30T13:46:47Z</time>
      </trkpt>
      <trkpt lat="47.646622890606523" lon="11.906196400523186">
        <ele>1277.2490234375</ele>
        <time>2013-06-30T13:46:57Z</time>
      </trkpt>
      <trkpt lat="47.646576706320047" lon="11.906140660867095">
        <ele>1278.69091796875</ele>
        <time>2013-06-30T13:47:01Z</time>
      </trkpt>
      <trkpt lat="47.646476542577147" lon="11.906117359176278">
        <ele>1279.652099609375</ele>
        <time>2013-06-30T13:47:08Z</time>
      </trkpt>
      <trkpt lat="47.646448211744428" lon="11.90612867474556">
        <ele>1279.652099609375</ele>
        <time>2013-06-30T13:47:10Z</time>
      </trkpt>
      <trkpt lat="47.646354250609875" lon="11.906130602583289">
        <ele>1280.613525390625</ele>
        <time>2013-06-30T13:47:18Z</time>
      </trkpt>
      <trkpt lat="47.646229695528746" lon="11.906056171283126">
        <ele>1282.055419921875</ele>
        <time>2013-06-30T13:47:27Z</time>
      </trkpt>
      <trkpt lat="47.646114276722074" lon="11.906053069978952">
        <ele>1283.497314453125</ele>
        <time>2013-06-30T13:47:35Z</time>
      </trkpt>
      <trkpt lat="47.646049400791526" lon="11.906117275357246">
        <ele>1284.939453125</ele>
        <time>2013-06-30T13:47:40Z</time>
      </trkpt>
      <trkpt lat="47.646032636985183" lon="11.90627871081233">
        <ele>1285.900634765625</ele>
        <time>2013-06-30T13:47:47Z</time>
      </trkpt>
      <trkpt lat="47.646000701934099" lon="11.906483648344874">
        <ele>1287.342529296875</ele>
        <time>2013-06-30T13:47:55Z</time>
      </trkpt>
      <trkpt lat="47.645967090502381" lon="11.906637707725167">
        <ele>1288.78466796875</ele>
        <time>2013-06-30T13:48:02Z</time>
      </trkpt>
      <trkpt lat="47.645985195413232" lon="11.906734770163894">
        <ele>1289.745849609375</ele>
        <time>2013-06-30T13:48:08Z</time>
      </trkpt>
      <trkpt lat="47.646012352779508" lon="11.906840046867728">
        <ele>1290.70703125</ele>
        <time>2013-06-30T13:48:13Z</time>
      </trkpt>
      <trkpt lat="47.646031882613897" lon="11.906992765143514">
        <ele>1292.1494140625</ele>
        <time>2013-06-30T13:48:20Z</time>
      </trkpt>
      <trkpt lat="47.646037749946117" lon="11.907116314396262">
        <ele>1293.110595703125</ele>
        <time>2013-06-30T13:48:25Z</time>
      </trkpt>
      <trkpt lat="47.646038923412561" lon="11.907254531979561">
        <ele>1294.072021484375</ele>
        <time>2013-06-30T13:48:30Z</time>
      </trkpt>
      <trkpt lat="47.646047389134765" lon="11.907367184758186">
        <ele>1295.033203125</ele>
        <time>2013-06-30T13:48:37Z</time>
      </trkpt>
      <trkpt lat="47.646046215668321" lon="11.90739911980927">
        <ele>1296.475341796875</ele>
        <time>2013-06-30T13:48:41Z</time>
      </trkpt>
      <trkpt lat="47.645997516810894" lon="11.907524848356843">
        <ele>1297.4365234375</ele>
        <time>2013-06-30T13:48:49Z</time>
      </trkpt>
      <trkpt lat="47.645975220948458" lon="11.907619731500745">
        <ele>1298.397705078125</ele>
        <time>2013-06-30T13:48:55Z</time>
      </trkpt>
      <trkpt lat="47.645958038046956" lon="11.907655103132129">
        <ele>1298.87841796875</ele>
        <time>2013-06-30T13:48:57Z</time>
      </trkpt>
      <trkpt lat="47.64592794701457" lon="11.907741772010922">
        <ele>1299.83984375</ele>
        <time>2013-06-30T13:49:01Z</time>
      </trkpt>
      <trkpt lat="47.645916128531098" lon="11.907788207754493">
        <ele>1299.359130859375</ele>
        <time>2013-06-30T13:49:03Z</time>
      </trkpt>
      <trkpt lat="47.645869692787528" lon="11.907943859696388">
        <ele>1300.801025390625</ele>
        <time>2013-06-30T13:49:11Z</time>
      </trkpt>
      <trkpt lat="47.64586684294045" lon="11.908156257122755">
        <ele>1302.7236328125</ele>
        <time>2013-06-30T13:49:20Z</time>
      </trkpt>
      <trkpt lat="47.645866591483355" lon="11.908337725326419">
        <ele>1303.68505859375</ele>
        <time>2013-06-30T13:49:28Z</time>
      </trkpt>
      <trkpt lat="47.645865334197879" lon="11.908356500789523">
        <ele>1303.68505859375</ele>
        <time>2013-06-30T13:49:29Z</time>
      </trkpt>
      <trkpt lat="47.645840859040618" lon="11.908476948738098">
        <ele>1305.126953125</ele>
        <time>2013-06-30T13:49:36Z</time>
      </trkpt>
      <trkpt lat="47.645797189325094" lon="11.90864559262991">
        <ele>1306.088134765625</ele>
        <time>2013-06-30T13:49:44Z</time>
      </trkpt>
      <trkpt lat="47.645749161019921" lon="11.908800741657615">
        <ele>1307.049560546875</ele>
        <time>2013-06-30T13:49:51Z</time>
      </trkpt>
      <trkpt lat="47.645729882642627" lon="11.908868467435241">
        <ele>1308.01123046875</ele>
        <time>2013-06-30T13:49:54Z</time>
      </trkpt>
      <trkpt lat="47.645694175735116" lon="11.909023700281978">
        <ele>1308.01123046875</ele>
        <time>2013-06-30T13:50:01Z</time>
      </trkpt>
      <trkpt lat="47.645711274817586" lon="11.909212712198496">
        <ele>1310.414306640625</ele>
        <time>2013-06-30T13:50:11Z</time>
      </trkpt>
      <trkpt lat="47.645709095522761" lon="11.909341122955084">
        <ele>1312.3369140625</ele>
        <time>2013-06-30T13:50:18Z</time>
      </trkpt>
      <trkpt lat="47.645706497132778" lon="11.909363586455584">
        <ele>1312.3369140625</ele>
        <time>2013-06-30T13:50:19Z</time>
      </trkpt>
      <trkpt lat="47.645708676427603" lon="11.909450925886631">
        <ele>1313.29833984375</ele>
        <time>2013-06-30T13:50:28Z</time>
      </trkpt>
      <trkpt lat="47.645687470212579" lon="11.909456290304661">
        <ele>1314.259521484375</ele>
        <time>2013-06-30T13:50:50Z</time>
      </trkpt>
      <trkpt lat="47.645663833245635" lon="11.909480933099985">
        <ele>1313.77880859375</ele>
        <time>2013-06-30T13:51:35Z</time>
      </trkpt>
      <trkpt lat="47.645696522668004" lon="11.90955888479948">
        <ele>1314.259521484375</ele>
        <time>2013-06-30T13:51:44Z</time>
      </trkpt>
      <trkpt lat="47.645710604265332" lon="11.909595848992467">
        <ele>1314.740234375</ele>
        <time>2013-06-30T13:51:46Z</time>
      </trkpt>
      <trkpt lat="47.645775228738785" lon="11.909701712429523">
        <ele>1316.18212890625</ele>
        <time>2013-06-30T13:51:53Z</time>
      </trkpt>
      <trkpt lat="47.645784951746464" lon="11.909711016342044">
        <ele>1316.662841796875</ele>
        <time>2013-06-30T13:51:54Z</time>
      </trkpt>
      <trkpt lat="47.645844211801887" lon="11.909848814830184">
        <ele>1317.1435546875</ele>
        <time>2013-06-30T13:52:02Z</time>
      </trkpt>
      <trkpt lat="47.645864496007562" lon="11.909911092370749">
        <ele>1318.104736328125</ele>
        <time>2013-06-30T13:52:05Z</time>
      </trkpt>
      <trkpt lat="47.645948817953467" lon="11.910016117617488">
        <ele>1318.58544921875</ele>
        <time>2013-06-30T13:52:10Z</time>
      </trkpt>
      <trkpt lat="47.646025931462646" lon="11.910174787044525">
        <ele>1320.02734375</ele>
        <time>2013-06-30T13:52:18Z</time>
      </trkpt>
      <trkpt lat="47.646080832928419" lon="11.910279728472233">
        <ele>1320.98876953125</ele>
        <time>2013-06-30T13:52:24Z</time>
      </trkpt>
      <trkpt lat="47.6461077388376" lon="11.910398416221142">
        <ele>1321.949951171875</ele>
        <time>2013-06-30T13:52:31Z</time>
      </trkpt>
      <trkpt lat="47.646141434088349" lon="11.9104921258986">
        <ele>1322.911376953125</ele>
        <time>2013-06-30T13:52:37Z</time>
      </trkpt>
      <trkpt lat="47.646180661395192" lon="11.91065875813365">
        <ele>1325.314697265625</ele>
        <time>2013-06-30T13:52:45Z</time>
      </trkpt>
      <trkpt lat="47.646201113238931" lon="11.910730423405766">
        <ele>1325.79541015625</ele>
        <time>2013-06-30T13:52:48Z</time>
      </trkpt>
      <trkpt lat="47.646215781569481" lon="11.910898061469197">
        <ele>1327.237548828125</ele>
        <time>2013-06-30T13:52:55Z</time>
      </trkpt>
      <trkpt lat="47.646195665001869" lon="11.9110291544348">
        <ele>1328.19873046875</ele>
        <time>2013-06-30T13:53:01Z</time>
      </trkpt>
      <trkpt lat="47.646154845133424" lon="11.911113727837801">
        <ele>1329.640625</ele>
        <time>2013-06-30T13:53:06Z</time>
      </trkpt>
      <trkpt lat="47.646144283935428" lon="11.911205425858498">
        <ele>1330.60205078125</ele>
        <time>2013-06-30T13:53:16Z</time>
      </trkpt>
      <trkpt lat="47.646121485158801" lon="11.911326544359326">
        <ele>1333.005126953125</ele>
        <time>2013-06-30T13:53:27Z</time>
      </trkpt>
      <trkpt lat="47.646108409389853" lon="11.911541959270835">
        <ele>1334.927978515625</ele>
        <time>2013-06-30T13:53:38Z</time>
      </trkpt>
      <trkpt lat="47.646127687767148" lon="11.911652851849794">
        <ele>1336.369873046875</ele>
        <time>2013-06-30T13:53:44Z</time>
      </trkpt>
      <trkpt lat="47.64612777158618" lon="11.911786627024412">
        <ele>1337.811767578125</ele>
        <time>2013-06-30T13:53:52Z</time>
      </trkpt>
      <trkpt lat="47.64610530808568" lon="11.911866506561637">
        <ele>1339.253662109375</ele>
        <time>2013-06-30T13:53:58Z</time>
      </trkpt>
      <trkpt lat="47.646073792129755" lon="11.912008579820395">
        <ele>1340.69580078125</ele>
        <time>2013-06-30T13:54:07Z</time>
      </trkpt>
      <trkpt lat="47.6460852753371" lon="11.912088459357619">
        <ele>1342.137939453125</ele>
        <time>2013-06-30T13:54:13Z</time>
      </trkpt>
      <trkpt lat="47.646075133234262" lon="11.912176553159952">
        <ele>1343.09912109375</ele>
        <time>2013-06-30T13:54:20Z</time>
      </trkpt>
      <trkpt lat="47.646074462682009" lon="11.912268754094839">
        <ele>1345.021728515625</ele>
        <time>2013-06-30T13:54:27Z</time>
      </trkpt>
      <trkpt lat="47.646098267287016" lon="11.912408145144582">
        <ele>1346.9443359375</ele>
        <time>2013-06-30T13:54:37Z</time>
      </trkpt>
      <trkpt lat="47.646089969202876" lon="11.912508476525545">
        <ele>1348.866943359375</ele>
        <time>2013-06-30T13:54:44Z</time>
      </trkpt>
      <trkpt lat="47.646090975031257" lon="11.912591373547912">
        <ele>1348.866943359375</ele>
        <time>2013-06-30T13:54:50Z</time>
      </trkpt>
      <trkpt lat="47.646110756322742" lon="11.912730764597654">
        <ele>1351.7509765625</ele>
        <time>2013-06-30T13:55:00Z</time>
      </trkpt>
      <trkpt lat="47.646118300035596" lon="11.91282874904573">
        <ele>1353.19287109375</ele>
        <time>2013-06-30T13:55:08Z</time>
      </trkpt>
      <trkpt lat="47.646161718294024" lon="11.912924638018012">
        <ele>1354.634765625</ele>
        <time>2013-06-30T13:55:16Z</time>
      </trkpt>
      <trkpt lat="47.646160796284676" lon="11.912975516170263">
        <ele>1356.076904296875</ele>
        <time>2013-06-30T13:55:20Z</time>
      </trkpt>
      <trkpt lat="47.646148558706045" lon="11.913103340193629">
        <ele>1358.9609375</ele>
        <time>2013-06-30T13:55:31Z</time>
      </trkpt>
      <trkpt lat="47.64615417458117" lon="11.913110297173262">
        <ele>1359.441650390625</ele>
        <time>2013-06-30T13:55:32Z</time>
      </trkpt>
      <trkpt lat="47.646214189007878" lon="11.913182130083442">
        <ele>1360.883544921875</ele>
        <time>2013-06-30T13:55:41Z</time>
      </trkpt>
      <trkpt lat="47.646285183727741" lon="11.913248179480433">
        <ele>1361.844970703125</ele>
        <time>2013-06-30T13:55:51Z</time>
      </trkpt>
      <trkpt lat="47.646320890635252" lon="11.913285227492452">
        <ele>1362.325439453125</ele>
        <time>2013-06-30T13:55:57Z</time>
      </trkpt>
      <trkpt lat="47.646282417699695" lon="11.913401735946536">
        <ele>1363.286865234375</ele>
        <time>2013-06-30T13:56:07Z</time>
      </trkpt>
      <trkpt lat="47.646247884258628" lon="11.913445489481091">
        <ele>1363.286865234375</ele>
        <time>2013-06-30T13:56:15Z</time>
      </trkpt>
      <trkpt lat="47.646143194288015" lon="11.913610864430666">
        <ele>1364.248046875</ele>
        <time>2013-06-30T13:56:23Z</time>
      </trkpt>
      <trkpt lat="47.646029787138104" lon="11.913788141682744">
        <ele>1364.728759765625</ele>
        <time>2013-06-30T13:56:30Z</time>
      </trkpt>
      <trkpt lat="47.645969772711396" lon="11.913866512477398">
        <ele>1363.767333984375</ele>
        <time>2013-06-30T13:56:33Z</time>
      </trkpt>
      <trkpt lat="47.645850582048297" lon="11.914072120562196">
        <ele>1361.3642578125</ele>
        <time>2013-06-30T13:56:37Z</time>
      </trkpt>
      <trkpt lat="47.645675484091043" lon="11.914334474131465">
        <ele>1361.844970703125</ele>
        <time>2013-06-30T13:56:40Z</time>
      </trkpt>
      <trkpt lat="47.645572638139129" lon="11.914450563490391">
        <ele>1362.80615234375</ele>
        <time>2013-06-30T13:56:44Z</time>
      </trkpt>
      <trkpt lat="47.645516395568848" lon="11.914523988962173">
        <ele>1364.248046875</ele>
        <time>2013-06-30T13:56:47Z</time>
      </trkpt>
      <trkpt lat="47.645495273172855" lon="11.914567407220602">
        <ele>1365.20947265625</ele>
        <time>2013-06-30T13:56:54Z</time>
      </trkpt>
      <trkpt lat="47.645475408062339" lon="11.914548128843307">
        <ele>1364.728759765625</ele>
        <time>2013-06-30T13:57:06Z</time>
      </trkpt>
      <trkpt lat="47.645497117191553" lon="11.914582075551152">
        <ele>1365.20947265625</ele>
        <time>2013-06-30T13:57:18Z</time>
      </trkpt>
      <trkpt lat="47.645507175475359" lon="11.914618453010917">
        <ele>1366.170654296875</ele>
        <time>2013-06-30T13:57:25Z</time>
      </trkpt>
      <trkpt lat="47.64550575055182" lon="11.914832862094045">
        <ele>1367.132080078125</ele>
        <time>2013-06-30T13:57:34Z</time>
      </trkpt>
      <trkpt lat="47.645452693104744" lon="11.915049534291029">
        <ele>1369.0546875</ele>
        <time>2013-06-30T13:57:44Z</time>
      </trkpt>
      <trkpt lat="47.645407682284713" lon="11.915139220654964">
        <ele>1370.015869140625</ele>
        <time>2013-06-30T13:57:50Z</time>
      </trkpt>
      <trkpt lat="47.645401647314429" lon="11.915204850956798">
        <ele>1370.977294921875</ele>
        <time>2013-06-30T13:57:57Z</time>
      </trkpt>
      <trkpt lat="47.64540608972311" lon="11.915197223424911">
        <ele>1370.977294921875</ele>
        <time>2013-06-30T13:58:06Z</time>
      </trkpt>
      <trkpt lat="47.645367616787553" lon="11.915297135710716">
        <ele>1371.9384765625</ele>
        <time>2013-06-30T13:58:13Z</time>
      </trkpt>
      <trkpt lat="47.645334172993898" lon="11.915423786267638">
        <ele>1373.380859375</ele>
        <time>2013-06-30T13:58:20Z</time>
      </trkpt>
      <trkpt lat="47.645300896838307" lon="11.915588909760118">
        <ele>1375.783935546875</ele>
        <time>2013-06-30T13:58:29Z</time>
      </trkpt>
      <trkpt lat="47.645227303728461" lon="11.915682451799512">
        <ele>1376.745361328125</ele>
        <time>2013-06-30T13:58:34Z</time>
      </trkpt>
      <trkpt lat="47.645198134705424" lon="11.91572536714375">
        <ele>1376.745361328125</ele>
        <time>2013-06-30T13:58:36Z</time>
      </trkpt>
      <trkpt lat="47.645150609314442" lon="11.915817903354764">
        <ele>1377.22607421875</ele>
        <time>2013-06-30T13:58:40Z</time>
      </trkpt>
      <trkpt lat="47.645137365907431" lon="11.915927538648248">
        <ele>1378.66796875</ele>
        <time>2013-06-30T13:58:47Z</time>
      </trkpt>
      <trkpt lat="47.645081458613276" lon="11.916095092892647">
        <ele>1380.590576171875</ele>
        <time>2013-06-30T13:58:57Z</time>
      </trkpt>
      <trkpt lat="47.645031586289406" lon="11.916215373203158">
        <ele>1382.032470703125</ele>
        <time>2013-06-30T13:59:03Z</time>
      </trkpt>
      <trkpt lat="47.644992861896753" lon="11.916312016546726">
        <ele>1382.99365234375</ele>
        <time>2013-06-30T13:59:07Z</time>
      </trkpt>
      <trkpt lat="47.644884064793587" lon="11.916472865268588">
        <ele>1384.435791015625</ele>
        <time>2013-06-30T13:59:16Z</time>
      </trkpt>
      <trkpt lat="47.644793707877398" lon="11.91658484749496">
        <ele>1385.877685546875</ele>
        <time>2013-06-30T13:59:26Z</time>
      </trkpt>
      <trkpt lat="47.644688682630658" lon="11.91671191714704">
        <ele>1386.3583984375</ele>
        <time>2013-06-30T13:59:36Z</time>
      </trkpt>
      <trkpt lat="47.644627327099442" lon="11.916839154437184">
        <ele>1387.80029296875</ele>
        <time>2013-06-30T13:59:41Z</time>
      </trkpt>
      <trkpt lat="47.644554572179914" lon="11.91693764179945">
        <ele>1389.72314453125</ele>
        <time>2013-06-30T13:59:49Z</time>
      </trkpt>
      <trkpt lat="47.644497659057379" lon="11.917067477479577">
        <ele>1391.645751953125</ele>
        <time>2013-06-30T13:59:57Z</time>
      </trkpt>
      <trkpt lat="47.644471004605293" lon="11.917162612080574">
        <ele>1393.087646484375</ele>
        <time>2013-06-30T14:00:03Z</time>
      </trkpt>
      <trkpt lat="47.644445523619652" lon="11.917180381715298">
        <ele>1392.607177734375</ele>
        <time>2013-06-30T14:00:05Z</time>
      </trkpt>
      <trkpt lat="47.644296325743198" lon="11.917188847437501">
        <ele>1393.568359375</ele>
        <time>2013-06-30T14:00:12Z</time>
      </trkpt>
      <trkpt lat="47.644227426499128" lon="11.917169652879238">
        <ele>1395.01025390625</ele>
        <time>2013-06-30T14:00:17Z</time>
      </trkpt>
      <trkpt lat="47.644202867522836" lon="11.917158085852861">
        <ele>1394.529541015625</ele>
        <time>2013-06-30T14:00:19Z</time>
      </trkpt>
      <trkpt lat="47.644099937751889" lon="11.917119193822145">
        <ele>1395.9716796875</ele>
        <time>2013-06-30T14:00:26Z</time>
      </trkpt>
      <trkpt lat="47.644085688516498" lon="11.917113661766052">
        <ele>1395.9716796875</ele>
        <time>2013-06-30T14:00:27Z</time>
      </trkpt>
      <trkpt lat="47.643966246396303" lon="11.917025987058878">
        <ele>1397.41357421875</ele>
        <time>2013-06-30T14:00:37Z</time>
      </trkpt>
      <trkpt lat="47.643941352143884" lon="11.917002098634839">
        <ele>1398.374755859375</ele>
        <time>2013-06-30T14:00:39Z</time>
      </trkpt>
      <trkpt lat="47.643846217542887" lon="11.916938312351704">
        <ele>1399.336181640625</ele>
        <time>2013-06-30T14:00:46Z</time>
      </trkpt>
      <trkpt lat="47.643820401281118" lon="11.916918950155377">
        <ele>1399.81689453125</ele>
        <time>2013-06-30T14:00:48Z</time>
      </trkpt>
      <trkpt lat="47.643781006336212" lon="11.916891289874911">
        <ele>1400.297607421875</ele>
        <time>2013-06-30T14:00:51Z</time>
      </trkpt>
      <trkpt lat="47.643730379641056" lon="11.916856085881591">
        <ele>1401.2587890625</ele>
        <time>2013-06-30T14:00:55Z</time>
      </trkpt>
      <trkpt lat="47.643640022724867" lon="11.916794311255217">
        <ele>1402.70068359375</ele>
        <time>2013-06-30T14:01:02Z</time>
      </trkpt>
      <trkpt lat="47.643615379929543" lon="11.916776960715652">
        <ele>1403.181396484375</ele>
        <time>2013-06-30T14:01:04Z</time>
      </trkpt>
      <trkpt lat="47.643558215349913" lon="11.916755419224501">
        <ele>1404.14306640625</ele>
        <time>2013-06-30T14:01:08Z</time>
      </trkpt>
      <trkpt lat="47.643501218408346" lon="11.916692554950714">
        <ele>1405.5849609375</ele>
        <time>2013-06-30T14:01:13Z</time>
      </trkpt>
      <trkpt lat="47.643390409648418" lon="11.916530700400472">
        <ele>1407.507568359375</ele>
        <time>2013-06-30T14:01:27Z</time>
      </trkpt>
      <trkpt lat="47.64335629530251" lon="11.916515277698636">
        <ele>1408.46875</ele>
        <time>2013-06-30T14:01:32Z</time>
      </trkpt>
      <trkpt lat="47.643305752426386" lon="11.916583841666579">
        <ele>1409.91064453125</ele>
        <time>2013-06-30T14:01:37Z</time>
      </trkpt>
      <trkpt lat="47.643245737999678" lon="11.916808895766735">
        <ele>1409.91064453125</ele>
        <time>2013-06-30T14:01:47Z</time>
      </trkpt>
      <trkpt lat="47.643172396346927" lon="11.917107375338674">
        <ele>1409.43017578125</ele>
        <time>2013-06-30T14:01:56Z</time>
      </trkpt>
      <trkpt lat="47.643174575641751" lon="11.917483303695917">
        <ele>1410.391357421875</ele>
        <time>2013-06-30T14:02:04Z</time>
      </trkpt>
      <trkpt lat="47.643177174031734" lon="11.917787650600076">
        <ele>1409.43017578125</ele>
        <time>2013-06-30T14:02:10Z</time>
      </trkpt>
      <trkpt lat="47.643182538449764" lon="11.917913043871522">
        <ele>1408.46875</ele>
        <time>2013-06-30T14:02:12Z</time>
      </trkpt>
      <trkpt lat="47.643148843199015" lon="11.918242536485195">
        <ele>1407.02685546875</ele>
        <time>2013-06-30T14:02:16Z</time>
      </trkpt>
      <trkpt lat="47.643110118806362" lon="11.918455269187689">
        <ele>1405.5849609375</ele>
        <time>2013-06-30T14:02:18Z</time>
      </trkpt>
      <trkpt lat="47.643095618113875" lon="11.918729608878493">
        <ele>1405.5849609375</ele>
        <time>2013-06-30T14:02:21Z</time>
      </trkpt>
      <trkpt lat="47.643120847642422" lon="11.919152811169624">
        <ele>1406.0654296875</ele>
        <time>2013-06-30T14:02:26Z</time>
      </trkpt>
      <trkpt lat="47.643076088279486" lon="11.919518932700157">
        <ele>1408.46875</ele>
        <time>2013-06-30T14:02:33Z</time>
      </trkpt>
      <trkpt lat="47.643028814345598" lon="11.919660922139883">
        <ele>1408.949462890625</ele>
        <time>2013-06-30T14:02:37Z</time>
      </trkpt>
      <trkpt lat="47.643012637272477" lon="11.919783549383283">
        <ele>1408.949462890625</ele>
        <time>2013-06-30T14:02:42Z</time>
      </trkpt>
      <trkpt lat="47.642972907051444" lon="11.919829482212663">
        <ele>1409.91064453125</ele>
        <time>2013-06-30T14:02:45Z</time>
      </trkpt>
      <trkpt lat="47.64293409883976" lon="11.920029558241367">
        <ele>1411.352783203125</ele>
        <time>2013-06-30T14:02:52Z</time>
      </trkpt>
      <trkpt lat="47.642941307276487" lon="11.920189820230007">
        <ele>1413.275390625</ele>
        <time>2013-06-30T14:02:59Z</time>
      </trkpt>
      <trkpt lat="47.642984474077821" lon="11.920089907944202">
        <ele>1415.6787109375</ele>
        <time>2013-06-30T14:03:11Z</time>
      </trkpt>
      <trkpt lat="47.643004758283496" lon="11.919977674260736">
        <ele>1417.12060546875</ele>
        <time>2013-06-30T14:03:19Z</time>
      </trkpt>
      <trkpt lat="47.643010038882494" lon="11.919966023415327">
        <ele>1417.12060546875</ele>
        <time>2013-06-30T14:03:20Z</time>
      </trkpt>
      <trkpt lat="47.643032837659121" lon="11.919924281537533">
        <ele>1418.081787109375</ele>
        <time>2013-06-30T14:03:24Z</time>
      </trkpt>
      <trkpt lat="47.643051194027066" lon="11.919965436682105">
        <ele>1418.081787109375</ele>
        <time>2013-06-30T14:03:30Z</time>
      </trkpt>
      <trkpt lat="47.643086900934577" lon="11.919904416427016">
        <ele>1419.52392578125</ele>
        <time>2013-06-30T14:03:38Z</time>
      </trkpt>
      <trkpt lat="47.643137946724892" lon="11.919753374531865">
        <ele>1421.446533203125</ele>
        <time>2013-06-30T14:03:47Z</time>
      </trkpt>
      <trkpt lat="47.643165187910199" lon="11.919662933796644">
        <ele>1423.369384765625</ele>
        <time>2013-06-30T14:03:54Z</time>
      </trkpt>
      <trkpt lat="47.643191171810031" lon="11.919539636000991">
        <ele>1425.291748046875</ele>
        <time>2013-06-30T14:04:04Z</time>
      </trkpt>
      <trkpt lat="47.643233332782984" lon="11.919397059828043">
        <ele>1427.695068359375</ele>
        <time>2013-06-30T14:04:13Z</time>
      </trkpt>
      <trkpt lat="47.643234841525555" lon="11.919312570244074">
        <ele>1429.61767578125</ele>
        <time>2013-06-30T14:04:22Z</time>
      </trkpt>
      <trkpt lat="47.643259987235069" lon="11.919233025982976">
        <ele>1430.098388671875</ele>
        <time>2013-06-30T14:04:28Z</time>
      </trkpt>
      <trkpt lat="47.643270883709192" lon="11.919157421216369">
        <ele>1431.059814453125</ele>
        <time>2013-06-30T14:04:39Z</time>
      </trkpt>
      <trkpt lat="47.643304746598005" lon="11.919102938845754">
        <ele>1432.02099609375</ele>
        <time>2013-06-30T14:04:45Z</time>
      </trkpt>
      <trkpt lat="47.643361994996667" lon="11.918961787596345">
        <ele>1433.462890625</ele>
        <time>2013-06-30T14:04:54Z</time>
      </trkpt>
      <trkpt lat="47.643377166241407" lon="11.918877800926566">
        <ele>1434.905029296875</ele>
        <time>2013-06-30T14:05:02Z</time>
      </trkpt>
      <trkpt lat="47.643406167626381" lon="11.918793059885502">
        <ele>1436.34716796875</ele>
        <time>2013-06-30T14:05:10Z</time>
      </trkpt>
      <trkpt lat="47.643450172618032" lon="11.918650148436427">
        <ele>1438.269775390625</ele>
        <time>2013-06-30T14:05:20Z</time>
      </trkpt>
      <trkpt lat="47.64347012154758" lon="11.9185755494982">
        <ele>1439.23095703125</ele>
        <time>2013-06-30T14:05:26Z</time>
      </trkpt>
      <trkpt lat="47.643520329147577" lon="11.91842065192759">
        <ele>1441.153564453125</ele>
        <time>2013-06-30T14:05:36Z</time>
      </trkpt>
      <trkpt lat="47.64353902079165" lon="11.91828872077167">
        <ele>1442.595703125</ele>
        <time>2013-06-30T14:05:46Z</time>
      </trkpt>
      <trkpt lat="47.643588641658425" lon="11.918160477653146">
        <ele>1445.4794921875</ele>
        <time>2013-06-30T14:05:55Z</time>
      </trkpt>
      <trkpt lat="47.643647398799658" lon="11.918073808774352">
        <ele>1446.44091796875</ele>
        <time>2013-06-30T14:06:04Z</time>
      </trkpt>
      <trkpt lat="47.643672544509172" lon="11.918039191514254">
        <ele>1446.92138671875</ele>
        <time>2013-06-30T14:06:07Z</time>
      </trkpt>
      <trkpt lat="47.643740270286798" lon="11.91797548905015">
        <ele>1448.36328125</ele>
        <time>2013-06-30T14:06:12Z</time>
      </trkpt>
      <trkpt lat="47.643823502585292" lon="11.918022176250815">
        <ele>1449.32470703125</ele>
        <time>2013-06-30T14:06:20Z</time>
      </trkpt>
      <trkpt lat="47.643878906965256" lon="11.918102726340294">
        <ele>1450.2861328125</ele>
        <time>2013-06-30T14:06:26Z</time>
      </trkpt>
      <trkpt lat="47.643922995775938" lon="11.918158968910575">
        <ele>1451.72802734375</ele>
        <time>2013-06-30T14:06:29Z</time>
      </trkpt>
      <trkpt lat="47.643922157585621" lon="11.918211607262492">
        <ele>1451.72802734375</ele>
        <time>2013-06-30T14:06:32Z</time>
      </trkpt>
      <trkpt lat="47.643895000219345" lon="11.918315794318914">
        <ele>1452.208740234375</ele>
        <time>2013-06-30T14:06:42Z</time>
      </trkpt>
      <trkpt lat="47.643879493698478" lon="11.918315710499883">
        <ele>1452.689453125</ele>
        <time>2013-06-30T14:06:48Z</time>
      </trkpt>
      <trkpt lat="47.64384931884706" lon="11.918480079621077">
        <ele>1454.131591796875</ele>
        <time>2013-06-30T14:06:57Z</time>
      </trkpt>
      <trkpt lat="47.643842361867428" lon="11.918520983308554">
        <ele>1454.131591796875</ele>
        <time>2013-06-30T14:06:59Z</time>
      </trkpt>
      <trkpt lat="47.643832052126527" lon="11.918683927506208">
        <ele>1456.53466796875</ele>
        <time>2013-06-30T14:07:07Z</time>
      </trkpt>
      <trkpt lat="47.64382291585207" lon="11.918755089864135">
        <ele>1457.015380859375</ele>
        <time>2013-06-30T14:07:11Z</time>
      </trkpt>
      <trkpt lat="47.643820736557245" lon="11.918789455667138">
        <ele>1457.976806640625</ele>
        <time>2013-06-30T14:07:13Z</time>
      </trkpt>
      <trkpt lat="47.643821742385626" lon="11.918942257761955">
        <ele>1460.3798828125</ele>
        <time>2013-06-30T14:07:21Z</time>
      </trkpt>
      <trkpt lat="47.643837248906493" lon="11.919078715145588">
        <ele>1461.34130859375</ele>
        <time>2013-06-30T14:07:29Z</time>
      </trkpt>
      <trkpt lat="47.643834063783288" lon="11.919134119525552">
        <ele>1462.302490234375</ele>
        <time>2013-06-30T14:07:36Z</time>
      </trkpt>
      <trkpt lat="47.643863819539547" lon="11.919224727898836">
        <ele>1464.22509765625</ele>
        <time>2013-06-30T14:07:43Z</time>
      </trkpt>
      <trkpt lat="47.643864573910832" lon="11.919398149475455">
        <ele>1466.147705078125</ele>
        <time>2013-06-30T14:07:55Z</time>
      </trkpt>
      <trkpt lat="47.643888294696808" lon="11.919536199420691">
        <ele>1469.031982421875</ele>
        <time>2013-06-30T14:08:05Z</time>
      </trkpt>
      <trkpt lat="47.643923414871097" lon="11.91974775865674">
        <ele>1472.396484375</ele>
        <time>2013-06-30T14:08:20Z</time>
      </trkpt>
      <trkpt lat="47.643949901685119" lon="11.919922856613994">
        <ele>1474.7998046875</ele>
        <time>2013-06-30T14:08:33Z</time>
      </trkpt>
      <trkpt lat="47.643954679369926" lon="11.920013297349215">
        <ele>1476.24169921875</ele>
        <time>2013-06-30T14:08:40Z</time>
      </trkpt>
      <trkpt lat="47.643955769017339" lon="11.920056212693453">
        <ele>1477.203125</ele>
        <time>2013-06-30T14:08:43Z</time>
      </trkpt>
      <trkpt lat="47.643931545317173" lon="11.920196693390608">
        <ele>1478.64501953125</ele>
        <time>2013-06-30T14:08:51Z</time>
      </trkpt>
      <trkpt lat="47.643958618864417" lon="11.920378245413303">
        <ele>1481.04833984375</ele>
        <time>2013-06-30T14:09:02Z</time>
      </trkpt>
      <trkpt lat="47.643963312730193" lon="11.920436415821314">
        <ele>1481.52880859375</ele>
        <time>2013-06-30T14:09:06Z</time>
      </trkpt>
      <trkpt lat="47.64395534992218" lon="11.920529203489423">
        <ele>1482.970703125</ele>
        <time>2013-06-30T14:09:12Z</time>
      </trkpt>
      <trkpt lat="47.643953422084451" lon="11.920689381659031">
        <ele>1484.893798828125</ele>
        <time>2013-06-30T14:09:23Z</time>
      </trkpt>
      <trkpt lat="47.643941100686789" lon="11.920827934518456">
        <ele>1487.296875</ele>
        <time>2013-06-30T14:09:33Z</time>
      </trkpt>
      <trkpt lat="47.643914949148893" lon="11.920975623652339">
        <ele>1489.219482421875</ele>
        <time>2013-06-30T14:09:43Z</time>
      </trkpt>
      <trkpt lat="47.643886869773269" lon="11.921156505122781">
        <ele>1491.622802734375</ele>
        <time>2013-06-30T14:09:55Z</time>
      </trkpt>
      <trkpt lat="47.643895335495472" lon="11.921330764889717">
        <ele>1494.9873046875</ele>
        <time>2013-06-30T14:10:08Z</time>
      </trkpt>
      <trkpt lat="47.643895335495472" lon="11.921399747952819">
        <ele>1495.468017578125</ele>
        <time>2013-06-30T14:10:17Z</time>
      </trkpt>
      <trkpt lat="47.643915032967925" lon="11.921578114852309">
        <ele>1499.313232421875</ele>
        <time>2013-06-30T14:10:31Z</time>
      </trkpt>
      <trkpt lat="47.64392064884305" lon="11.921625137329102">
        <ele>1499.313232421875</ele>
        <time>2013-06-30T14:10:35Z</time>
      </trkpt>
      <trkpt lat="47.643950153142214" lon="11.921748099848628">
        <ele>1501.236083984375</ele>
        <time>2013-06-30T14:10:46Z</time>
      </trkpt>
      <trkpt lat="47.643979489803314" lon="11.9218376185745">
        <ele>1503.15869140625</ele>
        <time>2013-06-30T14:10:54Z</time>
      </trkpt>
      <trkpt lat="47.643991308286786" lon="11.921893861144781">
        <ele>1504.6005859375</ele>
        <time>2013-06-30T14:11:03Z</time>
      </trkpt>
      <trkpt lat="47.644013520330191" lon="11.921952869743109">
        <ele>1505.56201171875</ele>
        <time>2013-06-30T14:11:15Z</time>
      </trkpt>
      <trkpt lat="47.644053418189287" lon="11.922180186957121">
        <ele>1508.926513671875</ele>
        <time>2013-06-30T14:11:30Z</time>
      </trkpt>
      <trkpt lat="47.644084095954895" lon="11.922295270487666">
        <ele>1510.368408203125</ele>
        <time>2013-06-30T14:11:38Z</time>
      </trkpt>
      <trkpt lat="47.644088454544544" lon="11.922325361520052">
        <ele>1510.368408203125</ele>
        <time>2013-06-30T14:11:40Z</time>
      </trkpt>
      <trkpt lat="47.64410731382668" lon="11.922435248270631">
        <ele>1511.810546875</ele>
        <time>2013-06-30T14:11:47Z</time>
      </trkpt>
      <trkpt lat="47.644119719043374" lon="11.92256080918014">
        <ele>1513.25244140625</ele>
        <time>2013-06-30T14:11:55Z</time>
      </trkpt>
      <trkpt lat="47.644114354625344" lon="11.922732554376125">
        <ele>1515.65576171875</ele>
        <time>2013-06-30T14:12:07Z</time>
      </trkpt>
      <trkpt lat="47.64411904849112" lon="11.92286959849298">
        <ele>1518.05908203125</ele>
        <time>2013-06-30T14:12:17Z</time>
      </trkpt>
      <trkpt lat="47.644115947186947" lon="11.922915112227201">
        <ele>1519.0205078125</ele>
        <time>2013-06-30T14:12:27Z</time>
      </trkpt>
      <trkpt lat="47.644110666587949" lon="11.922928858548403">
        <ele>1519.501220703125</ele>
        <time>2013-06-30T14:12:32Z</time>
      </trkpt>
      <trkpt lat="47.644087616354227" lon="11.923005133867264">
        <ele>1521.423583984375</ele>
        <time>2013-06-30T14:12:38Z</time>
      </trkpt>
      <trkpt lat="47.644036486744881" lon="11.923107309266925">
        <ele>1523.346435546875</ele>
        <time>2013-06-30T14:12:48Z</time>
      </trkpt>
      <trkpt lat="47.643958032131195" lon="11.923214346170425">
        <ele>1525.268798828125</ele>
        <time>2013-06-30T14:12:57Z</time>
      </trkpt>
      <trkpt lat="47.643905561417341" lon="11.923272768035531">
        <ele>1525.74951171875</ele>
        <time>2013-06-30T14:13:05Z</time>
      </trkpt>
      <trkpt lat="47.643902627751231" lon="11.923338985070586">
        <ele>1527.672119140625</ele>
        <time>2013-06-30T14:13:26Z</time>
      </trkpt>
      <trkpt lat="47.64382584951818" lon="11.923396568745375">
        <ele>1529.114013671875</ele>
        <time>2013-06-30T14:13:34Z</time>
      </trkpt>
      <trkpt lat="47.643792321905494" lon="11.923422971740365">
        <ele>1530.55615234375</ele>
        <time>2013-06-30T14:13:37Z</time>
      </trkpt>
      <trkpt lat="47.643710179254413" lon="11.923456247895956">
        <ele>1531.517333984375</ele>
        <time>2013-06-30T14:13:45Z</time>
      </trkpt>
      <trkpt lat="47.64364748261869" lon="11.923524141311646">
        <ele>1533.440185546875</ele>
        <time>2013-06-30T14:13:53Z</time>
      </trkpt>
      <trkpt lat="47.643586546182632" lon="11.923603937029839">
        <ele>1535.843505859375</ele>
        <time>2013-06-30T14:14:02Z</time>
      </trkpt>
      <trkpt lat="47.64348822645843" lon="11.923699742183089">
        <ele>1537.76611328125</ele>
        <time>2013-06-30T14:14:12Z</time>
      </trkpt>
      <trkpt lat="47.643432151526213" lon="11.923770904541016">
        <ele>1539.2080078125</ele>
        <time>2013-06-30T14:14:18Z</time>
      </trkpt>
      <trkpt lat="47.643359815701842" lon="11.923865787684917">
        <ele>1541.130615234375</ele>
        <time>2013-06-30T14:14:28Z</time>
      </trkpt>
      <trkpt lat="47.643297957256436" lon="11.923938794061542">
        <ele>1542.57275390625</ele>
        <time>2013-06-30T14:14:36Z</time>
      </trkpt>
      <trkpt lat="47.643248252570629" lon="11.924013225361705">
        <ele>1544.4951171875</ele>
        <time>2013-06-30T14:14:43Z</time>
      </trkpt>
      <trkpt lat="47.64317742548883" lon="11.924135601148009">
        <ele>1547.379150390625</ele>
        <time>2013-06-30T14:14:55Z</time>
      </trkpt>
      <trkpt lat="47.64315789565444" lon="11.924184300005436">
        <ele>1547.379150390625</ele>
        <time>2013-06-30T14:15:05Z</time>
      </trkpt>
      <trkpt lat="47.643131325021386" lon="11.924228640273213">
        <ele>1548.340576171875</ele>
        <time>2013-06-30T14:15:15Z</time>
      </trkpt>
      <trkpt lat="47.643130235373974" lon="11.924231071025133">
        <ele>1547.85986328125</ele>
        <time>2013-06-30T14:15:27Z</time>
      </trkpt>
      <trkpt lat="47.64317256398499" lon="11.92420206964016">
        <ele>1548.340576171875</ele>
        <time>2013-06-30T14:15:36Z</time>
      </trkpt>
      <trkpt lat="47.643167367205024" lon="11.924197291955352">
        <ele>1547.85986328125</ele>
        <time>2013-06-30T14:15:43Z</time>
      </trkpt>
      <trkpt lat="47.643200308084488" lon="11.924182372167706">
        <ele>1547.85986328125</ele>
        <time>2013-06-30T14:15:47Z</time>
      </trkpt>
      <trkpt lat="47.643325617536902" lon="11.924094781279564">
        <ele>1550.743896484375</ele>
        <time>2013-06-30T14:15:57Z</time>
      </trkpt>
      <trkpt lat="47.643442628905177" lon="11.923991516232491">
        <ele>1552.185791015625</ele>
        <time>2013-06-30T14:16:07Z</time>
      </trkpt>
      <trkpt lat="47.643549665808678" lon="11.923974584788084">
        <ele>1553.147216796875</ele>
        <time>2013-06-30T14:16:15Z</time>
      </trkpt>
      <trkpt lat="47.643603561446071" lon="11.923948600888252">
        <ele>1553.6279296875</ele>
        <time>2013-06-30T14:16:19Z</time>
      </trkpt>
      <trkpt lat="47.643717052415013" lon="11.923871487379074">
        <ele>1554.589111328125</ele>
        <time>2013-06-30T14:16:27Z</time>
      </trkpt>
      <trkpt lat="47.643746724352241" lon="11.923854891210794">
        <ele>1555.06982421875</ele>
        <time>2013-06-30T14:16:29Z</time>
      </trkpt>
      <trkpt lat="47.643883852288127" lon="11.923797475174069">
        <ele>1556.031005859375</ele>
        <time>2013-06-30T14:16:38Z</time>
      </trkpt>
      <trkpt lat="47.644056770950556" lon="11.923712315037847">
        <ele>1556.992431640625</ele>
        <time>2013-06-30T14:16:48Z</time>
      </trkpt>
      <trkpt lat="47.644201861694455" lon="11.923674428835511">
        <ele>1558.9150390625</ele>
        <time>2013-06-30T14:16:57Z</time>
      </trkpt>
      <trkpt lat="47.644358854740858" lon="11.923621036112309">
        <ele>1560.837646484375</ele>
        <time>2013-06-30T14:17:08Z</time>
      </trkpt>
      <trkpt lat="47.644461113959551" lon="11.923583736643195">
        <ele>1562.279541015625</ele>
        <time>2013-06-30T14:17:16Z</time>
      </trkpt>
      <trkpt lat="47.644643001258373" lon="11.923577450215816">
        <ele>1565.64453125</ele>
        <time>2013-06-30T14:17:29Z</time>
      </trkpt>
      <trkpt lat="47.644792534410954" lon="11.923447111621499">
        <ele>1568.5283203125</ele>
        <time>2013-06-30T14:17:42Z</time>
      </trkpt>
      <trkpt lat="47.644888088107109" lon="11.923336554318666">
        <ele>1571.412109375</ele>
        <time>2013-06-30T14:17:51Z</time>
      </trkpt>
      <trkpt lat="47.644899152219296" lon="11.923329178243876">
        <ele>1571.412109375</ele>
        <time>2013-06-30T14:17:52Z</time>
      </trkpt>
      <trkpt lat="47.644975846633315" lon="11.923284670338035">
        <ele>1573.3349609375</ele>
        <time>2013-06-30T14:17:59Z</time>
      </trkpt>
      <trkpt lat="47.645046003162861" lon="11.923247119411826">
        <ele>1574.77685546875</ele>
        <time>2013-06-30T14:18:06Z</time>
      </trkpt>
      <trkpt lat="47.645178269594908" lon="11.923237480223179">
        <ele>1575.738037109375</ele>
        <time>2013-06-30T14:18:15Z</time>
      </trkpt>
      <trkpt lat="47.64535672031343" lon="11.923157181590796">
        <ele>1578.6220703125</ele>
        <time>2013-06-30T14:18:29Z</time>
      </trkpt>
      <trkpt lat="47.645486388355494" lon="11.923237396404147">
        <ele>1581.98681640625</ele>
        <time>2013-06-30T14:18:40Z</time>
      </trkpt>
      <trkpt lat="47.645547743886709" lon="11.923455242067575">
        <ele>1584.870849609375</ele>
        <time>2013-06-30T14:18:53Z</time>
      </trkpt>
      <trkpt lat="47.645554449409246" lon="11.923493798822165">
        <ele>1585.83203125</ele>
        <time>2013-06-30T14:18:59Z</time>
      </trkpt>
      <trkpt lat="47.645562663674355" lon="11.923596309497952">
        <ele>1587.27392578125</ele>
        <time>2013-06-30T14:19:08Z</time>
      </trkpt>
      <trkpt lat="47.645599879324436" lon="11.923624891787767">
        <ele>1588.2353515625</ele>
        <time>2013-06-30T14:19:13Z</time>
      </trkpt>
      <trkpt lat="47.645718567073345" lon="11.923552053049207">
        <ele>1591.119140625</ele>
        <time>2013-06-30T14:19:26Z</time>
      </trkpt>
      <trkpt lat="47.645732648670673" lon="11.923551131039858">
        <ele>1592.08056640625</ele>
        <time>2013-06-30T14:19:32Z</time>
      </trkpt>
      <trkpt lat="47.64572661370039" lon="11.923541994765401">
        <ele>1590.638427734375</ele>
        <time>2013-06-30T14:19:39Z</time>
      </trkpt>
      <trkpt lat="47.645745221525431" lon="11.923463707789779">
        <ele>1591.119140625</ele>
        <time>2013-06-30T14:19:48Z</time>
      </trkpt>
      <trkpt lat="47.645741952583194" lon="11.923556244000793">
        <ele>1591.599853515625</ele>
        <time>2013-06-30T14:19:57Z</time>
      </trkpt>
      <trkpt lat="47.645733403041959" lon="11.923557166010141">
        <ele>1591.599853515625</ele>
        <time>2013-06-30T14:20:18Z</time>
      </trkpt>
      <trkpt lat="47.645727451890707" lon="11.923522464931011">
        <ele>1591.119140625</ele>
        <time>2013-06-30T14:20:31Z</time>
      </trkpt>
      <trkpt lat="47.645741365849972" lon="11.923499833792448">
        <ele>1591.599853515625</ele>
        <time>2013-06-30T14:20:42Z</time>
      </trkpt>
      <trkpt lat="47.645743796601892" lon="11.923488769680262">
        <ele>1591.599853515625</ele>
        <time>2013-06-30T14:20:49Z</time>
      </trkpt>
      <trkpt lat="47.645748071372509" lon="11.923529673367739">
        <ele>1591.599853515625</ele>
        <time>2013-06-30T14:20:54Z</time>
      </trkpt>
      <trkpt lat="47.645783023908734" lon="11.923582563176751">
        <ele>1592.561279296875</ele>
        <time>2013-06-30T14:21:00Z</time>
      </trkpt>
      <trkpt lat="47.645856952294707" lon="11.923604439944029">
        <ele>1594.483642578125</ele>
        <time>2013-06-30T14:21:09Z</time>
      </trkpt>
      <trkpt lat="47.645952422171831" lon="11.923628076910973">
        <ele>1597.8486328125</ele>
        <time>2013-06-30T14:21:20Z</time>
      </trkpt>
      <trkpt lat="47.645961390808225" lon="11.923631681129336">
        <ele>1597.8486328125</ele>
        <time>2013-06-30T14:21:21Z</time>
      </trkpt>
      <trkpt lat="47.645978992804885" lon="11.923759756609797">
        <ele>1600.251953125</ele>
        <time>2013-06-30T14:21:31Z</time>
      </trkpt>
      <trkpt lat="47.645971868187189" lon="11.923769311979413">
        <ele>1600.251953125</ele>
        <time>2013-06-30T14:21:32Z</time>
      </trkpt>
      <trkpt lat="47.645887210965157" lon="11.923908870667219">
        <ele>1602.17431640625</ele>
        <time>2013-06-30T14:21:44Z</time>
      </trkpt>
      <trkpt lat="47.645874638110399" lon="11.924119424074888">
        <ele>1606.01953125</ele>
        <time>2013-06-30T14:21:58Z</time>
      </trkpt>
      <trkpt lat="47.64585074968636" lon="11.924341293051839">
        <ele>1608.4228515625</ele>
        <time>2013-06-30T14:22:13Z</time>
      </trkpt>
      <trkpt lat="47.645795093849301" lon="11.92454413510859">
        <ele>1610.345458984375</ele>
        <time>2013-06-30T14:22:26Z</time>
      </trkpt>
      <trkpt lat="47.645747903734446" lon="11.924676401540637">
        <ele>1612.268310546875</ele>
        <time>2013-06-30T14:22:37Z</time>
      </trkpt>
      <trkpt lat="47.645671544596553" lon="11.924841441214085">
        <ele>1614.671630859375</ele>
        <time>2013-06-30T14:22:50Z</time>
      </trkpt>
      <trkpt lat="47.645598454400897" lon="11.925006229430437">
        <ele>1617.555419921875</ele>
        <time>2013-06-30T14:23:03Z</time>
      </trkpt>
      <trkpt lat="47.645596694201231" lon="11.92521108314395">
        <ele>1620.439453125</ele>
        <time>2013-06-30T14:23:16Z</time>
      </trkpt>
      <trkpt lat="47.645579259842634" lon="11.925395652651787">
        <ele>1622.8427734375</ele>
        <time>2013-06-30T14:23:29Z</time>
      </trkpt>
      <trkpt lat="47.645608512684703" lon="11.925622299313545">
        <ele>1625.7265625</ele>
        <time>2013-06-30T14:23:44Z</time>
      </trkpt>
      <trkpt lat="47.645657462999225" lon="11.925810892134905">
        <ele>1629.09130859375</ele>
        <time>2013-06-30T14:23:58Z</time>
      </trkpt>
      <trkpt lat="47.645690320059657" lon="11.925925724208355">
        <ele>1630.533447265625</ele>
        <time>2013-06-30T14:24:09Z</time>
      </trkpt>
      <trkpt lat="47.645691409707069" lon="11.925937039777637">
        <ele>1631.01416015625</ele>
        <time>2013-06-30T14:24:20Z</time>
      </trkpt>
      <trkpt lat="47.645699372515082" lon="11.925979033112526">
        <ele>1631.975341796875</ele>
        <time>2013-06-30T14:24:30Z</time>
      </trkpt>
      <trkpt lat="47.645720494911075" lon="11.92606570199132">
        <ele>1632.9365234375</ele>
        <time>2013-06-30T14:24:39Z</time>
      </trkpt>
      <trkpt lat="47.645799368619919" lon="11.926194028928876">
        <ele>1635.33984375</ele>
        <time>2013-06-30T14:24:51Z</time>
      </trkpt>
      <trkpt lat="47.645892491564155" lon="11.926295785233378">
        <ele>1636.78173828125</ele>
        <time>2013-06-30T14:25:03Z</time>
      </trkpt>
      <trkpt lat="47.645975556224585" lon="11.926510697230697">
        <ele>1640.146484375</ele>
        <time>2013-06-30T14:25:19Z</time>
      </trkpt>
      <trkpt lat="47.64604713767767" lon="11.92666525952518">
        <ele>1642.069091796875</ele>
        <time>2013-06-30T14:25:32Z</time>
      </trkpt>
      <trkpt lat="47.646111426874995" lon="11.92676642909646">
        <ele>1643.510986328125</ele>
        <time>2013-06-30T14:25:44Z</time>
      </trkpt>
      <trkpt lat="47.646127603948116" lon="11.926812613382936">
        <ele>1643.99169921875</ele>
        <time>2013-06-30T14:26:22Z</time>
      </trkpt>
      <trkpt lat="47.646230617538095" lon="11.926941191777587">
        <ele>1645.91455078125</ele>
        <time>2013-06-30T14:26:34Z</time>
      </trkpt>
      <trkpt lat="47.646254589781165" lon="11.926972791552544">
        <ele>1645.91455078125</ele>
        <time>2013-06-30T14:26:42Z</time>
      </trkpt>
      <trkpt lat="47.646247800439596" lon="11.926976731047034">
        <ele>1646.875732421875</ele>
        <time>2013-06-30T14:26:54Z</time>
      </trkpt>
      <trkpt lat="47.646272610872984" lon="11.927000032737851">
        <ele>1647.3564453125</ele>
        <time>2013-06-30T14:27:01Z</time>
      </trkpt>
      <trkpt lat="47.646380318328738" lon="11.927155014127493">
        <ele>1649.759765625</ele>
        <time>2013-06-30T14:27:14Z</time>
      </trkpt>
      <trkpt lat="47.646462544798851" lon="11.927343523129821">
        <ele>1652.162841796875</ele>
        <time>2013-06-30T14:27:27Z</time>
      </trkpt>
      <trkpt lat="47.646489953622222" lon="11.927403537556529">
        <ele>1652.6435546875</ele>
        <time>2013-06-30T14:27:35Z</time>
      </trkpt>
      <trkpt lat="47.646492384374142" lon="11.927394568920135">
        <ele>1653.124267578125</ele>
        <time>2013-06-30T14:27:50Z</time>
      </trkpt>
      <trkpt lat="47.646507890895009" lon="11.927427593618631">
        <ele>1653.60498046875</ele>
        <time>2013-06-30T14:27:55Z</time>
      </trkpt>
      <trkpt lat="47.646591877564788" lon="11.927560949698091">
        <ele>1655.527587890625</ele>
        <time>2013-06-30T14:28:03Z</time>
      </trkpt>
      <trkpt lat="47.64667946845293" lon="11.927731353789568">
        <ele>1656.969482421875</ele>
        <time>2013-06-30T14:28:13Z</time>
      </trkpt>
      <trkpt lat="47.646790696308017" lon="11.927913324907422">
        <ele>1658.89208984375</ele>
        <time>2013-06-30T14:28:24Z</time>
      </trkpt>
      <trkpt lat="47.646906115114689" lon="11.928120274096727">
        <ele>1661.7763671875</ele>
        <time>2013-06-30T14:28:37Z</time>
      </trkpt>
      <trkpt lat="47.646956238895655" lon="11.92822253331542">
        <ele>1663.69873046875</ele>
        <time>2013-06-30T14:28:44Z</time>
      </trkpt>
      <trkpt lat="47.647017929702997" lon="11.928350105881691">
        <ele>1665.140869140625</ele>
        <time>2013-06-30T14:28:53Z</time>
      </trkpt>
      <trkpt lat="47.647059755399823" lon="11.928585385903716">
        <ele>1668.024658203125</ele>
        <time>2013-06-30T14:29:05Z</time>
      </trkpt>
      <trkpt lat="47.647092863917351" lon="11.928835501894355">
        <ele>1669.947265625</ele>
        <time>2013-06-30T14:29:18Z</time>
      </trkpt>
      <trkpt lat="47.647212138399482" lon="11.929028453305364">
        <ele>1672.3505859375</ele>
        <time>2013-06-30T14:29:32Z</time>
      </trkpt>
      <trkpt lat="47.647309619933367" lon="11.929154349491">
        <ele>1674.273193359375</ele>
        <time>2013-06-30T14:29:43Z</time>
      </trkpt>
      <trkpt lat="47.647354966029525" lon="11.929287370294333">
        <ele>1675.715087890625</ele>
        <time>2013-06-30T14:29:51Z</time>
      </trkpt>
      <trkpt lat="47.647313224151731" lon="11.929614013060927">
        <ele>1678.11865234375</ele>
        <time>2013-06-30T14:30:06Z</time>
      </trkpt>
      <trkpt lat="47.647277349606156" lon="11.929834960028529">
        <ele>1679.560546875</ele>
        <time>2013-06-30T14:30:17Z</time>
      </trkpt>
      <trkpt lat="47.647336944937706" lon="11.930077616125345">
        <ele>1681.483154296875</ele>
        <time>2013-06-30T14:30:30Z</time>
      </trkpt>
      <trkpt lat="47.647416908293962" lon="11.930208541452885">
        <ele>1683.40576171875</ele>
        <time>2013-06-30T14:30:39Z</time>
      </trkpt>
      <trkpt lat="47.647486394271255" lon="11.930338460952044">
        <ele>1683.886474609375</ele>
        <time>2013-06-30T14:30:48Z</time>
      </trkpt>
      <trkpt lat="47.647563759237528" lon="11.93051808513701">
        <ele>1685.80908203125</ele>
        <time>2013-06-30T14:30:59Z</time>
      </trkpt>
      <trkpt lat="47.647564429789782" lon="11.930695613846183">
        <ele>1688.693115234375</ele>
        <time>2013-06-30T14:31:08Z</time>
      </trkpt>
      <trkpt lat="47.647545654326677" lon="11.930960984900594">
        <ele>1689.654296875</ele>
        <time>2013-06-30T14:31:20Z</time>
      </trkpt>
      <trkpt lat="47.647574739530683" lon="11.931207831948996">
        <ele>1691.09619140625</ele>
        <time>2013-06-30T14:31:32Z</time>
      </trkpt>
      <trkpt lat="47.647618660703301" lon="11.931468760594726">
        <ele>1693.01904296875</ele>
        <time>2013-06-30T14:31:45Z</time>
      </trkpt>
      <trkpt lat="47.647687057033181" lon="11.931801186874509">
        <ele>1696.3837890625</ele>
        <time>2013-06-30T14:32:01Z</time>
      </trkpt>
      <trkpt lat="47.647746400907636" lon="11.932005537673831">
        <ele>1698.30615234375</ele>
        <time>2013-06-30T14:32:12Z</time>
      </trkpt>
      <trkpt lat="47.647836254909635" lon="11.932201087474823">
        <ele>1700.22900390625</ele>
        <time>2013-06-30T14:32:24Z</time>
      </trkpt>
      <trkpt lat="47.647823598235846" lon="11.932374006137252">
        <ele>1701.6708984375</ele>
        <time>2013-06-30T14:32:32Z</time>
      </trkpt>
      <trkpt lat="47.647789064794779" lon="11.932676425203681">
        <ele>1703.11279296875</ele>
        <time>2013-06-30T14:32:45Z</time>
      </trkpt>
      <trkpt lat="47.647786466404796" lon="11.932969791814685">
        <ele>1705.51611328125</ele>
        <time>2013-06-30T14:32:58Z</time>
      </trkpt>
      <trkpt lat="47.647772049531341" lon="11.933214124292135">
        <ele>1706.9580078125</ele>
        <time>2013-06-30T14:33:09Z</time>
      </trkpt>
      <trkpt lat="47.647738102823496" lon="11.93329744040966">
        <ele>1707.91943359375</ele>
        <time>2013-06-30T14:33:13Z</time>
      </trkpt>
      <trkpt lat="47.647694768384099" lon="11.933539677411318">
        <ele>1709.361572265625</ele>
        <time>2013-06-30T14:33:23Z</time>
      </trkpt>
      <trkpt lat="47.647604746744037" lon="11.933853244408965">
        <ele>1711.764892578125</ele>
        <time>2013-06-30T14:33:37Z</time>
      </trkpt>
      <trkpt lat="47.647585216909647" lon="11.934006465598941">
        <ele>1713.206787109375</ele>
        <time>2013-06-30T14:33:44Z</time>
      </trkpt>
      <trkpt lat="47.647546492516994" lon="11.93416815251112">
        <ele>1713.206787109375</ele>
        <time>2013-06-30T14:33:51Z</time>
      </trkpt>
      <trkpt lat="47.647497458383441" lon="11.934263370931149">
        <ele>1715.12939453125</ele>
        <time>2013-06-30T14:33:56Z</time>
      </trkpt>
      <trkpt lat="47.647348511964083" lon="11.934395134449005">
        <ele>1714.648681640625</ele>
        <time>2013-06-30T14:34:05Z</time>
      </trkpt>
      <trkpt lat="47.64716561883688" lon="11.934582889080048">
        <ele>1716.5712890625</ele>
        <time>2013-06-30T14:34:16Z</time>
      </trkpt>
      <trkpt lat="47.647000076249242" lon="11.934798052534461">
        <ele>1717.052001953125</ele>
        <time>2013-06-30T14:34:27Z</time>
      </trkpt>
      <trkpt lat="47.646816680207849" lon="11.935024531558156">
        <ele>1718.493896484375</ele>
        <time>2013-06-30T14:34:38Z</time>
      </trkpt>
      <trkpt lat="47.64665063470602" lon="11.935247909277678">
        <ele>1719.935791015625</ele>
        <time>2013-06-30T14:34:49Z</time>
      </trkpt>
      <trkpt lat="47.646622052416205" lon="11.935239443555474">
        <ele>1719.935791015625</ele>
        <time>2013-06-30T14:34:57Z</time>
      </trkpt>
      <trkpt lat="47.6466119941324" lon="11.935217315331101">
        <ele>1719.455322265625</ele>
        <time>2013-06-30T14:35:07Z</time>
      </trkpt>
      <trkpt lat="47.646602187305689" lon="11.935217650607228">
        <ele>1719.935791015625</ele>
        <time>2013-06-30T14:35:18Z</time>
      </trkpt>
      <trkpt lat="47.646536976099014" lon="11.935248076915741">
        <ele>1719.935791015625</ele>
        <time>2013-06-30T14:35:28Z</time>
      </trkpt>
      <trkpt lat="47.64654359780252" lon="11.935246149078012">
        <ele>1720.897216796875</ele>
        <time>2013-06-30T14:35:37Z</time>
      </trkpt>
      <trkpt lat="47.646465310826898" lon="11.935167023912072">
        <ele>1721.8583984375</ele>
        <time>2013-06-30T14:35:46Z</time>
      </trkpt>
      <trkpt lat="47.646337319165468" lon="11.935120755806565">
        <ele>1724.261962890625</ele>
        <time>2013-06-30T14:35:58Z</time>
      </trkpt>
      <trkpt lat="47.646323572844267" lon="11.935179093852639">
        <ele>1725.703857421875</ele>
        <time>2013-06-30T14:36:04Z</time>
      </trkpt>
      <trkpt lat="47.646283507347107" lon="11.935386378318071">
        <ele>1727.14599609375</ele>
        <time>2013-06-30T14:36:18Z</time>
      </trkpt>
      <trkpt lat="47.646238747984171" lon="11.935382690280676">
        <ele>1726.665283203125</ele>
        <time>2013-06-30T14:36:28Z</time>
      </trkpt>
      <trkpt lat="47.646256182342768" lon="11.935371961444616">
        <ele>1727.14599609375</ele>
        <time>2013-06-30T14:36:36Z</time>
      </trkpt>
      <trkpt lat="47.6462631393224" lon="11.935348240658641">
        <ele>1726.1845703125</ele>
        <time>2013-06-30T14:36:45Z</time>
      </trkpt>
      <trkpt lat="47.646263977512717" lon="11.935335164889693">
        <ele>1729.549072265625</ele>
        <time>2013-06-30T14:48:38Z</time>
      </trkpt>
      <trkpt lat="47.646263977512717" lon="11.935335332527757">
        <ele>1729.068359375</ele>
        <time>2013-06-30T14:48:45Z</time>
      </trkpt>
      <trkpt lat="47.646274203434587" lon="11.935332734137774">
        <ele>1729.068359375</ele>
        <time>2013-06-30T14:50:23Z</time>
      </trkpt>
      <trkpt lat="47.646321142092347" lon="11.935129975900054">
        <ele>1728.107177734375</ele>
        <time>2013-06-30T14:50:30Z</time>
      </trkpt>
      <trkpt lat="47.646401692181826" lon="11.935044648125768">
        <ele>1725.22314453125</ele>
        <time>2013-06-30T14:50:35Z</time>
      </trkpt>
      <trkpt lat="47.646465813741088" lon="11.935079349204898">
        <ele>1723.300537109375</ele>
        <time>2013-06-30T14:50:37Z</time>
      </trkpt>
      <trkpt lat="47.646555583924055" lon="11.935131484642625">
        <ele>1722.339111328125</ele>
        <time>2013-06-30T14:50:39Z</time>
      </trkpt>
      <trkpt lat="47.646661195904016" lon="11.935170209035277">
        <ele>1723.300537109375</ele>
        <time>2013-06-30T14:50:43Z</time>
      </trkpt>
      <trkpt lat="47.646662620827556" lon="11.935182446613908">
        <ele>1722.81982421875</ele>
        <time>2013-06-30T14:50:51Z</time>
      </trkpt>
      <trkpt lat="47.64665893279016" lon="11.935171214863658">
        <ele>1723.781005859375</ele>
        <time>2013-06-30T14:50:59Z</time>
      </trkpt>
      <trkpt lat="47.646668991073966" lon="11.935175070539117">
        <ele>1723.300537109375</ele>
        <time>2013-06-30T14:51:08Z</time>
      </trkpt>
      <trkpt lat="47.64666186645627" lon="11.935201054438949">
        <ele>1723.781005859375</ele>
        <time>2013-06-30T14:51:11Z</time>
      </trkpt>
      <trkpt lat="47.646763874217868" lon="11.935297949239612">
        <ele>1723.781005859375</ele>
        <time>2013-06-30T14:51:21Z</time>
      </trkpt>
      <trkpt lat="47.646832019090652" lon="11.935422671958804">
        <ele>1724.74267578125</ele>
        <time>2013-06-30T14:51:31Z</time>
      </trkpt>
      <trkpt lat="47.646835371851921" lon="11.935448320582509">
        <ele>1724.74267578125</ele>
        <time>2013-06-30T14:51:35Z</time>
      </trkpt>
      <trkpt lat="47.646856661885977" lon="11.935562817379832">
        <ele>1725.703857421875</ele>
        <time>2013-06-30T14:51:42Z</time>
      </trkpt>
      <trkpt lat="47.646900331601501" lon="11.935612941160798">
        <ele>1727.14599609375</ele>
        <time>2013-06-30T14:51:48Z</time>
      </trkpt>
      <trkpt lat="47.646918352693319" lon="11.93564135581255">
        <ele>1728.107177734375</ele>
        <time>2013-06-30T14:51:56Z</time>
      </trkpt>
      <trkpt lat="47.646887172013521" lon="11.935688713565469">
        <ele>1729.549072265625</ele>
        <time>2013-06-30T14:52:04Z</time>
      </trkpt>
      <trkpt lat="47.646879041567445" lon="11.935723833739758">
        <ele>1729.549072265625</ele>
        <time>2013-06-30T14:52:13Z</time>
      </trkpt>
      <trkpt lat="47.646874012425542" lon="11.935777897015214">
        <ele>1729.549072265625</ele>
        <time>2013-06-30T14:52:22Z</time>
      </trkpt>
      <trkpt lat="47.646885579451919" lon="11.935812095180154">
        <ele>1729.068359375</ele>
        <time>2013-06-30T14:52:27Z</time>
      </trkpt>
      <trkpt lat="47.64692229218781" lon="11.935927094891667">
        <ele>1727.62646484375</ele>
        <time>2013-06-30T14:52:36Z</time>
      </trkpt>
      <trkpt lat="47.646934781223536" lon="11.935990964993834">
        <ele>1728.587890625</ele>
        <time>2013-06-30T14:52:45Z</time>
      </trkpt>
      <trkpt lat="47.646911144256592" lon="11.936076292768121">
        <ele>1726.665283203125</ele>
        <time>2013-06-30T14:52:58Z</time>
      </trkpt>
      <trkpt lat="47.646922795102" lon="11.936122644692659">
        <ele>1724.74267578125</ele>
        <time>2013-06-30T14:53:04Z</time>
      </trkpt>
      <trkpt lat="47.646944420412183" lon="11.936177043244243">
        <ele>1724.261962890625</ele>
        <time>2013-06-30T14:53:13Z</time>
      </trkpt>
      <trkpt lat="47.646963112056255" lon="11.93619598634541">
        <ele>1723.300537109375</ele>
        <time>2013-06-30T14:53:24Z</time>
      </trkpt>
      <trkpt lat="47.646962609142065" lon="11.936238901689649">
        <ele>1722.339111328125</ele>
        <time>2013-06-30T14:53:33Z</time>
      </trkpt>
      <trkpt lat="47.64696185477078" lon="11.93628684617579">
        <ele>1720.897216796875</ele>
        <time>2013-06-30T14:53:42Z</time>
      </trkpt>
      <trkpt lat="47.646976942196488" lon="11.936360439285636">
        <ele>1718.493896484375</ele>
        <time>2013-06-30T14:53:56Z</time>
      </trkpt>
      <trkpt lat="47.646987503394485" lon="11.936437385156751">
        <ele>1717.052001953125</ele>
        <time>2013-06-30T14:54:05Z</time>
      </trkpt>
      <trkpt lat="47.646998316049576" lon="11.936482395976782">
        <ele>1716.5712890625</ele>
        <time>2013-06-30T14:54:14Z</time>
      </trkpt>
      <trkpt lat="47.647014912217855" lon="11.936546182259917">
        <ele>1714.648681640625</ele>
        <time>2013-06-30T14:54:27Z</time>
      </trkpt>
      <trkpt lat="47.647020108997822" lon="11.936638299375772">
        <ele>1712.245361328125</ele>
        <time>2013-06-30T14:54:38Z</time>
      </trkpt>
      <trkpt lat="47.647023797035217" lon="11.936696134507656">
        <ele>1711.764892578125</ele>
        <time>2013-06-30T14:54:47Z</time>
      </trkpt>
      <trkpt lat="47.64701172709465" lon="11.936776349321008">
        <ele>1711.2841796875</ele>
        <time>2013-06-30T14:54:52Z</time>
      </trkpt>
      <trkpt lat="47.647028909996152" lon="11.936853630468249">
        <ele>1710.32275390625</ele>
        <time>2013-06-30T14:54:59Z</time>
      </trkpt>
      <trkpt lat="47.647041482850909" lon="11.936865616589785">
        <ele>1710.803466796875</ele>
        <time>2013-06-30T14:55:09Z</time>
      </trkpt>
      <trkpt lat="47.647040812298656" lon="11.936894031241536">
        <ele>1709.361572265625</ele>
        <time>2013-06-30T14:55:17Z</time>
      </trkpt>
      <trkpt lat="47.647095378488302" lon="11.936942394822836">
        <ele>1709.361572265625</ele>
        <time>2013-06-30T14:55:28Z</time>
      </trkpt>
      <trkpt lat="47.647164110094309" lon="11.936964606866241">
        <ele>1708.880859375</ele>
        <time>2013-06-30T14:55:35Z</time>
      </trkpt>
      <trkpt lat="47.647177772596478" lon="11.936979945749044">
        <ele>1708.880859375</ele>
        <time>2013-06-30T14:55:45Z</time>
      </trkpt>
      <trkpt lat="47.647198727354407" lon="11.937104668468237">
        <ele>1708.400146484375</ele>
        <time>2013-06-30T14:55:54Z</time>
      </trkpt>
      <trkpt lat="47.647157153114676" lon="11.9371497631073">
        <ele>1707.438720703125</ele>
        <time>2013-06-30T14:56:02Z</time>
      </trkpt>
      <trkpt lat="47.647155225276947" lon="11.937154373154044">
        <ele>1706.9580078125</ele>
        <time>2013-06-30T14:56:03Z</time>
      </trkpt>
      <trkpt lat="47.64715681783855" lon="11.937168957665563">
        <ele>1707.438720703125</ele>
        <time>2013-06-30T14:56:05Z</time>
      </trkpt>
      <trkpt lat="47.647194368764758" lon="11.937247160822153">
        <ele>1706.9580078125</ele>
        <time>2013-06-30T14:56:15Z</time>
      </trkpt>
      <trkpt lat="47.647202834486961" lon="11.937274234369397">
        <ele>1707.438720703125</ele>
        <time>2013-06-30T14:56:24Z</time>
      </trkpt>
      <trkpt lat="47.647223537787795" lon="11.93731689825654">
        <ele>1706.9580078125</ele>
        <time>2013-06-30T14:56:44Z</time>
      </trkpt>
      <trkpt lat="47.647208869457245" lon="11.937365680932999">
        <ele>1705.51611328125</ele>
        <time>2013-06-30T14:57:01Z</time>
      </trkpt>
      <trkpt lat="47.647139299660921" lon="11.937442710623145">
        <ele>1702.632080078125</ele>
        <time>2013-06-30T14:57:17Z</time>
      </trkpt>
      <trkpt lat="47.647130414843559" lon="11.937484536319971">
        <ele>1701.190185546875</ele>
        <time>2013-06-30T14:57:28Z</time>
      </trkpt>
      <trkpt lat="47.647084398195148" lon="11.937561482191086">
        <ele>1698.786865234375</ele>
        <time>2013-06-30T14:57:35Z</time>
      </trkpt>
      <trkpt lat="47.647062940523028" lon="11.937678912654519">
        <ele>1697.344970703125</ele>
        <time>2013-06-30T14:57:39Z</time>
      </trkpt>
      <trkpt lat="47.647068556398153" lon="11.937839426100254">
        <ele>1696.8642578125</ele>
        <time>2013-06-30T14:57:44Z</time>
      </trkpt>
      <trkpt lat="47.647049278020859" lon="11.937957191839814">
        <ele>1695.903076171875</ele>
        <time>2013-06-30T14:57:48Z</time>
      </trkpt>
      <trkpt lat="47.647005273029208" lon="11.938031539320946">
        <ele>1695.903076171875</ele>
        <time>2013-06-30T14:57:54Z</time>
      </trkpt>
      <trkpt lat="47.646969566121697" lon="11.938113598152995">
        <ele>1694.4609375</ele>
        <time>2013-06-30T14:58:06Z</time>
      </trkpt>
      <trkpt lat="47.646936122328043" lon="11.938222646713257">
        <ele>1693.01904296875</ele>
        <time>2013-06-30T14:58:17Z</time>
      </trkpt>
      <trkpt lat="47.646912904456258" lon="11.938259527087212">
        <ele>1693.98046875</ele>
        <time>2013-06-30T14:58:25Z</time>
      </trkpt>
      <trkpt lat="47.646921956911683" lon="11.9382653106004">
        <ele>1693.499755859375</ele>
        <time>2013-06-30T14:58:36Z</time>
      </trkpt>
      <trkpt lat="47.646929332986474" lon="11.938262963667512">
        <ele>1693.499755859375</ele>
        <time>2013-06-30T14:58:51Z</time>
      </trkpt>
      <trkpt lat="47.646925812587142" lon="11.938259610906243">
        <ele>1693.01904296875</ele>
        <time>2013-06-30T14:59:20Z</time>
      </trkpt>
      <trkpt lat="47.646921202540398" lon="11.93825458176434">
        <ele>1693.499755859375</ele>
        <time>2013-06-30T14:59:33Z</time>
      </trkpt>
      <trkpt lat="47.646918017417192" lon="11.938255252316594">
        <ele>1693.98046875</ele>
        <time>2013-06-30T14:59:49Z</time>
      </trkpt>
      <trkpt lat="47.646925896406174" lon="11.938270255923271">
        <ele>1694.4609375</ele>
        <time>2013-06-30T14:59:59Z</time>
      </trkpt>
      <trkpt lat="47.646918185055256" lon="11.938296407461166">
        <ele>1694.4609375</ele>
        <time>2013-06-30T15:00:07Z</time>
      </trkpt>
      <trkpt lat="47.646889267489314" lon="11.938387686386704">
        <ele>1693.01904296875</ele>
        <time>2013-06-30T15:00:21Z</time>
      </trkpt>
      <trkpt lat="47.646850040182471" lon="11.938468823209405">
        <ele>1691.09619140625</ele>
        <time>2013-06-30T15:00:34Z</time>
      </trkpt>
      <trkpt lat="47.646841323003173" lon="11.938474019989371">
        <ele>1692.057861328125</ele>
        <time>2013-06-30T15:00:45Z</time>
      </trkpt>
      <trkpt lat="47.646843753755093" lon="11.9384656380862">
        <ele>1692.057861328125</ele>
        <time>2013-06-30T15:00:53Z</time>
      </trkpt>
      <trkpt lat="47.646790696308017" lon="11.938553983345628">
        <ele>1689.654296875</ele>
        <time>2013-06-30T15:01:01Z</time>
      </trkpt>
      <trkpt lat="47.646764712408185" lon="11.938594048842788">
        <ele>1688.693115234375</ele>
        <time>2013-06-30T15:01:11Z</time>
      </trkpt>
      <trkpt lat="47.646775776520371" lon="11.938590947538614">
        <ele>1689.173583984375</ele>
        <time>2013-06-30T15:01:29Z</time>
      </trkpt>
      <trkpt lat="47.646746775135398" lon="11.938614584505558">
        <ele>1686.770263671875</ele>
        <time>2013-06-30T15:01:54Z</time>
      </trkpt>
      <trkpt lat="47.646688185632229" lon="11.938709886744618">
        <ele>1684.847900390625</ele>
        <time>2013-06-30T15:02:05Z</time>
      </trkpt>
      <trkpt lat="47.646673433482647" lon="11.938719777390361">
        <ele>1684.847900390625</ele>
        <time>2013-06-30T15:02:09Z</time>
      </trkpt>
      <trkpt lat="47.64658366329968" lon="11.93874903023243">
        <ele>1683.40576171875</ele>
        <time>2013-06-30T15:02:20Z</time>
      </trkpt>
      <trkpt lat="47.646576287224889" lon="11.93876177072525">
        <ele>1682.444580078125</ele>
        <time>2013-06-30T15:02:36Z</time>
      </trkpt>
      <trkpt lat="47.646558349952102" lon="11.938805021345615">
        <ele>1682.444580078125</ele>
        <time>2013-06-30T15:02:57Z</time>
      </trkpt>
      <trkpt lat="47.646554997190833" lon="11.938806362450123">
        <ele>1682.444580078125</ele>
        <time>2013-06-30T15:02:58Z</time>
      </trkpt>
      <trkpt lat="47.646491210907698" lon="11.93889370188117">
        <ele>1681.9638671875</ele>
        <time>2013-06-30T15:03:05Z</time>
      </trkpt>
      <trkpt lat="47.646478805691004" lon="11.938898228108883">
        <ele>1681.9638671875</ele>
        <time>2013-06-30T15:03:09Z</time>
      </trkpt>
      <trkpt lat="47.646422982215881" lon="11.938886744901538">
        <ele>1680.52197265625</ele>
        <time>2013-06-30T15:03:13Z</time>
      </trkpt>
      <trkpt lat="47.646277556195855" lon="11.938781971111894">
        <ele>1677.157470703125</ele>
        <time>2013-06-30T15:03:21Z</time>
      </trkpt>
      <trkpt lat="47.646274454891682" lon="11.938712149858475">
        <ele>1676.196044921875</ele>
        <time>2013-06-30T15:03:27Z</time>
      </trkpt>
      <trkpt lat="47.646271856501698" lon="11.938686165958643">
        <ele>1676.196044921875</ele>
        <time>2013-06-30T15:03:33Z</time>
      </trkpt>
      <trkpt lat="47.646235646679997" lon="11.938656577840447">
        <ele>1674.75390625</ele>
        <time>2013-06-30T15:03:42Z</time>
      </trkpt>
      <trkpt lat="47.646178817376494" lon="11.938678873702884">
        <ele>1672.831298828125</ele>
        <time>2013-06-30T15:03:56Z</time>
      </trkpt>
      <trkpt lat="47.646145625039935" lon="11.938701923936605">
        <ele>1672.3505859375</ele>
        <time>2013-06-30T15:04:02Z</time>
      </trkpt>
      <trkpt lat="47.646116288378835" lon="11.938734780997038">
        <ele>1669.947265625</ele>
        <time>2013-06-30T15:04:13Z</time>
      </trkpt>
      <trkpt lat="47.646062141284347" lon="11.938746348023415">
        <ele>1670.427978515625</ele>
        <time>2013-06-30T15:04:28Z</time>
      </trkpt>
      <trkpt lat="47.646004389971495" lon="11.938794879242778">
        <ele>1668.50537109375</ele>
        <time>2013-06-30T15:04:38Z</time>
      </trkpt>
      <trkpt lat="47.646003216505051" lon="11.938827652484179">
        <ele>1668.024658203125</ele>
        <time>2013-06-30T15:04:47Z</time>
      </trkpt>
      <trkpt lat="47.645987709984183" lon="11.938854474574327">
        <ele>1667.0634765625</ele>
        <time>2013-06-30T15:04:57Z</time>
      </trkpt>
      <trkpt lat="47.64592157676816" lon="11.938920021057129">
        <ele>1666.10205078125</ele>
        <time>2013-06-30T15:05:03Z</time>
      </trkpt>
      <trkpt lat="47.645853599533439" lon="11.939015155658126">
        <ele>1663.69873046875</ele>
        <time>2013-06-30T15:05:11Z</time>
      </trkpt>
      <trkpt lat="47.645826525986195" lon="11.939042983576655">
        <ele>1663.21826171875</ele>
        <time>2013-06-30T15:05:13Z</time>
      </trkpt>
      <trkpt lat="47.645774642005563" lon="11.939067458733916">
        <ele>1661.7763671875</ele>
        <time>2013-06-30T15:05:16Z</time>
      </trkpt>
      <trkpt lat="47.645680094137788" lon="11.939142644405365">
        <ele>1660.81494140625</ele>
        <time>2013-06-30T15:05:23Z</time>
      </trkpt>
      <trkpt lat="47.645612871274352" lon="11.939147002995014">
        <ele>1660.334228515625</ele>
        <time>2013-06-30T15:05:31Z</time>
      </trkpt>
      <trkpt lat="47.645550007000566" lon="11.93913409486413">
        <ele>1659.853271484375</ele>
        <time>2013-06-30T15:05:44Z</time>
      </trkpt>
      <trkpt lat="47.645546905696392" lon="11.939133256673813">
        <ele>1659.853271484375</ele>
        <time>2013-06-30T15:06:15Z</time>
      </trkpt>
      <trkpt lat="47.645482700318098" lon="11.939109452068806">
        <ele>1658.411376953125</ele>
        <time>2013-06-30T15:06:24Z</time>
      </trkpt>
      <trkpt lat="47.645427295938134" lon="11.939102578908205">
        <ele>1656.969482421875</ele>
        <time>2013-06-30T15:06:29Z</time>
      </trkpt>
      <trkpt lat="47.645392259582877" lon="11.939092269167304">
        <ele>1656.969482421875</ele>
        <time>2013-06-30T15:06:35Z</time>
      </trkpt>
      <trkpt lat="47.645343393087387" lon="11.939087575301528">
        <ele>1656.008056640625</ele>
        <time>2013-06-30T15:06:44Z</time>
      </trkpt>
      <trkpt lat="47.645276337862015" lon="11.939084473997355">
        <ele>1655.046875</ele>
        <time>2013-06-30T15:06:51Z</time>
      </trkpt>
      <trkpt lat="47.64523359015584" lon="11.939066452905536">
        <ele>1654.566162109375</ele>
        <time>2013-06-30T15:06:59Z</time>
      </trkpt>
      <trkpt lat="47.645196039229631" lon="11.938996715471148">
        <ele>1652.6435546875</ele>
        <time>2013-06-30T15:07:08Z</time>
      </trkpt>
      <trkpt lat="47.645185310393572" lon="11.938979281112552">
        <ele>1652.162841796875</ele>
        <time>2013-06-30T15:07:10Z</time>
      </trkpt>
      <trkpt lat="47.645103670656681" lon="11.938885655254126">
        <ele>1650.720947265625</ele>
        <time>2013-06-30T15:07:21Z</time>
      </trkpt>
      <trkpt lat="47.645041896030307" lon="11.938809966668487">
        <ele>1650.720947265625</ele>
        <time>2013-06-30T15:07:31Z</time>
      </trkpt>
      <trkpt lat="47.645017504692078" lon="11.938792364671826">
        <ele>1650.240478515625</ele>
        <time>2013-06-30T15:07:42Z</time>
      </trkpt>
      <trkpt lat="47.64503083191812" lon="11.938886996358633">
        <ele>1649.759765625</ele>
        <time>2013-06-30T15:07:55Z</time>
      </trkpt>
      <trkpt lat="47.645046338438988" lon="11.938950782641768">
        <ele>1649.759765625</ele>
        <time>2013-06-30T15:08:04Z</time>
      </trkpt>
      <trkpt lat="47.645046673715115" lon="11.938958158716559">
        <ele>1649.759765625</ele>
        <time>2013-06-30T15:08:05Z</time>
      </trkpt>
      <trkpt lat="47.645045416429639" lon="11.938978862017393">
        <ele>1649.759765625</ele>
        <time>2013-06-30T15:08:07Z</time>
      </trkpt>
      <trkpt lat="47.644997723400593" lon="11.939064357429743">
        <ele>1648.79833984375</ele>
        <time>2013-06-30T15:08:16Z</time>
      </trkpt>
      <trkpt lat="47.644957657903433" lon="11.939079277217388">
        <ele>1647.3564453125</ele>
        <time>2013-06-30T15:08:23Z</time>
      </trkpt>
      <trkpt lat="47.644899487495422" lon="11.939094280824065">
        <ele>1645.433837890625</ele>
        <time>2013-06-30T15:08:34Z</time>
      </trkpt>
      <trkpt lat="47.644880963489413" lon="11.939045749604702">
        <ele>1644.472412109375</ele>
        <time>2013-06-30T15:08:43Z</time>
      </trkpt>
      <trkpt lat="47.644865708425641" lon="11.939010880887508">
        <ele>1643.510986328125</ele>
        <time>2013-06-30T15:08:53Z</time>
      </trkpt>
      <trkpt lat="47.644869647920132" lon="11.938986405730247">
        <ele>1643.510986328125</ele>
        <time>2013-06-30T15:09:08Z</time>
      </trkpt>
      <trkpt lat="47.644854309037328" lon="11.938964864239097">
        <ele>1642.5498046875</ele>
        <time>2013-06-30T15:09:18Z</time>
      </trkpt>
      <trkpt lat="47.644831510260701" lon="11.938933515921235">
        <ele>1642.069091796875</ele>
        <time>2013-06-30T15:09:26Z</time>
      </trkpt>
      <trkpt lat="47.644816674292088" lon="11.938905017450452">
        <ele>1639.665771484375</ele>
        <time>2013-06-30T15:09:36Z</time>
      </trkpt>
      <trkpt lat="47.644804185256362" lon="11.938895210623741">
        <ele>1640.146484375</ele>
        <time>2013-06-30T15:09:48Z</time>
      </trkpt>
      <trkpt lat="47.644770573824644" lon="11.938835196197033">
        <ele>1638.70458984375</ele>
        <time>2013-06-30T15:09:59Z</time>
      </trkpt>
      <trkpt lat="47.644761521369219" lon="11.938814241439104">
        <ele>1637.7431640625</ele>
        <time>2013-06-30T15:10:08Z</time>
      </trkpt>
      <trkpt lat="47.644742242991924" lon="11.938813989982009">
        <ele>1636.78173828125</ele>
        <time>2013-06-30T15:10:18Z</time>
      </trkpt>
      <trkpt lat="47.644710391759872" lon="11.938769146800041">
        <ele>1635.820556640625</ele>
        <time>2013-06-30T15:10:26Z</time>
      </trkpt>
      <trkpt lat="47.644690359011292" lon="11.938723465427756">
        <ele>1634.859375</ele>
        <time>2013-06-30T15:10:38Z</time>
      </trkpt>
      <trkpt lat="47.644657753407955" lon="11.938646351918578">
        <ele>1634.378662109375</ele>
        <time>2013-06-30T15:10:47Z</time>
      </trkpt>
      <trkpt lat="47.644629757851362" lon="11.938570160418749">
        <ele>1632.9365234375</ele>
        <time>2013-06-30T15:11:00Z</time>
      </trkpt>
      <trkpt lat="47.644612407311797" lon="11.938558174297214">
        <ele>1631.975341796875</ele>
        <time>2013-06-30T15:11:13Z</time>
      </trkpt>
      <trkpt lat="47.644630931317806" lon="11.938555240631104">
        <ele>1631.49462890625</ele>
        <time>2013-06-30T15:11:22Z</time>
      </trkpt>
      <trkpt lat="47.64463453553617" lon="11.9385140016675">
        <ele>1631.01416015625</ele>
        <time>2013-06-30T15:11:32Z</time>
      </trkpt>
      <trkpt lat="47.64462280087173" lon="11.938493801280856">
        <ele>1629.572021484375</ele>
        <time>2013-06-30T15:11:43Z</time>
      </trkpt>
      <trkpt lat="47.644598493352532" lon="11.938447281718254">
        <ele>1628.130126953125</ele>
        <time>2013-06-30T15:11:51Z</time>
      </trkpt>
      <trkpt lat="47.644590865820646" lon="11.938409060239792">
        <ele>1627.649169921875</ele>
        <time>2013-06-30T15:12:00Z</time>
      </trkpt>
      <trkpt lat="47.644575359299779" lon="11.938388189300895">
        <ele>1626.68798828125</ele>
        <time>2013-06-30T15:12:18Z</time>
      </trkpt>
      <trkpt lat="47.644555326551199" lon="11.938364217057824">
        <ele>1626.207275390625</ele>
        <time>2013-06-30T15:12:27Z</time>
      </trkpt>
      <trkpt lat="47.644555158913136" lon="11.93833127617836">
        <ele>1624.28466796875</ele>
        <time>2013-06-30T15:12:40Z</time>
      </trkpt>
      <trkpt lat="47.644521212205291" lon="11.938266064971685">
        <ele>1622.362060546875</ele>
        <time>2013-06-30T15:12:53Z</time>
      </trkpt>
      <trkpt lat="47.644520457834005" lon="11.938231196254492">
        <ele>1621.88134765625</ele>
        <time>2013-06-30T15:13:01Z</time>
      </trkpt>
      <trkpt lat="47.644518613815308" lon="11.93822817876935">
        <ele>1621.88134765625</ele>
        <time>2013-06-30T15:13:03Z</time>
      </trkpt>
      <trkpt lat="47.644481398165226" lon="11.938203284516931">
        <ele>1621.400634765625</ele>
        <time>2013-06-30T15:13:12Z</time>
      </trkpt>
      <trkpt lat="47.644446613267064" lon="11.938189370557666">
        <ele>1620.439453125</ele>
        <time>2013-06-30T15:13:26Z</time>
      </trkpt>
      <trkpt lat="47.64442783780396" lon="11.938116448000073">
        <ele>1618.0361328125</ele>
        <time>2013-06-30T15:13:42Z</time>
      </trkpt>
      <trkpt lat="47.644400512799621" lon="11.938071185722947">
        <ele>1617.074951171875</ele>
        <time>2013-06-30T15:13:52Z</time>
      </trkpt>
      <trkpt lat="47.644369080662727" lon="11.938037071377039">
        <ele>1615.15234375</ele>
        <time>2013-06-30T15:14:03Z</time>
      </trkpt>
      <trkpt lat="47.644354496151209" lon="11.937997005879879">
        <ele>1615.15234375</ele>
        <time>2013-06-30T15:14:26Z</time>
      </trkpt>
      <trkpt lat="47.644351813942194" lon="11.937984684482217">
        <ele>1614.671630859375</ele>
        <time>2013-06-30T15:14:27Z</time>
      </trkpt>
      <trkpt lat="47.644339660182595" lon="11.937900949269533">
        <ele>1613.229736328125</ele>
        <time>2013-06-30T15:14:33Z</time>
      </trkpt>
      <trkpt lat="47.644331948831677" lon="11.937867673113942">
        <ele>1611.78759765625</ele>
        <time>2013-06-30T15:14:36Z</time>
      </trkpt>
      <trkpt lat="47.644310155883431" lon="11.937778238207102">
        <ele>1610.345458984375</ele>
        <time>2013-06-30T15:14:48Z</time>
      </trkpt>
      <trkpt lat="47.64428174123168" lon="11.937706572934985">
        <ele>1608.903564453125</ele>
        <time>2013-06-30T15:14:58Z</time>
      </trkpt>
      <trkpt lat="47.644276712089777" lon="11.937587130814791">
        <ele>1606.98095703125</ele>
        <time>2013-06-30T15:15:10Z</time>
      </trkpt>
      <trkpt lat="47.644264390692115" lon="11.937531139701605">
        <ele>1604.09716796875</ele>
        <time>2013-06-30T15:15:22Z</time>
      </trkpt>
      <trkpt lat="47.644234718754888" lon="11.937533570453525">
        <ele>1603.616455078125</ele>
        <time>2013-06-30T15:15:36Z</time>
      </trkpt>
      <trkpt lat="47.644222648814321" lon="11.937548574060202">
        <ele>1603.1357421875</ele>
        <time>2013-06-30T15:15:39Z</time>
      </trkpt>
      <trkpt lat="47.644166825339198" lon="11.937649995088577">
        <ele>1601.213134765625</ele>
        <time>2013-06-30T15:15:48Z</time>
      </trkpt>
      <trkpt lat="47.64415517449379" lon="11.937678745016456">
        <ele>1600.251953125</ele>
        <time>2013-06-30T15:15:52Z</time>
      </trkpt>
      <trkpt lat="47.644134890288115" lon="11.937715290114284">
        <ele>1598.809814453125</ele>
        <time>2013-06-30T15:16:00Z</time>
      </trkpt>
      <trkpt lat="47.644120892509818" lon="11.937822494655848">
        <ele>1595.92578125</ele>
        <time>2013-06-30T15:16:14Z</time>
      </trkpt>
      <trkpt lat="47.644068086519837" lon="11.937892399728298">
        <ele>1594.003173828125</ele>
        <time>2013-06-30T15:16:27Z</time>
      </trkpt>
      <trkpt lat="47.644065488129854" lon="11.937926933169365">
        <ele>1593.5224609375</ele>
        <time>2013-06-30T15:16:37Z</time>
      </trkpt>
      <trkpt lat="47.644050652161241" lon="11.93796431645751">
        <ele>1591.599853515625</ele>
        <time>2013-06-30T15:16:49Z</time>
      </trkpt>
      <trkpt lat="47.644054759293795" lon="11.93803665228188">
        <ele>1591.119140625</ele>
        <time>2013-06-30T15:17:01Z</time>
      </trkpt>
      <trkpt lat="47.644038498401642" lon="11.93805911578238">
        <ele>1590.157958984375</ele>
        <time>2013-06-30T15:17:12Z</time>
      </trkpt>
      <trkpt lat="47.643973706290126" lon="11.938158357515931">
        <ele>1587.754638671875</ele>
        <time>2013-06-30T15:17:25Z</time>
      </trkpt>
      <trkpt lat="47.643944201990962" lon="11.938238404691219">
        <ele>1584.870849609375</ele>
        <time>2013-06-30T15:17:36Z</time>
      </trkpt>
      <trkpt lat="47.643912183120847" lon="11.938290959224105">
        <ele>1582.467529296875</ele>
        <time>2013-06-30T15:17:45Z</time>
      </trkpt>
      <trkpt lat="47.643941687420011" lon="11.938350135460496">
        <ele>1581.98681640625</ele>
        <time>2013-06-30T15:17:53Z</time>
      </trkpt>
      <trkpt lat="47.643947973847389" lon="11.938391542062163">
        <ele>1581.025634765625</ele>
        <time>2013-06-30T15:18:01Z</time>
      </trkpt>
      <trkpt lat="47.64386985450983" lon="11.938422806560993">
        <ele>1579.583251953125</ele>
        <time>2013-06-30T15:18:10Z</time>
      </trkpt>
      <trkpt lat="47.643840853124857" lon="11.938452813774347">
        <ele>1578.6220703125</ele>
        <time>2013-06-30T15:18:14Z</time>
      </trkpt>
      <trkpt lat="47.643776563927531" lon="11.938504697754979">
        <ele>1577.18017578125</ele>
        <time>2013-06-30T15:18:25Z</time>
      </trkpt>
      <trkpt lat="47.643718058243394" lon="11.93853260949254">
        <ele>1575.738037109375</ele>
        <time>2013-06-30T15:18:34Z</time>
      </trkpt>
      <trkpt lat="47.643694253638387" lon="11.938569070771337">
        <ele>1575.25732421875</ele>
        <time>2013-06-30T15:18:38Z</time>
      </trkpt>
      <trkpt lat="47.643678998574615" lon="11.93862590007484">
        <ele>1573.8154296875</ele>
        <time>2013-06-30T15:18:43Z</time>
      </trkpt>
      <trkpt lat="47.643631054088473" lon="11.938645765185356">
        <ele>1572.37353515625</ele>
        <time>2013-06-30T15:18:52Z</time>
      </trkpt>
      <trkpt lat="47.643564837053418" lon="11.938683735206723">
        <ele>1571.412109375</ele>
        <time>2013-06-30T15:19:01Z</time>
      </trkpt>
      <trkpt lat="47.643489483743906" lon="11.93871290422976">
        <ele>1569.48974609375</ele>
        <time>2013-06-30T15:19:10Z</time>
      </trkpt>
      <trkpt lat="47.643507672473788" lon="11.938763363286853">
        <ele>1567.56689453125</ele>
        <time>2013-06-30T15:19:22Z</time>
      </trkpt>
      <trkpt lat="47.643414214253426" lon="11.938782390207052">
        <ele>1565.64453125</ele>
        <time>2013-06-30T15:19:38Z</time>
      </trkpt>
      <trkpt lat="47.643288988620043" lon="11.938776019960642">
        <ele>1563.240966796875</ele>
        <time>2013-06-30T15:19:53Z</time>
      </trkpt>
      <trkpt lat="47.643246576189995" lon="11.938776690512896">
        <ele>1561.799072265625</ele>
        <time>2013-06-30T15:20:03Z</time>
      </trkpt>
      <trkpt lat="47.643183963373303" lon="11.938775768503547">
        <ele>1560.35693359375</ele>
        <time>2013-06-30T15:20:12Z</time>
      </trkpt>
      <trkpt lat="47.643107185140252" lon="11.938787838444114">
        <ele>1558.9150390625</ele>
        <time>2013-06-30T15:20:26Z</time>
      </trkpt>
      <trkpt lat="47.643023282289505" lon="11.938703516498208">
        <ele>1556.031005859375</ele>
        <time>2013-06-30T15:20:39Z</time>
      </trkpt>
      <trkpt lat="47.642987575381994" lon="11.938698990270495">
        <ele>1553.147216796875</ele>
        <time>2013-06-30T15:20:45Z</time>
      </trkpt>
      <trkpt lat="47.642941055819392" lon="11.938704438507557">
        <ele>1553.147216796875</ele>
        <time>2013-06-30T15:20:56Z</time>
      </trkpt>
      <trkpt lat="47.642880203202367" lon="11.938697565346956">
        <ele>1552.185791015625</ele>
        <time>2013-06-30T15:21:06Z</time>
      </trkpt>
      <trkpt lat="47.642860254272819" lon="11.938685160130262">
        <ele>1551.224609375</ele>
        <time>2013-06-30T15:21:10Z</time>
      </trkpt>
      <trkpt lat="47.642777776345611" lon="11.938686165958643">
        <ele>1548.340576171875</ele>
        <time>2013-06-30T15:21:17Z</time>
      </trkpt>
      <trkpt lat="47.642762688919902" lon="11.93868457339704">
        <ele>1548.340576171875</ele>
        <time>2013-06-30T15:21:18Z</time>
      </trkpt>
      <trkpt lat="47.642646851018071" lon="11.93874467164278">
        <ele>1545.937255859375</ele>
        <time>2013-06-30T15:21:24Z</time>
      </trkpt>
      <trkpt lat="47.642625393345952" lon="11.938757160678506">
        <ele>1545.937255859375</ele>
        <time>2013-06-30T15:21:25Z</time>
      </trkpt>
      <trkpt lat="47.642485583201051" lon="11.938741318881512">
        <ele>1543.533935546875</ele>
        <time>2013-06-30T15:21:32Z</time>
      </trkpt>
      <trkpt lat="47.642378127202392" lon="11.938751377165318">
        <ele>1542.092041015625</ele>
        <time>2013-06-30T15:21:38Z</time>
      </trkpt>
      <trkpt lat="47.642301432788372" lon="11.938804350793362">
        <ele>1539.688720703125</ele>
        <time>2013-06-30T15:21:43Z</time>
      </trkpt>
      <trkpt lat="47.64223731122911" lon="11.938822455704212">
        <ele>1538.246826171875</ele>
        <time>2013-06-30T15:21:45Z</time>
      </trkpt>
      <trkpt lat="47.642083251848817" lon="11.938874758780003">
        <ele>1535.36279296875</ele>
        <time>2013-06-30T15:21:49Z</time>
      </trkpt>
      <trkpt lat="47.642005048692226" lon="11.938915075734258">
        <ele>1533.9208984375</ele>
        <time>2013-06-30T15:21:51Z</time>
      </trkpt>
      <trkpt lat="47.641880912706256" lon="11.938987914472818">
        <ele>1531.998046875</ele>
        <time>2013-06-30T15:21:55Z</time>
      </trkpt>
      <trkpt lat="47.641804721206427" lon="11.939038708806038">
        <ele>1528.633544921875</ele>
        <time>2013-06-30T15:21:58Z</time>
      </trkpt>
      <trkpt lat="47.641717549413443" lon="11.939074918627739">
        <ele>1527.672119140625</ele>
        <time>2013-06-30T15:22:03Z</time>
      </trkpt>
      <trkpt lat="47.641675304621458" lon="11.939061339944601">
        <ele>1525.74951171875</ele>
        <time>2013-06-30T15:22:11Z</time>
      </trkpt>
      <trkpt lat="47.641631131991744" lon="11.939028482884169">
        <ele>1524.3076171875</ele>
        <time>2013-06-30T15:22:14Z</time>
      </trkpt>
      <trkpt lat="47.641530465334654" lon="11.938923541456461">
        <ele>1522.86572265625</ele>
        <time>2013-06-30T15:22:21Z</time>
      </trkpt>
      <trkpt lat="47.641488974913955" lon="11.938866209238768">
        <ele>1520.943115234375</ele>
        <time>2013-06-30T15:22:29Z</time>
      </trkpt>
      <trkpt lat="47.641413034871221" lon="11.938791358843446">
        <ele>1517.578369140625</ele>
        <time>2013-06-30T15:22:34Z</time>
      </trkpt>
      <trkpt lat="47.641392834484577" lon="11.938769984990358">
        <ele>1517.097900390625</ele>
        <time>2013-06-30T15:22:35Z</time>
      </trkpt>
      <trkpt lat="47.641265010461211" lon="11.938688764348626">
        <ele>1516.136474609375</ele>
        <time>2013-06-30T15:22:42Z</time>
      </trkpt>
      <trkpt lat="47.641187058761716" lon="11.938625480979681">
        <ele>1513.73291015625</ele>
        <time>2013-06-30T15:22:47Z</time>
      </trkpt>
      <trkpt lat="47.641133917495608" lon="11.938630845397711">
        <ele>1514.6943359375</ele>
        <time>2013-06-30T15:22:50Z</time>
      </trkpt>
      <trkpt lat="47.641032664105296" lon="11.93869823589921">
        <ele>1515.175048828125</ele>
        <time>2013-06-30T15:22:55Z</time>
      </trkpt>
      <trkpt lat="47.640972230583429" lon="11.938700163736939">
        <ele>1513.25244140625</ele>
        <time>2013-06-30T15:22:58Z</time>
      </trkpt>
      <trkpt lat="47.640969213098288" lon="11.938674263656139">
        <ele>1514.213623046875</ele>
        <time>2013-06-30T15:23:15Z</time>
      </trkpt>
      <trkpt lat="47.640960076823831" lon="11.938664959743619">
        <ele>1513.73291015625</ele>
        <time>2013-06-30T15:23:30Z</time>
      </trkpt>
      <trkpt lat="47.640920681878924" lon="11.938647860661149">
        <ele>1511.329833984375</ele>
        <time>2013-06-30T15:23:33Z</time>
      </trkpt>
      <trkpt lat="47.640739800408483" lon="11.938611902296543">
        <ele>1507.96533203125</ele>
        <time>2013-06-30T15:23:40Z</time>
      </trkpt>
      <trkpt lat="47.640644162893295" lon="11.938573094084859">
        <ele>1505.56201171875</ele>
        <time>2013-06-30T15:23:44Z</time>
      </trkpt>
      <trkpt lat="47.640565121546388" lon="11.938527999445796">
        <ele>1501.716796875</ele>
        <time>2013-06-30T15:23:47Z</time>
      </trkpt>
      <trkpt lat="47.640444673597813" lon="11.938459351658821">
        <ele>1497.871337890625</ele>
        <time>2013-06-30T15:23:51Z</time>
      </trkpt>
      <trkpt lat="47.640237975865602" lon="11.938363797962666">
        <ele>1492.103515625</ele>
        <time>2013-06-30T15:23:56Z</time>
      </trkpt>
      <trkpt lat="47.64009615406394" lon="11.938312249258161">
        <ele>1488.739013671875</ele>
        <time>2013-06-30T15:24:01Z</time>
      </trkpt>
      <trkpt lat="47.640030104666948" lon="11.938248546794057">
        <ele>1485.374267578125</ele>
        <time>2013-06-30T15:24:05Z</time>
      </trkpt>
      <trkpt lat="47.63992759399116" lon="11.938197501003742">
        <ele>1482.970703125</ele>
        <time>2013-06-30T15:24:10Z</time>
      </trkpt>
      <trkpt lat="47.639812007546425" lon="11.938127931207418">
        <ele>1479.12548828125</ele>
        <time>2013-06-30T15:24:15Z</time>
      </trkpt>
      <trkpt lat="47.639734307304025" lon="11.938085686415434">
        <ele>1478.64501953125</ele>
        <time>2013-06-30T15:24:19Z</time>
      </trkpt>
      <trkpt lat="47.639768673107028" lon="11.938129775226116">
        <ele>1478.64501953125</ele>
        <time>2013-06-30T15:24:28Z</time>
      </trkpt>
      <trkpt lat="47.63980052433908" lon="11.938211834058166">
        <ele>1477.203125</ele>
        <time>2013-06-30T15:24:38Z</time>
      </trkpt>
      <trkpt lat="47.639837572351098" lon="11.938210157677531">
        <ele>1477.203125</ele>
        <time>2013-06-30T15:24:47Z</time>
      </trkpt>
      <trkpt lat="47.639864310622215" lon="11.938211498782039">
        <ele>1477.203125</ele>
        <time>2013-06-30T15:24:55Z</time>
      </trkpt>
      <trkpt lat="47.639901610091329" lon="11.938224826008081">
        <ele>1477.203125</ele>
        <time>2013-06-30T15:25:03Z</time>
      </trkpt>
      <trkpt lat="47.639897922053933" lon="11.938243517652154">
        <ele>1476.722412109375</ele>
        <time>2013-06-30T15:25:15Z</time>
      </trkpt>
      <trkpt lat="47.639887612313032" lon="11.938252570107579">
        <ele>1478.164306640625</ele>
        <time>2013-06-30T15:25:18Z</time>
      </trkpt>
      <trkpt lat="47.639801111072302" lon="11.938345860689878">
        <ele>1477.68359375</ele>
        <time>2013-06-30T15:25:27Z</time>
      </trkpt>
      <trkpt lat="47.639781329780817" lon="11.938408054411411">
        <ele>1477.68359375</ele>
        <time>2013-06-30T15:25:36Z</time>
      </trkpt>
      <trkpt lat="47.639790801331401" lon="11.938411742448807">
        <ele>1477.203125</ele>
        <time>2013-06-30T15:25:44Z</time>
      </trkpt>
      <trkpt lat="47.63978979550302" lon="11.938421381637454">
        <ele>1477.203125</ele>
        <time>2013-06-30T15:25:50Z</time>
      </trkpt>
      <trkpt lat="47.639703964814544" lon="11.938415598124266">
        <ele>1475.2802734375</ele>
        <time>2013-06-30T15:25:55Z</time>
      </trkpt>
      <trkpt lat="47.639557365328074" lon="11.938355918973684">
        <ele>1471.43505859375</ele>
        <time>2013-06-30T15:26:00Z</time>
      </trkpt>
      <trkpt lat="47.639493830502033" lon="11.938325576484203">
        <ele>1470.473876953125</ele>
        <time>2013-06-30T15:26:02Z</time>
      </trkpt>
      <trkpt lat="47.639331389218569" lon="11.938294898718596">
        <ele>1467.109130859375</ele>
        <time>2013-06-30T15:26:07Z</time>
      </trkpt>
      <trkpt lat="47.639290736988187" lon="11.938300263136625">
        <ele>1467.109130859375</ele>
        <time>2013-06-30T15:26:14Z</time>
      </trkpt>
      <trkpt lat="47.639261987060308" lon="11.938321134075522">
        <ele>1465.1865234375</ele>
        <time>2013-06-30T15:26:24Z</time>
      </trkpt>
      <trkpt lat="47.639196859672666" lon="11.938353404402733">
        <ele>1462.783203125</ele>
        <time>2013-06-30T15:26:30Z</time>
      </trkpt>
      <trkpt lat="47.639138689264655" lon="11.938378969207406">
        <ele>1461.822021484375</ele>
        <time>2013-06-30T15:26:32Z</time>
      </trkpt>
      <trkpt lat="47.63901287689805" lon="11.938413670286536">
        <ele>1460.3798828125</ele>
        <time>2013-06-30T15:26:37Z</time>
      </trkpt>
      <trkpt lat="47.638985384255648" lon="11.938412832096219">
        <ele>1459.418701171875</ele>
        <time>2013-06-30T15:26:39Z</time>
      </trkpt>
      <trkpt lat="47.638931907713413" lon="11.938427919521928">
        <ele>1457.49609375</ele>
        <time>2013-06-30T15:26:46Z</time>
      </trkpt>
      <trkpt lat="47.63889410533011" lon="11.938415011391044">
        <ele>1456.053955078125</ele>
        <time>2013-06-30T15:26:48Z</time>
      </trkpt>
      <trkpt lat="47.638824954628944" lon="11.938362456858158">
        <ele>1454.131591796875</ele>
        <time>2013-06-30T15:26:51Z</time>
      </trkpt>
      <trkpt lat="47.638746248558164" lon="11.938212085515261">
        <ele>1451.72802734375</ele>
        <time>2013-06-30T15:27:00Z</time>
      </trkpt>
      <trkpt lat="47.638693358749151" lon="11.93815341219306">
        <ele>1449.805419921875</ele>
        <time>2013-06-30T15:27:06Z</time>
      </trkpt>
      <trkpt lat="47.63865957967937" lon="11.938109742477536">
        <ele>1447.8828125</ele>
        <time>2013-06-30T15:27:11Z</time>
      </trkpt>
      <trkpt lat="47.638651533052325" lon="11.938051152974367">
        <ele>1446.92138671875</ele>
        <time>2013-06-30T15:27:16Z</time>
      </trkpt>
      <trkpt lat="47.638636194169521" lon="11.937983427196741">
        <ele>1445.960205078125</ele>
        <time>2013-06-30T15:27:22Z</time>
      </trkpt>
      <trkpt lat="47.638587914407253" lon="11.937977056950331">
        <ele>1444.51806640625</ele>
        <time>2013-06-30T15:27:29Z</time>
      </trkpt>
      <trkpt lat="47.638581963256001" lon="11.937980577349663">
        <ele>1445.4794921875</ele>
        <time>2013-06-30T15:27:31Z</time>
      </trkpt>
      <trkpt lat="47.638536030426621" lon="11.937999855726957">
        <ele>1444.51806640625</ele>
        <time>2013-06-30T15:27:37Z</time>
      </trkpt>
      <trkpt lat="47.638477692380548" lon="11.937965825200081">
        <ele>1442.114990234375</ele>
        <time>2013-06-30T15:27:47Z</time>
      </trkpt>
      <trkpt lat="47.63843578286469" lon="11.937931962311268">
        <ele>1441.153564453125</ele>
        <time>2013-06-30T15:27:57Z</time>
      </trkpt>
      <trkpt lat="47.638432933017612" lon="11.937930788844824">
        <ele>1440.6728515625</ele>
        <time>2013-06-30T15:27:59Z</time>
      </trkpt>
      <trkpt lat="47.638406865298748" lon="11.937902541831136">
        <ele>1440.1923828125</ele>
        <time>2013-06-30T15:28:03Z</time>
      </trkpt>
      <trkpt lat="47.638363195583224" lon="11.937806149944663">
        <ele>1438.269775390625</ele>
        <time>2013-06-30T15:28:09Z</time>
      </trkpt>
      <trkpt lat="47.638337882235646" lon="11.937767760828137">
        <ele>1437.308349609375</ele>
        <time>2013-06-30T15:28:16Z</time>
      </trkpt>
      <trkpt lat="47.638301756232977" lon="11.937775136902928">
        <ele>1437.308349609375</ele>
        <time>2013-06-30T15:28:20Z</time>
      </trkpt>
      <trkpt lat="47.638268563896418" lon="11.937799192965031">
        <ele>1436.82763671875</ele>
        <time>2013-06-30T15:28:24Z</time>
      </trkpt>
      <trkpt lat="47.63821299187839" lon="11.937796091660857">
        <ele>1435.385498046875</ele>
        <time>2013-06-30T15:28:32Z</time>
      </trkpt>
      <trkpt lat="47.638197401538491" lon="11.937744794413447">
        <ele>1434.42431640625</ele>
        <time>2013-06-30T15:28:40Z</time>
      </trkpt>
      <trkpt lat="47.638179548084736" lon="11.937704393640161">
        <ele>1432.982177734375</ele>
        <time>2013-06-30T15:28:47Z</time>
      </trkpt>
      <trkpt lat="47.638160856440663" lon="11.93763985298574">
        <ele>1431.540283203125</ele>
        <time>2013-06-30T15:28:56Z</time>
      </trkpt>
      <trkpt lat="47.638126239180565" lon="11.937620071694255">
        <ele>1431.059814453125</ele>
        <time>2013-06-30T15:29:05Z</time>
      </trkpt>
      <trkpt lat="47.638078629970551" lon="11.937608756124973">
        <ele>1429.61767578125</ele>
        <time>2013-06-30T15:29:14Z</time>
      </trkpt>
      <trkpt lat="47.638027081266046" lon="11.937578329816461">
        <ele>1427.214599609375</ele>
        <time>2013-06-30T15:29:23Z</time>
      </trkpt>
      <trkpt lat="47.637985423207283" lon="11.937533654272556">
        <ele>1426.253173828125</ele>
        <time>2013-06-30T15:29:31Z</time>
      </trkpt>
      <trkpt lat="47.637940915301442" lon="11.93753968924284">
        <ele>1423.849853515625</ele>
        <time>2013-06-30T15:29:39Z</time>
      </trkpt>
      <trkpt lat="47.637917026877403" lon="11.937507754191756">
        <ele>1422.888671875</ele>
        <time>2013-06-30T15:29:41Z</time>
      </trkpt>
      <trkpt lat="47.637790376320481" lon="11.937398454174399">
        <ele>1420.004638671875</ele>
        <time>2013-06-30T15:29:46Z</time>
      </trkpt>
      <trkpt lat="47.637760872021317" lon="11.937382947653532">
        <ele>1420.004638671875</ele>
        <time>2013-06-30T15:29:47Z</time>
      </trkpt>
      <trkpt lat="47.637662719935179" lon="11.937322933226824">
        <ele>1418.5625</ele>
        <time>2013-06-30T15:29:53Z</time>
      </trkpt>
      <trkpt lat="47.637637741863728" lon="11.937300721183419">
        <ele>1417.60107421875</ele>
        <time>2013-06-30T15:30:01Z</time>
      </trkpt>
      <trkpt lat="47.637613266706467" lon="11.937265684828162">
        <ele>1416.639892578125</ele>
        <time>2013-06-30T15:30:09Z</time>
      </trkpt>
      <trkpt lat="47.637609913945198" lon="11.93726702593267">
        <ele>1416.639892578125</ele>
        <time>2013-06-30T15:30:12Z</time>
      </trkpt>
      <trkpt lat="47.63758510351181" lon="11.937277587130666">
        <ele>1415.197998046875</ele>
        <time>2013-06-30T15:30:15Z</time>
      </trkpt>
      <trkpt lat="47.637541014701128" lon="11.937285717576742">
        <ele>1413.755859375</ele>
        <time>2013-06-30T15:30:17Z</time>
      </trkpt>
      <trkpt lat="47.63742190785706" lon="11.937211370095611">
        <ele>1409.91064453125</ele>
        <time>2013-06-30T15:30:22Z</time>
      </trkpt>
      <trkpt lat="47.637241864576936" lon="11.937004840001464">
        <ele>1407.02685546875</ele>
        <time>2013-06-30T15:30:29Z</time>
      </trkpt>
      <trkpt lat="47.637167852371931" lon="11.93680283613503">
        <ele>1403.662109375</ele>
        <time>2013-06-30T15:30:33Z</time>
      </trkpt>
      <trkpt lat="47.637121165171266" lon="11.936625391244888">
        <ele>1404.14306640625</ele>
        <time>2013-06-30T15:30:37Z</time>
      </trkpt>
      <trkpt lat="47.637060061097145" lon="11.936533190310001">
        <ele>1402.219970703125</ele>
        <time>2013-06-30T15:30:41Z</time>
      </trkpt>
      <trkpt lat="47.636967860162258" lon="11.936470745131373">
        <ele>1401.2587890625</ele>
        <time>2013-06-30T15:30:47Z</time>
      </trkpt>
      <trkpt lat="47.636935422196984" lon="11.936464458703995">
        <ele>1399.81689453125</ele>
        <time>2013-06-30T15:30:55Z</time>
      </trkpt>
      <trkpt lat="47.636905331164598" lon="11.936480719596148">
        <ele>1399.336181640625</ele>
        <time>2013-06-30T15:31:05Z</time>
      </trkpt>
      <trkpt lat="47.636901224032044" lon="11.936474349349737">
        <ele>1399.336181640625</ele>
        <time>2013-06-30T15:31:19Z</time>
      </trkpt>
      <trkpt lat="47.636873982846737" lon="11.936455070972443">
        <ele>1398.85546875</ele>
        <time>2013-06-30T15:31:25Z</time>
      </trkpt>
      <trkpt lat="47.636864092200994" lon="11.936445934697986">
        <ele>1398.85546875</ele>
        <time>2013-06-30T15:31:28Z</time>
      </trkpt>
      <trkpt lat="47.636821093037724" lon="11.936339903622866">
        <ele>1397.41357421875</ele>
        <time>2013-06-30T15:31:34Z</time>
      </trkpt>
      <trkpt lat="47.636775579303503" lon="11.936220712959766">
        <ele>1396.452392578125</ele>
        <time>2013-06-30T15:31:41Z</time>
      </trkpt>
      <trkpt lat="47.636713637039065" lon="11.936107305809855">
        <ele>1395.490966796875</ele>
        <time>2013-06-30T15:31:47Z</time>
      </trkpt>
      <trkpt lat="47.636672565713525" lon="11.936055002734065">
        <ele>1394.049072265625</ele>
        <time>2013-06-30T15:31:51Z</time>
      </trkpt>
      <trkpt lat="47.636625207960606" lon="11.936003202572465">
        <ele>1392.607177734375</ele>
        <time>2013-06-30T15:31:59Z</time>
      </trkpt>
      <trkpt lat="47.636598804965615" lon="11.935983840376139">
        <ele>1391.645751953125</ele>
        <time>2013-06-30T15:32:01Z</time>
      </trkpt>
      <trkpt lat="47.636489253491163" lon="11.935905385762453">
        <ele>1390.684326171875</ele>
        <time>2013-06-30T15:32:06Z</time>
      </trkpt>
      <trkpt lat="47.636461844667792" lon="11.935880156233907">
        <ele>1389.72314453125</ele>
        <time>2013-06-30T15:32:14Z</time>
      </trkpt>
      <trkpt lat="47.636439967900515" lon="11.935820560902357">
        <ele>1389.242431640625</ele>
        <time>2013-06-30T15:32:21Z</time>
      </trkpt>
      <trkpt lat="47.636394705623388" lon="11.935747303068638">
        <ele>1386.8388671875</ele>
        <time>2013-06-30T15:32:26Z</time>
      </trkpt>
      <trkpt lat="47.63635179027915" lon="11.935698688030243">
        <ele>1386.3583984375</ele>
        <time>2013-06-30T15:32:29Z</time>
      </trkpt>
      <trkpt lat="47.636276856064796" lon="11.935699358582497">
        <ele>1384.435791015625</ele>
        <time>2013-06-30T15:32:35Z</time>
      </trkpt>
      <trkpt lat="47.636222038418055" lon="11.935695419088006">
        <ele>1383.955078125</ele>
        <time>2013-06-30T15:32:41Z</time>
      </trkpt>
      <trkpt lat="47.636185325682163" lon="11.935643451288342">
        <ele>1381.5517578125</ele>
        <time>2013-06-30T15:32:51Z</time>
      </trkpt>
      <trkpt lat="47.636131597682834" lon="11.935567343607545">
        <ele>1379.1484375</ele>
        <time>2013-06-30T15:32:59Z</time>
      </trkpt>
      <trkpt lat="47.636088095605373" lon="11.935481010004878">
        <ele>1378.187255859375</ele>
        <time>2013-06-30T15:33:08Z</time>
      </trkpt>
      <trkpt lat="47.636052723973989" lon="11.935452595353127">
        <ele>1376.2646484375</ele>
        <time>2013-06-30T15:33:14Z</time>
      </trkpt>
      <trkpt lat="47.635987680405378" lon="11.935374476015568">
        <ele>1374.82275390625</ele>
        <time>2013-06-30T15:33:21Z</time>
      </trkpt>
      <trkpt lat="47.635974772274494" lon="11.935373218730092">
        <ele>1373.861328125</ele>
        <time>2013-06-30T15:33:25Z</time>
      </trkpt>
      <trkpt lat="47.635874189436436" lon="11.935395011678338">
        <ele>1372.900146484375</ele>
        <time>2013-06-30T15:33:33Z</time>
      </trkpt>
      <trkpt lat="47.635827334597707" lon="11.935392497107387">
        <ele>1371.457763671875</ele>
        <time>2013-06-30T15:33:41Z</time>
      </trkpt>
      <trkpt lat="47.635813001543283" lon="11.935365842655301">
        <ele>1370.015869140625</ele>
        <time>2013-06-30T15:33:43Z</time>
      </trkpt>
      <trkpt lat="47.635786179453135" lon="11.935131819918752">
        <ele>1368.573974609375</ele>
        <time>2013-06-30T15:33:50Z</time>
      </trkpt>
      <trkpt lat="47.635791040956974" lon="11.935064261779189">
        <ele>1368.09326171875</ele>
        <time>2013-06-30T15:33:59Z</time>
      </trkpt>
      <trkpt lat="47.635765895247459" lon="11.934942975640297">
        <ele>1366.170654296875</ele>
        <time>2013-06-30T15:34:08Z</time>
      </trkpt>
      <trkpt lat="47.635756004601717" lon="11.934883464127779">
        <ele>1364.248046875</ele>
        <time>2013-06-30T15:34:11Z</time>
      </trkpt>
      <trkpt lat="47.63566573150456" lon="11.934780953451991">
        <ele>1363.767333984375</ele>
        <time>2013-06-30T15:34:17Z</time>
      </trkpt>
      <trkpt lat="47.635589707642794" lon="11.934757316485047">
        <ele>1362.325439453125</ele>
        <time>2013-06-30T15:34:21Z</time>
      </trkpt>
      <trkpt lat="47.635534638538957" lon="11.934823617339134">
        <ele>1361.3642578125</ele>
        <time>2013-06-30T15:34:28Z</time>
      </trkpt>
      <trkpt lat="47.635504212230444" lon="11.934848846867681">
        <ele>1360.40283203125</ele>
        <time>2013-06-30T15:34:32Z</time>
      </trkpt>
      <trkpt lat="47.635430451482534" lon="11.934853121638298">
        <ele>1358.9609375</ele>
        <time>2013-06-30T15:34:35Z</time>
      </trkpt>
      <trkpt lat="47.635346297174692" lon="11.934797465801239">
        <ele>1358.9609375</ele>
        <time>2013-06-30T15:34:40Z</time>
      </trkpt>
      <trkpt lat="47.635324420407414" lon="11.934761758893728">
        <ele>1358.480224609375</ele>
        <time>2013-06-30T15:34:48Z</time>
      </trkpt>
      <trkpt lat="47.635300699621439" lon="11.934700235724449">
        <ele>1356.5576171875</ele>
        <time>2013-06-30T15:34:55Z</time>
      </trkpt>
      <trkpt lat="47.635319558903575" lon="11.934581631794572">
        <ele>1354.634765625</ele>
        <time>2013-06-30T15:35:06Z</time>
      </trkpt>
      <trkpt lat="47.635317463427782" lon="11.934537123888731">
        <ele>1354.634765625</ele>
        <time>2013-06-30T15:35:13Z</time>
      </trkpt>
      <trkpt lat="47.635292233899236" lon="11.934471325948834">
        <ele>1353.19287109375</ele>
        <time>2013-06-30T15:35:20Z</time>
      </trkpt>
      <trkpt lat="47.635289551690221" lon="11.93440904840827">
        <ele>1352.2314453125</ele>
        <time>2013-06-30T15:35:24Z</time>
      </trkpt>
      <trkpt lat="47.635260885581374" lon="11.934227412566543">
        <ele>1350.78955078125</ele>
        <time>2013-06-30T15:35:30Z</time>
      </trkpt>
      <trkpt lat="47.635217551141977" lon="11.934127248823643">
        <ele>1350.30908203125</ele>
        <time>2013-06-30T15:35:38Z</time>
      </trkpt>
      <trkpt lat="47.635165750980377" lon="11.934061367064714">
        <ele>1348.38623046875</ele>
        <time>2013-06-30T15:35:46Z</time>
      </trkpt>
      <trkpt lat="47.635129541158676" lon="11.9339653942734">
        <ele>1347.90576171875</ele>
        <time>2013-06-30T15:35:53Z</time>
      </trkpt>
      <trkpt lat="47.635126104578376" lon="11.933902110904455">
        <ele>1346.4638671875</ele>
        <time>2013-06-30T15:36:01Z</time>
      </trkpt>
      <trkpt lat="47.635124428197742" lon="11.933856848627329">
        <ele>1345.983154296875</ele>
        <time>2013-06-30T15:36:05Z</time>
      </trkpt>
      <trkpt lat="47.635071286931634" lon="11.933754673227668">
        <ele>1344.060546875</ele>
        <time>2013-06-30T15:36:13Z</time>
      </trkpt>
      <trkpt lat="47.635066509246826" lon="11.933725252747536">
        <ele>1343.09912109375</ele>
        <time>2013-06-30T15:36:15Z</time>
      </trkpt>
      <trkpt lat="47.635089140385389" lon="11.933568343520164">
        <ele>1341.176513671875</ele>
        <time>2013-06-30T15:36:23Z</time>
      </trkpt>
      <trkpt lat="47.63510531745851" lon="11.933520901948214">
        <ele>1341.6572265625</ele>
        <time>2013-06-30T15:36:31Z</time>
      </trkpt>
      <trkpt lat="47.635108754038811" lon="11.933530289679766">
        <ele>1341.6572265625</ele>
        <time>2013-06-30T15:36:40Z</time>
      </trkpt>
      <trkpt lat="47.635137671604753" lon="11.933484105393291">
        <ele>1339.734375</ele>
        <time>2013-06-30T15:36:50Z</time>
      </trkpt>
      <trkpt lat="47.635153513401747" lon="11.933441273868084">
        <ele>1338.773193359375</ele>
        <time>2013-06-30T15:36:58Z</time>
      </trkpt>
      <trkpt lat="47.635142784565687" lon="11.933363154530525">
        <ele>1336.850341796875</ele>
        <time>2013-06-30T15:37:07Z</time>
      </trkpt>
      <trkpt lat="47.635125182569027" lon="11.933323927223682">
        <ele>1336.369873046875</ele>
        <time>2013-06-30T15:37:14Z</time>
      </trkpt>
      <trkpt lat="47.63511017896235" lon="11.933246646076441">
        <ele>1335.88916015625</ele>
        <time>2013-06-30T15:37:21Z</time>
      </trkpt>
      <trkpt lat="47.635095426812768" lon="11.93317087367177">
        <ele>1333.966552734375</ele>
        <time>2013-06-30T15:37:29Z</time>
      </trkpt>
      <trkpt lat="47.635082267224789" lon="11.933127287775278">
        <ele>1333.48583984375</ele>
        <time>2013-06-30T15:37:35Z</time>
      </trkpt>
      <trkpt lat="47.635017391294241" lon="11.932986387982965">
        <ele>1331.082763671875</ele>
        <time>2013-06-30T15:37:44Z</time>
      </trkpt>
      <trkpt lat="47.635007919743657" lon="11.93288991227746">
        <ele>1329.640625</ele>
        <time>2013-06-30T15:37:51Z</time>
      </trkpt>
      <trkpt lat="47.634990988299251" lon="11.93286107853055">
        <ele>1328.679443359375</ele>
        <time>2013-06-30T15:37:57Z</time>
      </trkpt>
      <trkpt lat="47.634960394352674" lon="11.932881949469447">
        <ele>1328.19873046875</ele>
        <time>2013-06-30T15:38:06Z</time>
      </trkpt>
      <trkpt lat="47.634905073791742" lon="11.932894019410014">
        <ele>1326.7568359375</ele>
        <time>2013-06-30T15:38:12Z</time>
      </trkpt>
      <trkpt lat="47.634865259751678" lon="11.932876165956259">
        <ele>1325.314697265625</ele>
        <time>2013-06-30T15:38:15Z</time>
      </trkpt>
      <trkpt lat="47.634862828999758" lon="11.932841883972287">
        <ele>1324.353515625</ele>
        <time>2013-06-30T15:38:18Z</time>
      </trkpt>
      <trkpt lat="47.634921753779054" lon="11.932731326669455">
        <ele>1322.4306640625</ele>
        <time>2013-06-30T15:38:24Z</time>
      </trkpt>
      <trkpt lat="47.634945139288902" lon="11.932679526507854">
        <ele>1321.46923828125</ele>
        <time>2013-06-30T15:38:27Z</time>
      </trkpt>
      <trkpt lat="47.634963076561689" lon="11.932637114077806">
        <ele>1320.508056640625</ele>
        <time>2013-06-30T15:38:29Z</time>
      </trkpt>
      <trkpt lat="47.634953185915947" lon="11.932509709149599">
        <ele>1319.546875</ele>
        <time>2013-06-30T15:38:36Z</time>
      </trkpt>
      <trkpt lat="47.634870540350676" lon="11.932524628937244">
        <ele>1317.6240234375</ele>
        <time>2013-06-30T15:38:44Z</time>
      </trkpt>
      <trkpt lat="47.634843969717622" lon="11.932519683614373">
        <ele>1317.1435546875</ele>
        <time>2013-06-30T15:38:52Z</time>
      </trkpt>
      <trkpt lat="47.63478672131896" lon="11.932517001405358">
        <ele>1314.740234375</ele>
        <time>2013-06-30T15:39:01Z</time>
      </trkpt>
      <trkpt lat="47.634727293625474" lon="11.932520689442754">
        <ele>1313.29833984375</ele>
        <time>2013-06-30T15:39:10Z</time>
      </trkpt>
      <trkpt lat="47.634631237015128" lon="11.932486072182655">
        <ele>1311.375732421875</ele>
        <time>2013-06-30T15:39:21Z</time>
      </trkpt>
      <trkpt lat="47.634611371904612" lon="11.93250585347414">
        <ele>1310.414306640625</ele>
        <time>2013-06-30T15:39:30Z</time>
      </trkpt>
      <trkpt lat="47.634539790451527" lon="11.932504177093506">
        <ele>1310.89501953125</ele>
        <time>2013-06-30T15:39:40Z</time>
      </trkpt>
      <trkpt lat="47.634548172354698" lon="11.932489508762956">
        <ele>1309.453125</ele>
        <time>2013-06-30T15:39:42Z</time>
      </trkpt>
      <trkpt lat="47.634579939767718" lon="11.932424297556281">
        <ele>1308.972412109375</ele>
        <time>2013-06-30T15:39:51Z</time>
      </trkpt>
      <trkpt lat="47.634552195668221" lon="11.932351374998689">
        <ele>1307.5302734375</ele>
        <time>2013-06-30T15:40:01Z</time>
      </trkpt>
      <trkpt lat="47.634547250345349" lon="11.932306028902531">
        <ele>1305.607666015625</ele>
        <time>2013-06-30T15:40:12Z</time>
      </trkpt>
      <trkpt lat="47.634493438526988" lon="11.932280296459794">
        <ele>1304.165771484375</ele>
        <time>2013-06-30T15:40:20Z</time>
      </trkpt>
      <trkpt lat="47.634447673335671" lon="11.932290941476822">
        <ele>1303.204345703125</ele>
        <time>2013-06-30T15:40:25Z</time>
      </trkpt>
      <trkpt lat="47.634369637817144" lon="11.932268729433417">
        <ele>1302.242919921875</ele>
        <time>2013-06-30T15:40:35Z</time>
      </trkpt>
      <trkpt lat="47.634339546784759" lon="11.932282643392682">
        <ele>1300.801025390625</ele>
        <time>2013-06-30T15:40:42Z</time>
      </trkpt>
      <trkpt lat="47.634292943403125" lon="11.932288091629744">
        <ele>1298.87841796875</ele>
        <time>2013-06-30T15:40:52Z</time>
      </trkpt>
      <trkpt lat="47.634282214567065" lon="11.932222545146942">
        <ele>1297.4365234375</ele>
        <time>2013-06-30T15:41:02Z</time>
      </trkpt>
      <trkpt lat="47.634238880127668" lon="11.932216510176659">
        <ele>1295.99462890625</ele>
        <time>2013-06-30T15:41:10Z</time>
      </trkpt>
      <trkpt lat="47.634234605357051" lon="11.932093128561974">
        <ele>1293.110595703125</ele>
        <time>2013-06-30T15:41:20Z</time>
      </trkpt>
      <trkpt lat="47.634257152676582" lon="11.932010315358639">
        <ele>1291.187744140625</ele>
        <time>2013-06-30T15:41:26Z</time>
      </trkpt>
      <trkpt lat="47.634262684732676" lon="11.931926915422082">
        <ele>1290.70703125</ele>
        <time>2013-06-30T15:41:31Z</time>
      </trkpt>
      <trkpt lat="47.634246591478586" lon="11.931810323148966">
        <ele>1288.78466796875</ele>
        <time>2013-06-30T15:41:40Z</time>
      </trkpt>
      <trkpt lat="47.634208705276251" lon="11.931746788322926">
        <ele>1286.86181640625</ele>
        <time>2013-06-30T15:41:48Z</time>
      </trkpt>
      <trkpt lat="47.634163610637188" lon="11.931741088628769">
        <ele>1285.419921875</ele>
        <time>2013-06-30T15:41:59Z</time>
      </trkpt>
      <trkpt lat="47.634162269532681" lon="11.931746704503894">
        <ele>1285.419921875</ele>
        <time>2013-06-30T15:42:00Z</time>
      </trkpt>
      <trkpt lat="47.634131759405136" lon="11.931764641776681">
        <ele>1284.458740234375</ele>
        <time>2013-06-30T15:42:09Z</time>
      </trkpt>
      <trkpt lat="47.634118348360062" lon="11.931732371449471">
        <ele>1283.497314453125</ele>
        <time>2013-06-30T15:42:16Z</time>
      </trkpt>
      <trkpt lat="47.634114325046539" lon="11.931698173284531">
        <ele>1282.055419921875</ele>
        <time>2013-06-30T15:42:18Z</time>
      </trkpt>
      <trkpt lat="47.63412119820714" lon="11.931644780561328">
        <ele>1280.613525390625</ele>
        <time>2013-06-30T15:42:20Z</time>
      </trkpt>
      <trkpt lat="47.634151708334684" lon="11.931542856618762">
        <ele>1279.652099609375</ele>
        <time>2013-06-30T15:42:24Z</time>
      </trkpt>
      <trkpt lat="47.634182637557387" lon="11.931420480832458">
        <ele>1279.17138671875</ele>
        <time>2013-06-30T15:42:31Z</time>
      </trkpt>
      <trkpt lat="47.634213650599122" lon="11.931315958499908">
        <ele>1277.7294921875</ele>
        <time>2013-06-30T15:42:41Z</time>
      </trkpt>
      <trkpt lat="47.634258745238185" lon="11.931214956566691">
        <ele>1275.806640625</ele>
        <time>2013-06-30T15:42:50Z</time>
      </trkpt>
      <trkpt lat="47.634283471852541" lon="11.931176315993071">
        <ele>1275.325927734375</ele>
        <time>2013-06-30T15:42:56Z</time>
      </trkpt>
      <trkpt lat="47.634286656975746" lon="11.931136418133974">
        <ele>1274.845458984375</ele>
        <time>2013-06-30T15:43:03Z</time>
      </trkpt>
      <trkpt lat="47.63426972553134" lon="11.931148571893573">
        <ele>1273.403564453125</ele>
        <time>2013-06-30T15:43:13Z</time>
      </trkpt>
      <trkpt lat="47.634210549294949" lon="11.931092496961355">
        <ele>1271.96142578125</ele>
        <time>2013-06-30T15:43:22Z</time>
      </trkpt>
      <trkpt lat="47.634182637557387" lon="11.931083109229803">
        <ele>1271.000244140625</ele>
        <time>2013-06-30T15:43:26Z</time>
      </trkpt>
      <trkpt lat="47.634116504341364" lon="11.931072128936648">
        <ele>1269.07763671875</ele>
        <time>2013-06-30T15:43:35Z</time>
      </trkpt>
      <trkpt lat="47.63409286737442" lon="11.931032901629806">
        <ele>1267.635498046875</ele>
        <time>2013-06-30T15:43:46Z</time>
      </trkpt>
      <trkpt lat="47.634067554026842" lon="11.93104631267488">
        <ele>1266.67431640625</ele>
        <time>2013-06-30T15:43:51Z</time>
      </trkpt>
      <trkpt lat="47.633988512679935" lon="11.931036841124296">
        <ele>1265.232421875</ele>
        <time>2013-06-30T15:44:00Z</time>
      </trkpt>
      <trkpt lat="47.633918188512325" lon="11.931038433685899">
        <ele>1263.309814453125</ele>
        <time>2013-06-30T15:44:11Z</time>
      </trkpt>
      <trkpt lat="47.633872339501977" lon="11.931033572182059">
        <ele>1262.8291015625</ele>
        <time>2013-06-30T15:44:19Z</time>
      </trkpt>
      <trkpt lat="47.633832776919007" lon="11.931013287976384">
        <ele>1261.867919921875</ele>
        <time>2013-06-30T15:44:27Z</time>
      </trkpt>
      <trkpt lat="47.633753065019846" lon="11.930976826697588">
        <ele>1258.983642578125</ele>
        <time>2013-06-30T15:44:37Z</time>
      </trkpt>
      <trkpt lat="47.63369707390666" lon="11.930992919951677">
        <ele>1258.5029296875</ele>
        <time>2013-06-30T15:44:45Z</time>
      </trkpt>
      <trkpt lat="47.63369414024055" lon="11.930975485593081">
        <ele>1258.0224609375</ele>
        <time>2013-06-30T15:44:47Z</time>
      </trkpt>
      <trkpt lat="47.633743174374104" lon="11.930857803672552">
        <ele>1256.099609375</ele>
        <time>2013-06-30T15:44:57Z</time>
      </trkpt>
      <trkpt lat="47.633797405287623" lon="11.930737355723977">
        <ele>1253.696533203125</ele>
        <time>2013-06-30T15:45:07Z</time>
      </trkpt>
      <trkpt lat="47.633816516026855" lon="11.930711036548018">
        <ele>1253.696533203125</ele>
        <time>2013-06-30T15:45:09Z</time>
      </trkpt>
      <trkpt lat="47.633865717798471" lon="11.930553037673235">
        <ele>1253.2158203125</ele>
        <time>2013-06-30T15:45:19Z</time>
      </trkpt>
      <trkpt lat="47.633882649242878" lon="11.930512972176075">
        <ele>1251.77392578125</ele>
        <time>2013-06-30T15:45:26Z</time>
      </trkpt>
      <trkpt lat="47.633901927620173" lon="11.93045555613935">
        <ele>1250.33203125</ele>
        <time>2013-06-30T15:45:29Z</time>
      </trkpt>
      <trkpt lat="47.63390963897109" lon="11.930428063496947">
        <ele>1249.851318359375</ele>
        <time>2013-06-30T15:45:30Z</time>
      </trkpt>
      <trkpt lat="47.633922295644879" lon="11.930326307192445">
        <ele>1249.851318359375</ele>
        <time>2013-06-30T15:45:37Z</time>
      </trkpt>
      <trkpt lat="47.633920786902308" lon="11.930230418220162">
        <ele>1247.9287109375</ele>
        <time>2013-06-30T15:45:47Z</time>
      </trkpt>
      <trkpt lat="47.63394677080214" lon="11.930158417671919">
        <ele>1246.96728515625</ele>
        <time>2013-06-30T15:45:55Z</time>
      </trkpt>
      <trkpt lat="47.633996643126011" lon="11.930098906159401">
        <ele>1245.525390625</ele>
        <time>2013-06-30T15:46:04Z</time>
      </trkpt>
      <trkpt lat="47.634285734966397" lon="11.929912241175771">
        <ele>1244.08349609375</ele>
        <time>2013-06-30T15:46:13Z</time>
      </trkpt>
      <trkpt lat="47.634338540956378" lon="11.929876198992133">
        <ele>1243.121826171875</ele>
        <time>2013-06-30T15:46:15Z</time>
      </trkpt>
      <trkpt lat="47.634472735226154" lon="11.929919198155403">
        <ele>1241.679931640625</ele>
        <time>2013-06-30T15:46:27Z</time>
      </trkpt>
      <trkpt lat="47.63454481959343" lon="11.929975943639874">
        <ele>1240.238037109375</ele>
        <time>2013-06-30T15:46:36Z</time>
      </trkpt>
      <trkpt lat="47.634589076042175" lon="11.930018607527018">
        <ele>1239.276611328125</ele>
        <time>2013-06-30T15:46:44Z</time>
      </trkpt>
      <trkpt lat="47.634636433795094" lon="11.9300851598382">
        <ele>1238.796142578125</ele>
        <time>2013-06-30T15:46:54Z</time>
      </trkpt>
      <trkpt lat="47.634636433795094" lon="11.930058421567082">
        <ele>1238.796142578125</ele>
        <time>2013-06-30T15:47:02Z</time>
      </trkpt>
      <trkpt lat="47.634636182337999" lon="11.930053560063243">
        <ele>1238.3154296875</ele>
        <time>2013-06-30T15:47:40Z</time>
      </trkpt>
      <trkpt lat="47.634606678038836" lon="11.930035203695297">
        <ele>1238.3154296875</ele>
        <time>2013-06-30T15:47:55Z</time>
      </trkpt>
      <trkpt lat="47.634586729109287" lon="11.929950462654233">
        <ele>1237.35400390625</ele>
        <time>2013-06-30T15:48:04Z</time>
      </trkpt>
      <trkpt lat="47.634569965302944" lon="11.929805288091302">
        <ele>1236.873291015625</ele>
        <time>2013-06-30T15:48:17Z</time>
      </trkpt>
      <trkpt lat="47.634530737996101" lon="11.929722642526031">
        <ele>1235.912109375</ele>
        <time>2013-06-30T15:48:26Z</time>
      </trkpt>
      <trkpt lat="47.634494695812464" lon="11.929680900648236">
        <ele>1236.392822265625</ele>
        <time>2013-06-30T15:48:32Z</time>
      </trkpt>
      <trkpt lat="47.634489834308624" lon="11.929671177640557">
        <ele>1235.912109375</ele>
        <time>2013-06-30T15:48:33Z</time>
      </trkpt>
      <trkpt lat="47.634511291980743" lon="11.929503874853253">
        <ele>1234.950927734375</ele>
        <time>2013-06-30T15:48:41Z</time>
      </trkpt>
      <trkpt lat="47.634574240073562" lon="11.92948903888464">
        <ele>1234.950927734375</ele>
        <time>2013-06-30T15:48:47Z</time>
      </trkpt>
      <trkpt lat="47.634670715779066" lon="11.929490882903337">
        <ele>1234.47021484375</ele>
        <time>2013-06-30T15:48:54Z</time>
      </trkpt>
      <trkpt lat="47.63468655757606" lon="11.929424498230219">
        <ele>1233.989501953125</ele>
        <time>2013-06-30T15:49:02Z</time>
      </trkpt>
      <trkpt lat="47.634689155966043" lon="11.929406896233559">
        <ele>1233.989501953125</ele>
        <time>2013-06-30T15:49:12Z</time>
      </trkpt>
      <trkpt lat="47.634690748527646" lon="11.929384097456932">
        <ele>1233.989501953125</ele>
        <time>2013-06-30T15:49:19Z</time>
      </trkpt>
      <trkpt lat="47.63468261808157" lon="11.929343612864614">
        <ele>1233.5087890625</ele>
        <time>2013-06-30T15:49:29Z</time>
      </trkpt>
      <trkpt lat="47.634661076590419" lon="11.929235653951764">
        <ele>1231.586181640625</ele>
        <time>2013-06-30T15:49:39Z</time>
      </trkpt>
      <trkpt lat="47.63464548625052" lon="11.929194834083319">
        <ele>1231.586181640625</ele>
        <time>2013-06-30T15:49:44Z</time>
      </trkpt>
      <trkpt lat="47.634614557027817" lon="11.929104225710034">
        <ele>1230.625</ele>
        <time>2013-06-30T15:49:53Z</time>
      </trkpt>
      <trkpt lat="47.634613048285246" lon="11.929101292043924">
        <ele>1231.105712890625</ele>
        <time>2013-06-30T15:49:55Z</time>
      </trkpt>
      <trkpt lat="47.634576251730323" lon="11.928958967328072">
        <ele>1229.66357421875</ele>
        <time>2013-06-30T15:50:04Z</time>
      </trkpt>
      <trkpt lat="47.634572060778737" lon="11.928944047540426">
        <ele>1229.182861328125</ele>
        <time>2013-06-30T15:50:05Z</time>
      </trkpt>
      <trkpt lat="47.634588992223144" lon="11.928868107497692">
        <ele>1227.74072265625</ele>
        <time>2013-06-30T15:50:10Z</time>
      </trkpt>
      <trkpt lat="47.634652191773057" lon="11.928772637620568">
        <ele>1225.818115234375</ele>
        <time>2013-06-30T15:50:19Z</time>
      </trkpt>
      <trkpt lat="47.634717738255858" lon="11.928753107786179">
        <ele>1223.4150390625</ele>
        <time>2013-06-30T15:50:30Z</time>
      </trkpt>
      <trkpt lat="47.634772807359695" lon="11.928726956248283">
        <ele>1222.934326171875</ele>
        <time>2013-06-30T15:50:40Z</time>
      </trkpt>
      <trkpt lat="47.634853692725301" lon="11.928636180236936">
        <ele>1221.4921875</ele>
        <time>2013-06-30T15:50:48Z</time>
      </trkpt>
      <trkpt lat="47.634888393804431" lon="11.928601143881679">
        <ele>1220.531005859375</ele>
        <time>2013-06-30T15:50:55Z</time>
      </trkpt>
      <trkpt lat="47.634895518422127" lon="11.92859192378819">
        <ele>1218.6083984375</ele>
        <time>2013-06-30T15:51:14Z</time>
      </trkpt>
      <trkpt lat="47.634943714365363" lon="11.928546074777842">
        <ele>1217.64697265625</ele>
        <time>2013-06-30T15:51:21Z</time>
      </trkpt>
      <trkpt lat="47.634999034926295" lon="11.92845999263227">
        <ele>1216.685791015625</ele>
        <time>2013-06-30T15:51:28Z</time>
      </trkpt>
      <trkpt lat="47.635017307475209" lon="11.928418166935444">
        <ele>1216.205078125</ele>
        <time>2013-06-30T15:51:32Z</time>
      </trkpt>
      <trkpt lat="47.634983444586396" lon="11.928340718150139">
        <ele>1214.76318359375</ele>
        <time>2013-06-30T15:51:40Z</time>
      </trkpt>
      <trkpt lat="47.634907672181726" lon="11.92840039730072">
        <ele>1213.8017578125</ele>
        <time>2013-06-30T15:51:49Z</time>
      </trkpt>
      <trkpt lat="47.634825864806771" lon="11.928430069237947">
        <ele>1213.3212890625</ele>
        <time>2013-06-30T15:51:57Z</time>
      </trkpt>
      <trkpt lat="47.634772891178727" lon="11.928403917700052">
        <ele>1211.879150390625</ele>
        <time>2013-06-30T15:52:05Z</time>
      </trkpt>
      <trkpt lat="47.634687144309282" lon="11.92837349139154">
        <ele>1210.43701171875</ele>
        <time>2013-06-30T15:52:13Z</time>
      </trkpt>
      <trkpt lat="47.634570384398103" lon="11.928283385932446">
        <ele>1208.514404296875</ele>
        <time>2013-06-30T15:52:21Z</time>
      </trkpt>
      <trkpt lat="47.634557392448187" lon="11.928272321820259">
        <ele>1207.55322265625</ele>
        <time>2013-06-30T15:52:22Z</time>
      </trkpt>
      <trkpt lat="47.634407859295607" lon="11.928105186671019">
        <ele>1205.630615234375</ele>
        <time>2013-06-30T15:52:30Z</time>
      </trkpt>
      <trkpt lat="47.63438262976706" lon="11.928073670715094">
        <ele>1205.630615234375</ele>
        <time>2013-06-30T15:52:31Z</time>
      </trkpt>
      <trkpt lat="47.634263355284929" lon="11.927998820319772">
        <ele>1203.7080078125</ele>
        <time>2013-06-30T15:52:36Z</time>
      </trkpt>
      <trkpt lat="47.634214656427503" lon="11.927957329899073">
        <ele>1202.74658203125</ele>
        <time>2013-06-30T15:52:40Z</time>
      </trkpt>
      <trkpt lat="47.634190013632178" lon="11.927934782579541">
        <ele>1202.265869140625</ele>
        <time>2013-06-30T15:52:43Z</time>
      </trkpt>
      <trkpt lat="47.634163778275251" lon="11.927873762324452">
        <ele>1200.823974609375</ele>
        <time>2013-06-30T15:52:51Z</time>
      </trkpt>
      <trkpt lat="47.634128490462899" lon="11.927811652421951">
        <ele>1198.9013671875</ele>
        <time>2013-06-30T15:52:57Z</time>
      </trkpt>
      <trkpt lat="47.634117593988776" lon="11.927657006308436">
        <ele>1196.978759765625</ele>
        <time>2013-06-30T15:53:04Z</time>
      </trkpt>
      <trkpt lat="47.634109128266573" lon="11.927592465654016">
        <ele>1196.498291015625</ele>
        <time>2013-06-30T15:53:09Z</time>
      </trkpt>
      <trkpt lat="47.634080043062568" lon="11.927500264719129">
        <ele>1196.017578125</ele>
        <time>2013-06-30T15:53:14Z</time>
      </trkpt>
      <trkpt lat="47.634061686694622" lon="11.927452068775892">
        <ele>1195.055908203125</ele>
        <time>2013-06-30T15:53:23Z</time>
      </trkpt>
      <trkpt lat="47.634029248729348" lon="11.92738551646471">
        <ele>1193.614013671875</ele>
        <time>2013-06-30T15:53:35Z</time>
      </trkpt>
      <trkpt lat="47.633994966745377" lon="11.927271019667387">
        <ele>1191.210693359375</ele>
        <time>2013-06-30T15:53:45Z</time>
      </trkpt>
      <trkpt lat="47.633972251787782" lon="11.927223242819309">
        <ele>1190.24951171875</ele>
        <time>2013-06-30T15:53:53Z</time>
      </trkpt>
      <trkpt lat="47.633956326171756" lon="11.927178734913468">
        <ele>1188.326904296875</ele>
        <time>2013-06-30T15:54:04Z</time>
      </trkpt>
      <trkpt lat="47.633960600942373" lon="11.9271304551512">
        <ele>1187.365478515625</ele>
        <time>2013-06-30T15:54:16Z</time>
      </trkpt>
      <trkpt lat="47.633961187675595" lon="11.92706935107708">
        <ele>1186.404296875</ele>
        <time>2013-06-30T15:54:24Z</time>
      </trkpt>
      <trkpt lat="47.633924810215831" lon="11.926988549530506">
        <ele>1184.481689453125</ele>
        <time>2013-06-30T15:54:35Z</time>
      </trkpt>
      <trkpt lat="47.633909722790122" lon="11.926959715783596">
        <ele>1183.520263671875</ele>
        <time>2013-06-30T15:54:43Z</time>
      </trkpt>
      <trkpt lat="47.63389790430665" lon="11.926905401051044">
        <ele>1183.520263671875</ele>
        <time>2013-06-30T15:54:50Z</time>
      </trkpt>
      <trkpt lat="47.633884409442544" lon="11.926789898425341">
        <ele>1183.520263671875</ele>
        <time>2013-06-30T15:55:00Z</time>
      </trkpt>
      <trkpt lat="47.633882481604815" lon="11.926788557320833">
        <ele>1183.03955078125</ele>
        <time>2013-06-30T15:55:02Z</time>
      </trkpt>
      <trkpt lat="47.633876530453563" lon="11.926598874852061">
        <ele>1182.078369140625</ele>
        <time>2013-06-30T15:55:10Z</time>
      </trkpt>
      <trkpt lat="47.633823808282614" lon="11.926369462162256">
        <ele>1181.1171875</ele>
        <time>2013-06-30T15:55:16Z</time>
      </trkpt>
      <trkpt lat="47.633819617331028" lon="11.926207272335887">
        <ele>1179.6748046875</ele>
        <time>2013-06-30T15:55:20Z</time>
      </trkpt>
      <trkpt lat="47.633809894323349" lon="11.926037622615695">
        <ele>1180.15576171875</ele>
        <time>2013-06-30T15:55:24Z</time>
      </trkpt>
      <trkpt lat="47.633825484663248" lon="11.925834361463785">
        <ele>1177.752197265625</ele>
        <time>2013-06-30T15:55:28Z</time>
      </trkpt>
      <trkpt lat="47.633874015882611" lon="11.925564799457788">
        <ele>1176.791015625</ele>
        <time>2013-06-30T15:55:32Z</time>
      </trkpt>
      <trkpt lat="47.633839566260576" lon="11.925390707328916">
        <ele>1175.82958984375</ele>
        <time>2013-06-30T15:55:37Z</time>
      </trkpt>
      <trkpt lat="47.633661953732371" lon="11.925280820578337">
        <ele>1173.906982421875</ele>
        <time>2013-06-30T15:55:45Z</time>
      </trkpt>
      <trkpt lat="47.633625827729702" lon="11.925216028466821">
        <ele>1174.3876953125</ele>
        <time>2013-06-30T15:55:48Z</time>
      </trkpt>
      <trkpt lat="47.633549049496651" lon="11.925120390951633">
        <ele>1173.906982421875</ele>
        <time>2013-06-30T15:55:56Z</time>
      </trkpt>
      <trkpt lat="47.633470259606838" lon="11.925070015713573">
        <ele>1172.94580078125</ele>
        <time>2013-06-30T15:56:02Z</time>
      </trkpt>
      <trkpt lat="47.633374286815524" lon="11.924838172271848">
        <ele>1171.023193359375</ele>
        <time>2013-06-30T15:56:09Z</time>
      </trkpt>
      <trkpt lat="47.633290216326714" lon="11.924652680754662">
        <ele>1170.061767578125</ele>
        <time>2013-06-30T15:56:15Z</time>
      </trkpt>
      <trkpt lat="47.63316348195076" lon="11.924496274441481">
        <ele>1168.619873046875</ele>
        <time>2013-06-30T15:56:22Z</time>
      </trkpt>
      <trkpt lat="47.633081674575806" lon="11.924281781539321">
        <ele>1167.177978515625</ele>
        <time>2013-06-30T15:56:27Z</time>
      </trkpt>
      <trkpt lat="47.633022246882319" lon="11.92412881180644">
        <ele>1165.736083984375</ele>
        <time>2013-06-30T15:56:33Z</time>
      </trkpt>
      <trkpt lat="47.633020570501685" lon="11.92377794533968">
        <ele>1163.33251953125</ele>
        <time>2013-06-30T15:56:40Z</time>
      </trkpt>
      <trkpt lat="47.633027527481318" lon="11.923569738864899">
        <ele>1162.37109375</ele>
        <time>2013-06-30T15:56:43Z</time>
      </trkpt>
      <trkpt lat="47.63303741812706" lon="11.923363711684942">
        <ele>1161.890625</ele>
        <time>2013-06-30T15:56:46Z</time>
      </trkpt>
      <trkpt lat="47.633092822507024" lon="11.923053665086627">
        <ele>1159.9677734375</ele>
        <time>2013-06-30T15:56:51Z</time>
      </trkpt>
      <trkpt lat="47.633143784478307" lon="11.922850487753749">
        <ele>1159.4873046875</ele>
        <time>2013-06-30T15:56:57Z</time>
      </trkpt>
      <trkpt lat="47.633106652647257" lon="11.922589475288987">
        <ele>1157.564697265625</ele>
        <time>2013-06-30T15:57:04Z</time>
      </trkpt>
      <trkpt lat="47.633194327354431" lon="11.922201560810208">
        <ele>1155.64208984375</ele>
        <time>2013-06-30T15:57:10Z</time>
      </trkpt>
      <trkpt lat="47.63331837952137" lon="11.921981703490019">
        <ele>1154.6806640625</ele>
        <time>2013-06-30T15:57:12Z</time>
      </trkpt>
      <trkpt lat="47.633480988442898" lon="11.921702921390533">
        <ele>1153.23876953125</ele>
        <time>2013-06-30T15:57:17Z</time>
      </trkpt>
      <trkpt lat="47.633503284305334" lon="11.921669309958816">
        <ele>1152.758056640625</ele>
        <time>2013-06-30T15:57:19Z</time>
      </trkpt>
      <trkpt lat="47.633535554632545" lon="11.921544000506401">
        <ele>1151.796875</ele>
        <time>2013-06-30T15:57:24Z</time>
      </trkpt>
      <trkpt lat="47.63352558016777" lon="11.92144132219255">
        <ele>1151.316162109375</ele>
        <time>2013-06-30T15:57:26Z</time>
      </trkpt>
      <trkpt lat="47.633557850494981" lon="11.920987777411938">
        <ele>1148.43212890625</ele>
        <time>2013-06-30T15:57:34Z</time>
      </trkpt>
      <trkpt lat="47.633665222674608" lon="11.920610005035996">
        <ele>1146.509521484375</ele>
        <time>2013-06-30T15:57:42Z</time>
      </trkpt>
      <trkpt lat="47.633722387254238" lon="11.920473799109459">
        <ele>1146.02880859375</ele>
        <time>2013-06-30T15:57:45Z</time>
      </trkpt>
      <trkpt lat="47.633800758048892" lon="11.920224437490106">
        <ele>1145.0673828125</ele>
        <time>2013-06-30T15:57:50Z</time>
      </trkpt>
      <trkpt lat="47.633800925686955" lon="11.919998461380601">
        <ele>1143.62548828125</ele>
        <time>2013-06-30T15:57:54Z</time>
      </trkpt>
      <trkpt lat="47.63373370282352" lon="11.919855801388621">
        <ele>1143.62548828125</ele>
        <time>2013-06-30T15:57:58Z</time>
      </trkpt>
      <trkpt lat="47.633649213239551" lon="11.919837025925517">
        <ele>1143.144775390625</ele>
        <time>2013-06-30T15:58:01Z</time>
      </trkpt>
      <trkpt lat="47.633586432784796" lon="11.919682547450066">
        <ele>1141.702880859375</ele>
        <time>2013-06-30T15:58:06Z</time>
      </trkpt>
      <trkpt lat="47.633693553507328" lon="11.919494457542896">
        <ele>1140.741455078125</ele>
        <time>2013-06-30T15:58:11Z</time>
      </trkpt>
      <trkpt lat="47.633698247373104" lon="11.919463947415352">
        <ele>1140.260986328125</ele>
        <time>2013-06-30T15:58:18Z</time>
      </trkpt>
      <trkpt lat="47.633706294000149" lon="11.919433940201998">
        <ele>1140.741455078125</ele>
        <time>2013-06-30T15:58:26Z</time>
      </trkpt>
      <trkpt lat="47.633699253201485" lon="11.919420696794987">
        <ele>1140.260986328125</ele>
        <time>2013-06-30T15:58:39Z</time>
      </trkpt>
      <trkpt lat="47.633712077513337" lon="11.91945162601769">
        <ele>1140.741455078125</ele>
        <time>2013-06-30T15:58:55Z</time>
      </trkpt>
      <trkpt lat="47.633727500215173" lon="11.919443495571613">
        <ele>1140.741455078125</ele>
        <time>2013-06-30T15:59:03Z</time>
      </trkpt>
      <trkpt lat="47.633810145780444" lon="11.919330842792988">
        <ele>1139.7802734375</ele>
        <time>2013-06-30T15:59:10Z</time>
      </trkpt>
      <trkpt lat="47.633869154378772" lon="11.919094724580646">
        <ele>1138.33837890625</ele>
        <time>2013-06-30T15:59:16Z</time>
      </trkpt>
      <trkpt lat="47.633798327296972" lon="11.918881740421057">
        <ele>1137.857666015625</ele>
        <time>2013-06-30T15:59:22Z</time>
      </trkpt>
      <trkpt lat="47.633638316765428" lon="11.918819043785334">
        <ele>1135.93505859375</ele>
        <time>2013-06-30T15:59:28Z</time>
      </trkpt>
      <trkpt lat="47.633612751960754" lon="11.918800016865134">
        <ele>1135.93505859375</ele>
        <time>2013-06-30T15:59:29Z</time>
      </trkpt>
      <trkpt lat="47.633627504110336" lon="11.918625086545944">
        <ele>1134.012451171875</ele>
        <time>2013-06-30T15:59:34Z</time>
      </trkpt>
      <trkpt lat="47.633714759722352" lon="11.918499525636435">
        <ele>1134.012451171875</ele>
        <time>2013-06-30T15:59:37Z</time>
      </trkpt>
      <trkpt lat="47.633810145780444" lon="11.918311519548297">
        <ele>1133.051025390625</ele>
        <time>2013-06-30T15:59:41Z</time>
      </trkpt>
      <trkpt lat="47.633937550708652" lon="11.918206829577684">
        <ele>1131.60888671875</ele>
        <time>2013-06-30T15:59:46Z</time>
      </trkpt>
      <trkpt lat="47.633979795500636" lon="11.918155364692211">
        <ele>1131.60888671875</ele>
        <time>2013-06-30T15:59:48Z</time>
      </trkpt>
      <trkpt lat="47.634127400815487" lon="11.917999126017094">
        <ele>1130.1669921875</ele>
        <time>2013-06-30T15:59:53Z</time>
      </trkpt>
      <trkpt lat="47.634297469630837" lon="11.91798085346818">
        <ele>1129.686279296875</ele>
        <time>2013-06-30T15:59:58Z</time>
      </trkpt>
      <trkpt lat="47.634351029992104" lon="11.917867111042142">
        <ele>1127.283203125</ele>
        <time>2013-06-30T16:00:01Z</time>
      </trkpt>
      <trkpt lat="47.634511040523648" lon="11.917515741661191">
        <ele>1126.32177734375</ele>
        <time>2013-06-30T16:00:08Z</time>
      </trkpt>
      <trkpt lat="47.634657137095928" lon="11.91726160235703">
        <ele>1124.399169921875</ele>
        <time>2013-06-30T16:00:14Z</time>
      </trkpt>
      <trkpt lat="47.634826535359025" lon="11.916957758367062">
        <ele>1121.51513671875</ele>
        <time>2013-06-30T16:00:21Z</time>
      </trkpt>
      <trkpt lat="47.63484388589859" lon="11.916905203834176">
        <ele>1121.51513671875</ele>
        <time>2013-06-30T16:00:22Z</time>
      </trkpt>
      <trkpt lat="47.634983109310269" lon="11.916711246594787">
        <ele>1120.0732421875</ele>
        <time>2013-06-30T16:00:27Z</time>
      </trkpt>
      <trkpt lat="47.635060725733638" lon="11.916722226887941">
        <ele>1119.5927734375</ele>
        <time>2013-06-30T16:00:29Z</time>
      </trkpt>
      <trkpt lat="47.63515661470592" lon="11.916707558557391">
        <ele>1118.63134765625</ele>
        <time>2013-06-30T16:00:33Z</time>
      </trkpt>
      <trkpt lat="47.635122248902917" lon="11.91641092300415">
        <ele>1117.189453125</ele>
        <time>2013-06-30T16:00:40Z</time>
      </trkpt>
      <trkpt lat="47.635084111243486" lon="11.916173715144396">
        <ele>1115.2666015625</ele>
        <time>2013-06-30T16:00:45Z</time>
      </trkpt>
      <trkpt lat="47.635120321065187" lon="11.915988307446241">
        <ele>1114.785888671875</ele>
        <time>2013-06-30T16:00:50Z</time>
      </trkpt>
      <trkpt lat="47.635139431804419" lon="11.915965676307678">
        <ele>1114.30517578125</ele>
        <time>2013-06-30T16:00:57Z</time>
      </trkpt>
      <trkpt lat="47.635149825364351" lon="11.915920162573457">
        <ele>1113.824462890625</ele>
        <time>2013-06-30T16:00:59Z</time>
      </trkpt>
      <trkpt lat="47.635157788172364" lon="11.91580449230969">
        <ele>1112.86328125</ele>
        <time>2013-06-30T16:01:03Z</time>
      </trkpt>
      <trkpt lat="47.635136162862182" lon="11.915486482903361">
        <ele>1111.902099609375</ele>
        <time>2013-06-30T16:01:10Z</time>
      </trkpt>
      <trkpt lat="47.635235320776701" lon="11.915203342214227">
        <ele>1110.4599609375</ele>
        <time>2013-06-30T16:01:15Z</time>
      </trkpt>
      <trkpt lat="47.63527731411159" lon="11.915052132681012">
        <ele>1109.498779296875</ele>
        <time>2013-06-30T16:01:18Z</time>
      </trkpt>
      <trkpt lat="47.635259795933962" lon="11.914825569838285">
        <ele>1108.537353515625</ele>
        <time>2013-06-30T16:01:23Z</time>
      </trkpt>
      <trkpt lat="47.635287372395396" lon="11.914435308426619">
        <ele>1106.61474609375</ele>
        <time>2013-06-30T16:01:30Z</time>
      </trkpt>
      <trkpt lat="47.635309416800737" lon="11.914159040898085">
        <ele>1105.1728515625</ele>
        <time>2013-06-30T16:01:36Z</time>
      </trkpt>
      <trkpt lat="47.635348308831453" lon="11.913874223828316">
        <ele>1103.73095703125</ele>
        <time>2013-06-30T16:01:43Z</time>
      </trkpt>
      <trkpt lat="47.63537161052227" lon="11.913838852196932">
        <ele>1103.250244140625</ele>
        <time>2013-06-30T16:01:50Z</time>
      </trkpt>
      <trkpt lat="47.63537353836" lon="11.913843881338835">
        <ele>1102.76953125</ele>
        <time>2013-06-30T16:01:59Z</time>
      </trkpt>
      <trkpt lat="47.635376807302237" lon="11.913824519142509">
        <ele>1103.250244140625</ele>
        <time>2013-06-30T16:02:10Z</time>
      </trkpt>
      <trkpt lat="47.635388122871518" lon="11.913814544677734">
        <ele>1102.76953125</ele>
        <time>2013-06-30T16:02:13Z</time>
      </trkpt>
      <trkpt lat="47.635474791750312" lon="11.913737934082747">
        <ele>1101.808349609375</ele>
        <time>2013-06-30T16:02:19Z</time>
      </trkpt>
      <trkpt lat="47.635505888611078" lon="11.913722846657038">
        <ele>1102.288818359375</ele>
        <time>2013-06-30T16:02:20Z</time>
      </trkpt>
      <trkpt lat="47.6356100756675" lon="11.913744136691093">
        <ele>1101.32763671875</ele>
        <time>2013-06-30T16:02:23Z</time>
      </trkpt>
      <trkpt lat="47.635753406211734" lon="11.913782358169556">
        <ele>1099.885498046875</ele>
        <time>2013-06-30T16:02:27Z</time>
      </trkpt>
      <trkpt lat="47.63581769540906" lon="11.913763750344515">
        <ele>1099.885498046875</ele>
        <time>2013-06-30T16:02:29Z</time>
      </trkpt>
      <trkpt lat="47.635834710672498" lon="11.913643218576908">
        <ele>1098.443359375</ele>
        <time>2013-06-30T16:02:34Z</time>
      </trkpt>
      <trkpt lat="47.635670090094209" lon="11.913462672382593">
        <ele>1096.52099609375</ele>
        <time>2013-06-30T16:02:38Z</time>
      </trkpt>
      <trkpt lat="47.635539751499891" lon="11.913347002118826">
        <ele>1096.040283203125</ele>
        <time>2013-06-30T16:02:40Z</time>
      </trkpt>
      <trkpt lat="47.635382506996393" lon="11.913309115916491">
        <ele>1094.59814453125</ele>
        <time>2013-06-30T16:02:43Z</time>
      </trkpt>
      <trkpt lat="47.635299609974027" lon="11.913098394870758">
        <ele>1093.15625</ele>
        <time>2013-06-30T16:02:47Z</time>
      </trkpt>
      <trkpt lat="47.635370688512921" lon="11.912947772070765">
        <ele>1091.71435546875</ele>
        <time>2013-06-30T16:02:50Z</time>
      </trkpt>
      <trkpt lat="47.635444616898894" lon="11.912879543378949">
        <ele>1090.7529296875</ele>
        <time>2013-06-30T16:02:52Z</time>
      </trkpt>
      <trkpt lat="47.635534387081861" lon="11.912744175642729">
        <ele>1091.233642578125</ele>
        <time>2013-06-30T16:02:55Z</time>
      </trkpt>
      <trkpt lat="47.6357033662498" lon="11.912615681067109">
        <ele>1089.31103515625</ele>
        <time>2013-06-30T16:03:00Z</time>
      </trkpt>
      <trkpt lat="47.635830268263817" lon="11.912549128755927">
        <ele>1087.869140625</ele>
        <time>2013-06-30T16:03:03Z</time>
      </trkpt>
      <trkpt lat="47.635893132537603" lon="11.912304125726223">
        <ele>1086.90771484375</ele>
        <time>2013-06-30T16:03:07Z</time>
      </trkpt>
      <trkpt lat="47.636020537465811" lon="11.911907829344273">
        <ele>1084.9853515625</ele>
        <time>2013-06-30T16:03:13Z</time>
      </trkpt>
      <trkpt lat="47.636070661246777" lon="11.911752512678504">
        <ele>1083.062255859375</ele>
        <time>2013-06-30T16:03:15Z</time>
      </trkpt>
      <trkpt lat="47.636100500822067" lon="11.911581940948963">
        <ele>1083.54296875</ele>
        <time>2013-06-30T16:03:17Z</time>
      </trkpt>
      <trkpt lat="47.636121958494186" lon="11.911335261538625">
        <ele>1082.10107421875</ele>
        <time>2013-06-30T16:03:20Z</time>
      </trkpt>
      <trkpt lat="47.636194545775652" lon="11.911108111962676">
        <ele>1081.139892578125</ele>
        <time>2013-06-30T16:03:23Z</time>
      </trkpt>
      <trkpt lat="47.636310635134578" lon="11.910885069519281">
        <ele>1079.69775390625</ele>
        <time>2013-06-30T16:03:26Z</time>
      </trkpt>
      <trkpt lat="47.636418929323554" lon="11.91068759188056">
        <ele>1076.81396484375</ele>
        <time>2013-06-30T16:03:29Z</time>
      </trkpt>
      <trkpt lat="47.636503335088491" lon="11.910367654636502">
        <ele>1075.8525390625</ele>
        <time>2013-06-30T16:03:33Z</time>
      </trkpt>
      <trkpt lat="47.636493612080812" lon="11.910190042108297">
        <ele>1075.8525390625</ele>
        <time>2013-06-30T16:03:35Z</time>
      </trkpt>
      <trkpt lat="47.636499060317874" lon="11.910007735714316">
        <ele>1074.891357421875</ele>
        <time>2013-06-30T16:03:37Z</time>
      </trkpt>
      <trkpt lat="47.636501491069794" lon="11.909725181758404">
        <ele>1073.929931640625</ele>
        <time>2013-06-30T16:03:40Z</time>
      </trkpt>
      <trkpt lat="47.636499395594001" lon="11.909444388002157">
        <ele>1072.96875</ele>
        <time>2013-06-30T16:03:43Z</time>
      </trkpt>
      <trkpt lat="47.636531749740243" lon="11.909205336123705">
        <ele>1071.526611328125</ele>
        <time>2013-06-30T16:03:47Z</time>
      </trkpt>
      <trkpt lat="47.63655018992722" lon="11.908967457711697">
        <ele>1071.046142578125</ele>
        <time>2013-06-30T16:03:51Z</time>
      </trkpt>
      <trkpt lat="47.636605091392994" lon="11.9088464230299">
        <ele>1071.046142578125</ele>
        <time>2013-06-30T16:03:53Z</time>
      </trkpt>
      <trkpt lat="47.636680277064443" lon="11.908335713669658">
        <ele>1067.68115234375</ele>
        <time>2013-06-30T16:04:00Z</time>
      </trkpt>
      <trkpt lat="47.636717325076461" lon="11.907984679564834">
        <ele>1066.719970703125</ele>
        <time>2013-06-30T16:04:04Z</time>
      </trkpt>
      <trkpt lat="47.636713888496161" lon="11.907811257988214">
        <ele>1065.278076171875</ele>
        <time>2013-06-30T16:04:06Z</time>
      </trkpt>
      <trkpt lat="47.63667625375092" lon="11.907629454508424">
        <ele>1064.316650390625</ele>
        <time>2013-06-30T16:04:08Z</time>
      </trkpt>
      <trkpt lat="47.636581286787987" lon="11.907372968271375">
        <ele>1062.874755859375</ele>
        <time>2013-06-30T16:04:11Z</time>
      </trkpt>
      <trkpt lat="47.636509872972965" lon="11.907025454565883">
        <ele>1061.91357421875</ele>
        <time>2013-06-30T16:04:15Z</time>
      </trkpt>
      <trkpt lat="47.636227905750275" lon="11.906471159309149">
        <ele>1058.548828125</ele>
        <time>2013-06-30T16:04:22Z</time>
      </trkpt>
      <trkpt lat="47.636127909645438" lon="11.906129764392972">
        <ele>1057.587646484375</ele>
        <time>2013-06-30T16:04:27Z</time>
      </trkpt>
      <trkpt lat="47.636026153340936" lon="11.905926754698157">
        <ele>1056.1455078125</ele>
        <time>2013-06-30T16:04:31Z</time>
      </trkpt>
      <trkpt lat="47.635776372626424" lon="11.905471868813038">
        <ele>1052.781005859375</ele>
        <time>2013-06-30T16:04:38Z</time>
      </trkpt>
      <trkpt lat="47.635727087035775" lon="11.905399030074477">
        <ele>1052.30029296875</ele>
        <time>2013-06-30T16:04:39Z</time>
      </trkpt>
      <trkpt lat="47.635626001283526" lon="11.905274894088507">
        <ele>1051.3388671875</ele>
        <time>2013-06-30T16:04:41Z</time>
      </trkpt>
      <trkpt lat="47.635554671287537" lon="11.905136173591018">
        <ele>1050.377685546875</ele>
        <time>2013-06-30T16:04:45Z</time>
      </trkpt>
      <trkpt lat="47.635546205565333" lon="11.90510893240571">
        <ele>1050.377685546875</ele>
        <time>2013-06-30T16:04:46Z</time>
      </trkpt>
      <trkpt lat="47.635596748441458" lon="11.904968451708555">
        <ele>1049.89697265625</ele>
        <time>2013-06-30T16:04:49Z</time>
      </trkpt>
      <trkpt lat="47.635654332116246" lon="11.904809111729264">
        <ele>1048.935546875</ele>
        <time>2013-06-30T16:04:51Z</time>
      </trkpt>
      <trkpt lat="47.635689033195376" lon="11.904452042654157">
        <ele>1047.012939453125</ele>
        <time>2013-06-30T16:04:56Z</time>
      </trkpt>
      <trkpt lat="47.635669419541955" lon="11.904116598889232">
        <ele>1045.09033203125</ele>
        <time>2013-06-30T16:05:01Z</time>
      </trkpt>
      <trkpt lat="47.635701522231102" lon="11.903994474560022">
        <ele>1045.571044921875</ele>
        <time>2013-06-30T16:05:03Z</time>
      </trkpt>
      <trkpt lat="47.63570143841207" lon="11.903578313067555">
        <ele>1043.167724609375</ele>
        <time>2013-06-30T16:05:09Z</time>
      </trkpt>
      <trkpt lat="47.635740749537945" lon="11.903469515964389">
        <ele>1042.20654296875</ele>
        <time>2013-06-30T16:05:11Z</time>
      </trkpt>
      <trkpt lat="47.635920792818069" lon="11.903310343623161">
        <ele>1042.20654296875</ele>
        <time>2013-06-30T16:05:17Z</time>
      </trkpt>
      <trkpt lat="47.635911153629422" lon="11.903311014175415">
        <ele>1042.20654296875</ele>
        <time>2013-06-30T16:05:29Z</time>
      </trkpt>
      <trkpt lat="47.635923223569989" lon="11.903314534574747">
        <ele>1041.725830078125</ele>
        <time>2013-06-30T16:05:34Z</time>
      </trkpt>
      <trkpt lat="47.635937388986349" lon="11.903292490169406">
        <ele>1041.725830078125</ele>
        <time>2013-06-30T16:05:41Z</time>
      </trkpt>
      <trkpt lat="47.635969743132591" lon="11.903090821579099">
        <ele>1040.764404296875</ele>
        <time>2013-06-30T16:05:47Z</time>
      </trkpt>
      <trkpt lat="47.636140482500196" lon="11.902936762198806">
        <ele>1039.80322265625</ele>
        <time>2013-06-30T16:05:52Z</time>
      </trkpt>
      <trkpt lat="47.636282136663795" lon="11.902923602610826">
        <ele>1038.361328125</ele>
        <time>2013-06-30T16:05:58Z</time>
      </trkpt>
      <trkpt lat="47.63636059127748" lon="11.902926955372095">
        <ele>1037.39990234375</ele>
        <time>2013-06-30T16:06:00Z</time>
      </trkpt>
      <trkpt lat="47.636520182713866" lon="11.902708355337381">
        <ele>1036.438720703125</ele>
        <time>2013-06-30T16:06:06Z</time>
      </trkpt>
      <trkpt lat="47.636540047824383" lon="11.902669044211507">
        <ele>1035.47705078125</ele>
        <time>2013-06-30T16:06:07Z</time>
      </trkpt>
      <trkpt lat="47.636705925688148" lon="11.902459831908345">
        <ele>1034.515869140625</ele>
        <time>2013-06-30T16:06:13Z</time>
      </trkpt>
      <trkpt lat="47.636858560144901" lon="11.902270065620542">
        <ele>1033.07373046875</ele>
        <time>2013-06-30T16:06:18Z</time>
      </trkpt>
      <trkpt lat="47.636967608705163" lon="11.902132853865623">
        <ele>1031.1513671875</ele>
        <time>2013-06-30T16:06:22Z</time>
      </trkpt>
      <trkpt lat="47.637180676683784" lon="11.901977537199855">
        <ele>1030.670654296875</ele>
        <time>2013-06-30T16:06:27Z</time>
      </trkpt>
      <trkpt lat="47.637294251471758" lon="11.901798583567142">
        <ele>1029.709228515625</ele>
        <time>2013-06-30T16:06:31Z</time>
      </trkpt>
      <trkpt lat="47.637326605618" lon="11.901751812547445">
        <ele>1028.748046875</ele>
        <time>2013-06-30T16:06:32Z</time>
      </trkpt>
      <trkpt lat="47.63740036636591" lon="11.90167143009603">
        <ele>1028.267333984375</ele>
        <time>2013-06-30T16:06:34Z</time>
      </trkpt>
      <trkpt lat="47.637616284191608" lon="11.90140949562192">
        <ele>1026.825439453125</ele>
        <time>2013-06-30T16:06:41Z</time>
      </trkpt>
      <trkpt lat="47.637631287798285" lon="11.901285862550139">
        <ele>1025.38330078125</ele>
        <time>2013-06-30T16:06:46Z</time>
      </trkpt>
      <trkpt lat="47.637644531205297" lon="11.90121503546834">
        <ele>1024.90283203125</ele>
        <time>2013-06-30T16:06:50Z</time>
      </trkpt>
      <trkpt lat="47.637656098231673" lon="11.901210006326437">
        <ele>1025.38330078125</ele>
        <time>2013-06-30T16:06:57Z</time>
      </trkpt>
      <trkpt lat="47.637663055211306" lon="11.901212520897388">
        <ele>1025.864013671875</ele>
        <time>2013-06-30T16:07:09Z</time>
      </trkpt>
      <trkpt lat="47.637674286961555" lon="11.901164911687374">
        <ele>1024.90283203125</ele>
        <time>2013-06-30T16:07:17Z</time>
      </trkpt>
      <trkpt lat="47.637761710211635" lon="11.900991322472692">
        <ele>1023.4609375</ele>
        <time>2013-06-30T16:07:22Z</time>
      </trkpt>
      <trkpt lat="47.637901017442346" lon="11.900804406031966">
        <ele>1022.49951171875</ele>
        <time>2013-06-30T16:07:26Z</time>
      </trkpt>
      <trkpt lat="47.637987770140171" lon="11.900702565908432">
        <ele>1021.5380859375</ele>
        <time>2013-06-30T16:07:28Z</time>
      </trkpt>
      <trkpt lat="47.638120455667377" lon="11.900560073554516">
        <ele>1019.615478515625</ele>
        <time>2013-06-30T16:07:31Z</time>
      </trkpt>
      <trkpt lat="47.638270743191242" lon="11.900364439934492">
        <ele>1018.17333984375</ele>
        <time>2013-06-30T16:07:35Z</time>
      </trkpt>
      <trkpt lat="47.638400495052338" lon="11.900194119662046">
        <ele>1016.7314453125</ele>
        <time>2013-06-30T16:07:38Z</time>
      </trkpt>
      <trkpt lat="47.638475429266691" lon="11.899928748607635">
        <ele>1016.7314453125</ele>
        <time>2013-06-30T16:07:42Z</time>
      </trkpt>
      <trkpt lat="47.63854181393981" lon="11.899644350633025">
        <ele>1013.847412109375</ele>
        <time>2013-06-30T16:07:46Z</time>
      </trkpt>
      <trkpt lat="47.638705847784877" lon="11.899477718397975">
        <ele>1012.405517578125</ele>
        <time>2013-06-30T16:07:51Z</time>
      </trkpt>
      <trkpt lat="47.638678271323442" lon="11.89927370287478">
        <ele>1010.002197265625</ele>
        <time>2013-06-30T16:07:56Z</time>
      </trkpt>
      <trkpt lat="47.638640217483044" lon="11.899233469739556">
        <ele>1010.48291015625</ele>
        <time>2013-06-30T16:07:57Z</time>
      </trkpt>
      <trkpt lat="47.63859604485333" lon="11.899085864424706">
        <ele>1008.079833984375</ele>
        <time>2013-06-30T16:08:00Z</time>
      </trkpt>
      <trkpt lat="47.638605097308755" lon="11.899012103676796">
        <ele>1006.6376953125</ele>
        <time>2013-06-30T16:08:01Z</time>
      </trkpt>
      <trkpt lat="47.638642732053995" lon="11.89873181283474">
        <ele>1005.19580078125</ele>
        <time>2013-06-30T16:08:05Z</time>
      </trkpt>
      <trkpt lat="47.638688497245312" lon="11.898464597761631">
        <ele>1003.753662109375</ele>
        <time>2013-06-30T16:08:09Z</time>
      </trkpt>
      <trkpt lat="47.638667039573193" lon="11.898375414311886">
        <ele>1002.3115234375</ele>
        <time>2013-06-30T16:08:10Z</time>
      </trkpt>
      <trkpt lat="47.638625130057335" lon="11.898204842582345">
        <ele>1001.350341796875</ele>
        <time>2013-06-30T16:08:12Z</time>
      </trkpt>
      <trkpt lat="47.638643318787217" lon="11.898004682734609">
        <ele>998.46630859375</ele>
        <time>2013-06-30T16:08:15Z</time>
      </trkpt>
      <trkpt lat="47.638645498082042" lon="11.897938214242458">
        <ele>997.98583984375</ele>
        <time>2013-06-30T16:08:16Z</time>
      </trkpt>
      <trkpt lat="47.638577185571194" lon="11.897673262283206">
        <ele>995.101806640625</ele>
        <time>2013-06-30T16:08:19Z</time>
      </trkpt>
      <trkpt lat="47.638543993234634" lon="11.897339411079884">
        <ele>993.17919921875</ele>
        <time>2013-06-30T16:08:22Z</time>
      </trkpt>
      <trkpt lat="47.638439889997244" lon="11.896983599290252">
        <ele>993.17919921875</ele>
        <time>2013-06-30T16:08:26Z</time>
      </trkpt>
      <trkpt lat="47.638385407626629" lon="11.896914197131991">
        <ele>993.659912109375</ele>
        <time>2013-06-30T16:08:29Z</time>
      </trkpt>
      <trkpt lat="47.638391945511103" lon="11.896946048364043">
        <ele>993.659912109375</ele>
        <time>2013-06-30T16:08:37Z</time>
      </trkpt>
      <trkpt lat="47.638386329635978" lon="11.896943030878901">
        <ele>993.17919921875</ele>
        <time>2013-06-30T16:08:43Z</time>
      </trkpt>
      <trkpt lat="47.63836394995451" lon="11.896924087777734">
        <ele>993.659912109375</ele>
        <time>2013-06-30T16:08:47Z</time>
      </trkpt>
      <trkpt lat="47.638393957167864" lon="11.896907826885581">
        <ele>993.17919921875</ele>
        <time>2013-06-30T16:08:53Z</time>
      </trkpt>
      <trkpt lat="47.638463024049997" lon="11.896827276796103">
        <ele>991.7373046875</ele>
        <time>2013-06-30T16:08:57Z</time>
      </trkpt>
      <trkpt lat="47.638606522232294" lon="11.896749157458544">
        <ele>988.853515625</ele>
        <time>2013-06-30T16:09:00Z</time>
      </trkpt>
      <trkpt lat="47.638653377071023" lon="11.896732645109296">
        <ele>987.891845703125</ele>
        <time>2013-06-30T16:09:01Z</time>
      </trkpt>
      <trkpt lat="47.638774998486042" lon="11.896671624854207">
        <ele>986.449951171875</ele>
        <time>2013-06-30T16:09:04Z</time>
      </trkpt>
      <trkpt lat="47.638850351795554" lon="11.896638516336679">
        <ele>985.488525390625</ele>
        <time>2013-06-30T16:09:06Z</time>
      </trkpt>
      <trkpt lat="47.639096360653639" lon="11.896656705066562">
        <ele>981.643310546875</ele>
        <time>2013-06-30T16:09:12Z</time>
      </trkpt>
      <trkpt lat="47.639323342591524" lon="11.896703392267227">
        <ele>980.201416015625</ele>
        <time>2013-06-30T16:09:16Z</time>
      </trkpt>
      <trkpt lat="47.639451418071985" lon="11.896768687292933">
        <ele>977.798095703125</ele>
        <time>2013-06-30T16:09:20Z</time>
      </trkpt>
      <trkpt lat="47.639490896835923" lon="11.896745637059212">
        <ele>976.356201171875</ele>
        <time>2013-06-30T16:09:21Z</time>
      </trkpt>
      <trkpt lat="47.639658870175481" lon="11.896593421697617">
        <ele>973.472412109375</ele>
        <time>2013-06-30T16:09:24Z</time>
      </trkpt>
      <trkpt lat="47.63978686183691" lon="11.896494515240192">
        <ele>971.54931640625</ele>
        <time>2013-06-30T16:09:26Z</time>
      </trkpt>
      <trkpt lat="47.640068409964442" lon="11.89638638868928">
        <ele>968.184814453125</ele>
        <time>2013-06-30T16:09:32Z</time>
      </trkpt>
      <trkpt lat="47.640160527080297" lon="11.896357554942369">
        <ele>967.2236328125</ele>
        <time>2013-06-30T16:09:34Z</time>
      </trkpt>
      <trkpt lat="47.640372337773442" lon="11.896275747567415">
        <ele>963.37841796875</ele>
        <time>2013-06-30T16:09:38Z</time>
      </trkpt>
      <trkpt lat="47.640436124056578" lon="11.896265102550387">
        <ele>962.897705078125</ele>
        <time>2013-06-30T16:09:39Z</time>
      </trkpt>
      <trkpt lat="47.640657490119338" lon="11.896235682070255">
        <ele>960.013671875</ele>
        <time>2013-06-30T16:09:44Z</time>
      </trkpt>
      <trkpt lat="47.640656819567084" lon="11.89622076228261">
        <ele>959.052490234375</ele>
        <time>2013-06-30T16:09:46Z</time>
      </trkpt>
      <trkpt lat="47.64040787704289" lon="11.89608640037477">
        <ele>959.052490234375</ele>
        <time>2013-06-30T16:09:52Z</time>
      </trkpt>
      <trkpt lat="47.640182739123702" lon="11.89581960439682">
        <ele>957.1298828125</ele>
        <time>2013-06-30T16:09:58Z</time>
      </trkpt>
      <trkpt lat="47.639992805197835" lon="11.895728576928377">
        <ele>957.610595703125</ele>
        <time>2013-06-30T16:10:02Z</time>
      </trkpt>
      <trkpt lat="47.639840170741081" lon="11.895782137289643">
        <ele>957.610595703125</ele>
        <time>2013-06-30T16:10:07Z</time>
      </trkpt>
      <trkpt lat="47.63985869474709" lon="11.895792782306671">
        <ele>957.610595703125</ele>
        <time>2013-06-30T16:10:16Z</time>
      </trkpt>
      <trkpt lat="47.639860957860947" lon="11.895797811448574">
        <ele>957.610595703125</ele>
        <time>2013-06-30T16:10:19Z</time>
      </trkpt>
      <trkpt lat="47.63980396091938" lon="11.895843325182796">
        <ele>956.649169921875</ele>
        <time>2013-06-30T16:10:23Z</time>
      </trkpt>
      <trkpt lat="47.639791052788496" lon="11.895846091210842">
        <ele>956.649169921875</ele>
        <time>2013-06-30T16:10:28Z</time>
      </trkpt>
      <trkpt lat="47.639816533774137" lon="11.895862519741058">
        <ele>956.16845703125</ele>
        <time>2013-06-30T16:10:45Z</time>
      </trkpt>
      <trkpt lat="47.639819215983152" lon="11.89586017280817">
        <ele>957.610595703125</ele>
        <time>2013-06-30T16:12:57Z</time>
      </trkpt>
      <trkpt lat="47.63983279466629" lon="11.89585380256176">
        <ele>958.09130859375</ele>
        <time>2013-06-30T16:13:15Z</time>
      </trkpt>
      <trkpt lat="47.639833549037576" lon="11.895827064290643">
        <ele>957.610595703125</ele>
        <time>2013-06-30T16:13:20Z</time>
      </trkpt>
      <trkpt lat="47.639717627316713" lon="11.895796554163098">
        <ele>957.1298828125</ele>
        <time>2013-06-30T16:13:25Z</time>
      </trkpt>
      <trkpt lat="47.639501709491014" lon="11.895765205845237">
        <ele>954.726318359375</ele>
        <time>2013-06-30T16:13:30Z</time>
      </trkpt>
      <trkpt lat="47.639375226572156" lon="11.895722039043903">
        <ele>952.8037109375</ele>
        <time>2013-06-30T16:13:33Z</time>
      </trkpt>
      <trkpt lat="47.639319067820907" lon="11.895448956638575">
        <ele>953.284423828125</ele>
        <time>2013-06-30T16:13:40Z</time>
      </trkpt>
      <trkpt lat="47.639331892132759" lon="11.895465217530727">
        <ele>953.284423828125</ele>
        <time>2013-06-30T16:13:59Z</time>
      </trkpt>
      <trkpt lat="47.639145813882351" lon="11.89542330801487">
        <ele>953.76513671875</ele>
        <time>2013-06-30T16:14:07Z</time>
      </trkpt>
      <trkpt lat="47.638928554952145" lon="11.895333705469966">
        <ele>954.726318359375</ele>
        <time>2013-06-30T16:14:15Z</time>
      </trkpt>
      <trkpt lat="47.638734430074692" lon="11.895125582814217">
        <ele>954.245849609375</ele>
        <time>2013-06-30T16:14:22Z</time>
      </trkpt>
      <trkpt lat="47.638503508642316" lon="11.894756108522415">
        <ele>956.16845703125</ele>
        <time>2013-06-30T16:14:32Z</time>
      </trkpt>
      <trkpt lat="47.638312820345163" lon="11.894515799358487">
        <ele>957.610595703125</ele>
        <time>2013-06-30T16:14:40Z</time>
      </trkpt>
      <trkpt lat="47.638164376839995" lon="11.894388729706407">
        <ele>957.1298828125</ele>
        <time>2013-06-30T16:14:45Z</time>
      </trkpt>
      <trkpt lat="47.637877631932497" lon="11.894283033907413">
        <ele>957.1298828125</ele>
        <time>2013-06-30T16:14:52Z</time>
      </trkpt>
      <trkpt lat="47.637677807360888" lon="11.894314885139465">
        <ele>954.726318359375</ele>
        <time>2013-06-30T16:14:56Z</time>
      </trkpt>
      <trkpt lat="47.637567669153214" lon="11.894365092739463">
        <ele>952.8037109375</ele>
        <time>2013-06-30T16:14:58Z</time>
      </trkpt>
      <trkpt lat="47.637371113523841" lon="11.894484367221594">
        <ele>951.36181640625</ele>
        <time>2013-06-30T16:15:00Z</time>
      </trkpt>
      <trkpt lat="47.637117393314838" lon="11.89463029615581">
        <ele>950.881103515625</ele>
        <time>2013-06-30T16:15:04Z</time>
      </trkpt>
      <trkpt lat="47.636973559856415" lon="11.894761556759477">
        <ele>950.881103515625</ele>
        <time>2013-06-30T16:15:07Z</time>
      </trkpt>
      <trkpt lat="47.63691421598196" lon="11.894950652495027">
        <ele>947.997314453125</ele>
        <time>2013-06-30T16:15:11Z</time>
      </trkpt>
      <trkpt lat="47.636910025030375" lon="11.895035393536091">
        <ele>947.035888671875</ele>
        <time>2013-06-30T16:15:13Z</time>
      </trkpt>
      <trkpt lat="47.636890411376953" lon="11.89511988312006">
        <ele>945.593994140625</ele>
        <time>2013-06-30T16:15:15Z</time>
      </trkpt>
      <trkpt lat="47.63677834533155" lon="11.895204288884997">
        <ele>945.11328125</ele>
        <time>2013-06-30T16:15:19Z</time>
      </trkpt>
      <trkpt lat="47.636680612340569" lon="11.895189955830574">
        <ele>943.67138671875</ele>
        <time>2013-06-30T16:15:21Z</time>
      </trkpt>
      <trkpt lat="47.636443907395005" lon="11.89500454813242">
        <ele>943.190673828125</ele>
        <time>2013-06-30T16:15:26Z</time>
      </trkpt>
      <trkpt lat="47.636192198842764" lon="11.894931122660637">
        <ele>941.26806640625</ele>
        <time>2013-06-30T16:15:31Z</time>
      </trkpt>
      <trkpt lat="47.635840158909559" lon="11.895074201747775">
        <ele>940.306884765625</ele>
        <time>2013-06-30T16:15:38Z</time>
      </trkpt>
      <trkpt lat="47.635770672932267" lon="11.89510278403759">
        <ele>940.306884765625</ele>
        <time>2013-06-30T16:15:39Z</time>
      </trkpt>
      <trkpt lat="47.635560370981693" lon="11.89514578320086">
        <ele>939.34521484375</ele>
        <time>2013-06-30T16:15:42Z</time>
      </trkpt>
      <trkpt lat="47.635131804272532" lon="11.894972110167146">
        <ele>937.9033203125</ele>
        <time>2013-06-30T16:15:49Z</time>
      </trkpt>
      <trkpt lat="47.634770879521966" lon="11.894789384678006">
        <ele>936.94189453125</ele>
        <time>2013-06-30T16:15:55Z</time>
      </trkpt>
      <trkpt lat="47.634702902287245" lon="11.894765412434936">
        <ele>937.422607421875</ele>
        <time>2013-06-30T16:15:56Z</time>
      </trkpt>
      <trkpt lat="47.63434449210763" lon="11.894722497090697">
        <ele>936.46142578125</ele>
        <time>2013-06-30T16:16:02Z</time>
      </trkpt>
      <trkpt lat="47.634000247344375" lon="11.894754683598876">
        <ele>935.980712890625</ele>
        <time>2013-06-30T16:16:08Z</time>
      </trkpt>
      <trkpt lat="47.633877117186785" lon="11.89462979324162">
        <ele>935.01953125</ele>
        <time>2013-06-30T16:16:12Z</time>
      </trkpt>
      <trkpt lat="47.63386907055974" lon="11.894479086622596">
        <ele>934.538818359375</ele>
        <time>2013-06-30T16:16:14Z</time>
      </trkpt>
      <trkpt lat="47.633796064183116" lon="11.894089914858341">
        <ele>933.0966796875</ele>
        <time>2013-06-30T16:16:19Z</time>
      </trkpt>
      <trkpt lat="47.633771253749728" lon="11.894009280949831">
        <ele>932.135498046875</ele>
        <time>2013-06-30T16:16:20Z</time>
      </trkpt>
      <trkpt lat="47.633568914607167" lon="11.893575852736831">
        <ele>932.6162109375</ele>
        <time>2013-06-30T16:16:27Z</time>
      </trkpt>
      <trkpt lat="47.633336065337062" lon="11.89317318610847">
        <ele>931.65478515625</ele>
        <time>2013-06-30T16:16:33Z</time>
      </trkpt>
      <trkpt lat="47.633236153051257" lon="11.892997249960899">
        <ele>930.693603515625</ele>
        <time>2013-06-30T16:16:36Z</time>
      </trkpt>
      <trkpt lat="47.633018558844924" lon="11.892879651859403">
        <ele>933.577392578125</ele>
        <time>2013-06-30T16:16:41Z</time>
      </trkpt>
      <trkpt lat="47.632935494184494" lon="11.892868168652058">
        <ele>932.6162109375</ele>
        <time>2013-06-30T16:16:47Z</time>
      </trkpt>
      <trkpt lat="47.632894925773144" lon="11.892870347946882">
        <ele>932.6162109375</ele>
        <time>2013-06-30T16:16:48Z</time>
      </trkpt>
      <trkpt lat="47.632717145606875" lon="11.892852075397968">
        <ele>933.0966796875</ele>
        <time>2013-06-30T16:16:52Z</time>
      </trkpt>
      <trkpt lat="47.632589321583509" lon="11.892850734293461">
        <ele>935.01953125</ele>
        <time>2013-06-30T16:16:56Z</time>
      </trkpt>
      <trkpt lat="47.632358148694038" lon="11.892672032117844">
        <ele>934.538818359375</ele>
        <time>2013-06-30T16:17:04Z</time>
      </trkpt>
      <trkpt lat="47.63217500410974" lon="11.892649736255407">
        <ele>932.6162109375</ele>
        <time>2013-06-30T16:17:08Z</time>
      </trkpt>
      <trkpt lat="47.631940143182874" lon="11.892499616369605">
        <ele>928.290283203125</ele>
        <time>2013-06-30T16:17:13Z</time>
      </trkpt>
      <trkpt lat="47.631713580340147" lon="11.892322674393654">
        <ele>927.3291015625</ele>
        <time>2013-06-30T16:17:20Z</time>
      </trkpt>
      <trkpt lat="47.631683656945825" lon="11.89229509793222">
        <ele>927.3291015625</ele>
        <time>2013-06-30T16:17:21Z</time>
      </trkpt>
      <trkpt lat="47.631475450471044" lon="11.892042886465788">
        <ele>925.40625</ele>
        <time>2013-06-30T16:17:26Z</time>
      </trkpt>
      <trkpt lat="47.631418704986572" lon="11.891931742429733">
        <ele>926.36767578125</ele>
        <time>2013-06-30T16:17:31Z</time>
      </trkpt>
      <trkpt lat="47.631208738312125" lon="11.891930736601353">
        <ele>925.886962890625</ele>
        <time>2013-06-30T16:17:36Z</time>
      </trkpt>
      <trkpt lat="47.631072448566556" lon="11.891939537599683">
        <ele>926.36767578125</ele>
        <time>2013-06-30T16:17:40Z</time>
      </trkpt>
      <trkpt lat="47.631028527393937" lon="11.891945069655776">
        <ele>926.36767578125</ele>
        <time>2013-06-30T16:17:48Z</time>
      </trkpt>
      <trkpt lat="47.630956023931503" lon="11.891924114897847">
        <ele>927.8095703125</ele>
        <time>2013-06-30T16:17:53Z</time>
      </trkpt>
      <trkpt lat="47.630799449980259" lon="11.891929479315877">
        <ele>929.25146484375</ele>
        <time>2013-06-30T16:18:05Z</time>
      </trkpt>
      <trkpt lat="47.630721749737859" lon="11.89194087870419">
        <ele>929.25146484375</ele>
        <time>2013-06-30T16:18:12Z</time>
      </trkpt>
      <trkpt lat="47.630580514669418" lon="11.891904836520553">
        <ele>928.290283203125</ele>
        <time>2013-06-30T16:18:16Z</time>
      </trkpt>
      <trkpt lat="47.630366440862417" lon="11.89192377962172">
        <ele>925.886962890625</ele>
        <time>2013-06-30T16:18:20Z</time>
      </trkpt>
      <trkpt lat="47.630168460309505" lon="11.892028301954269">
        <ele>923.483642578125</ele>
        <time>2013-06-30T16:18:23Z</time>
      </trkpt>
      <trkpt lat="47.629799488931894" lon="11.892249584197998">
        <ele>920.599609375</ele>
        <time>2013-06-30T16:18:29Z</time>
      </trkpt>
      <trkpt lat="47.629433199763298" lon="11.892384197562933">
        <ele>920.599609375</ele>
        <time>2013-06-30T16:18:35Z</time>
      </trkpt>
      <trkpt lat="47.629234464839101" lon="11.892462819814682">
        <ele>919.638427734375</ele>
        <time>2013-06-30T16:18:38Z</time>
      </trkpt>
      <trkpt lat="47.628897931426764" lon="11.892463741824031">
        <ele>917.715576171875</ele>
        <time>2013-06-30T16:18:43Z</time>
      </trkpt>
      <trkpt lat="47.628750912845135" lon="11.892431639134884">
        <ele>917.235107421875</ele>
        <time>2013-06-30T16:18:45Z</time>
      </trkpt>
      <trkpt lat="47.628305917605758" lon="11.892281016334891">
        <ele>916.75439453125</ele>
        <time>2013-06-30T16:18:52Z</time>
      </trkpt>
      <trkpt lat="47.628251183778048" lon="11.892276490107179">
        <ele>917.235107421875</ele>
        <time>2013-06-30T16:18:53Z</time>
      </trkpt>
      <trkpt lat="47.628003833815455" lon="11.892255870625377">
        <ele>915.793212890625</ele>
        <time>2013-06-30T16:18:58Z</time>
      </trkpt>
      <trkpt lat="47.627883637323976" lon="11.892265509814024">
        <ele>914.35107421875</ele>
        <time>2013-06-30T16:19:00Z</time>
      </trkpt>
      <trkpt lat="47.627513408660889" lon="11.892330972477794">
        <ele>913.389892578125</ele>
        <time>2013-06-30T16:19:07Z</time>
      </trkpt>
      <trkpt lat="47.627221299335361" lon="11.892495257779956">
        <ele>912.428466796875</ele>
        <time>2013-06-30T16:19:13Z</time>
      </trkpt>
      <trkpt lat="47.627038573846221" lon="11.892564240843058">
        <ele>910.986572265625</ele>
        <time>2013-06-30T16:19:16Z</time>
      </trkpt>
      <trkpt lat="47.626774543896317" lon="11.892636828124523">
        <ele>910.025146484375</ele>
        <time>2013-06-30T16:19:20Z</time>
      </trkpt>
      <trkpt lat="47.626259475946426" lon="11.892686365172267">
        <ele>908.102783203125</ele>
        <time>2013-06-30T16:19:27Z</time>
      </trkpt>
      <trkpt lat="47.626194600015879" lon="11.892746714875102">
        <ele>908.102783203125</ele>
        <time>2013-06-30T16:19:28Z</time>
      </trkpt>
      <trkpt lat="47.62593811377883" lon="11.893007140606642">
        <ele>908.583251953125</ele>
        <time>2013-06-30T16:19:32Z</time>
      </trkpt>
      <trkpt lat="47.625511223450303" lon="11.893124654889107">
        <ele>906.660400390625</ele>
        <time>2013-06-30T16:19:38Z</time>
      </trkpt>
      <trkpt lat="47.625333108007908" lon="11.89292055554688">
        <ele>906.660400390625</ele>
        <time>2013-06-30T16:19:41Z</time>
      </trkpt>
      <trkpt lat="47.625049464404583" lon="11.892221085727215">
        <ele>904.73779296875</ele>
        <time>2013-06-30T16:19:48Z</time>
      </trkpt>
      <trkpt lat="47.624712847173214" lon="11.892001731321216">
        <ele>903.776611328125</ele>
        <time>2013-06-30T16:19:53Z</time>
      </trkpt>
      <trkpt lat="47.624625256285071" lon="11.892043640837073">
        <ele>903.776611328125</ele>
        <time>2013-06-30T16:19:54Z</time>
      </trkpt>
      <trkpt lat="47.624374302104115" lon="11.892237095162272">
        <ele>902.33447265625</ele>
        <time>2013-06-30T16:19:57Z</time>
      </trkpt>
      <trkpt lat="47.623800309374928" lon="11.892304485663772">
        <ele>902.33447265625</ele>
        <time>2013-06-30T16:20:04Z</time>
      </trkpt>
      <trkpt lat="47.623721351847053" lon="11.892300210893154">
        <ele>902.33447265625</ele>
        <time>2013-06-30T16:20:05Z</time>
      </trkpt>
      <trkpt lat="47.623153813183308" lon="11.892259642481804">
        <ele>899.931396484375</ele>
        <time>2013-06-30T16:20:12Z</time>
      </trkpt>
      <trkpt lat="47.622487954795361" lon="11.89247882924974">
        <ele>898.4892578125</ele>
        <time>2013-06-30T16:20:20Z</time>
      </trkpt>
      <trkpt lat="47.6218815241009" lon="11.892422754317522">
        <ele>898.0087890625</ele>
        <time>2013-06-30T16:20:28Z</time>
      </trkpt>
      <trkpt lat="47.621662085875869" lon="11.892352430149913">
        <ele>898.0087890625</ele>
        <time>2013-06-30T16:20:31Z</time>
      </trkpt>
      <trkpt lat="47.621449939906597" lon="11.89229853451252">
        <ele>897.528076171875</ele>
        <time>2013-06-30T16:20:34Z</time>
      </trkpt>
      <trkpt lat="47.621174594387412" lon="11.892183953896165">
        <ele>897.04736328125</ele>
        <time>2013-06-30T16:20:38Z</time>
      </trkpt>
      <trkpt lat="47.620846107602119" lon="11.89186854287982">
        <ele>896.56689453125</ele>
        <time>2013-06-30T16:20:43Z</time>
      </trkpt>
      <trkpt lat="47.620434137061238" lon="11.89130762591958">
        <ele>895.60546875</ele>
        <time>2013-06-30T16:20:50Z</time>
      </trkpt>
      <trkpt lat="47.620198940858245" lon="11.891187261790037">
        <ele>895.60546875</ele>
        <time>2013-06-30T16:20:53Z</time>
      </trkpt>
      <trkpt lat="47.619959888979793" lon="11.890816614031792">
        <ele>896.086181640625</ele>
        <time>2013-06-30T16:20:58Z</time>
      </trkpt>
      <trkpt lat="47.620052341371775" lon="11.890183528885245">
        <ele>895.60546875</ele>
        <time>2013-06-30T16:21:04Z</time>
      </trkpt>
      <trkpt lat="47.620103638619184" lon="11.889997450634837">
        <ele>895.60546875</ele>
        <time>2013-06-30T16:21:06Z</time>
      </trkpt>
      <trkpt lat="47.620156025514007" lon="11.889527728781104">
        <ele>896.56689453125</ele>
        <time>2013-06-30T16:21:11Z</time>
      </trkpt>
      <trkpt lat="47.620105398818851" lon="11.888977289199829">
        <ele>897.528076171875</ele>
        <time>2013-06-30T16:21:18Z</time>
      </trkpt>
      <trkpt lat="47.620127191767097" lon="11.888709990307689">
        <ele>898.4892578125</ele>
        <time>2013-06-30T16:21:23Z</time>
      </trkpt>
      <trkpt lat="47.620169268921018" lon="11.888616532087326">
        <ele>898.969970703125</ele>
        <time>2013-06-30T16:21:25Z</time>
      </trkpt>
      <trkpt lat="47.620237916707993" lon="11.888156952336431">
        <ele>898.4892578125</ele>
        <time>2013-06-30T16:21:31Z</time>
      </trkpt>
      <trkpt lat="47.620394239202142" lon="11.887678764760494">
        <ele>898.969970703125</ele>
        <time>2013-06-30T16:21:36Z</time>
      </trkpt>
      <trkpt lat="47.620439250022173" lon="11.887607183307409">
        <ele>899.45068359375</ele>
        <time>2013-06-30T16:21:37Z</time>
      </trkpt>
      <trkpt lat="47.620769580826163" lon="11.88733602873981">
        <ele>899.45068359375</ele>
        <time>2013-06-30T16:21:44Z</time>
      </trkpt>
      <trkpt lat="47.621048027649522" lon="11.887041153386235">
        <ele>899.931396484375</ele>
        <time>2013-06-30T16:21:48Z</time>
      </trkpt>
      <trkpt lat="47.62123653665185" lon="11.886652819812298">
        <ele>899.931396484375</ele>
        <time>2013-06-30T16:21:54Z</time>
      </trkpt>
      <trkpt lat="47.621237291023135" lon="11.88644670881331">
        <ele>900.412109375</ele>
        <time>2013-06-30T16:21:57Z</time>
      </trkpt>
      <trkpt lat="47.62121357023716" lon="11.886296337470412">
        <ele>899.931396484375</ele>
        <time>2013-06-30T16:21:59Z</time>
      </trkpt>
      <trkpt lat="47.621195716783404" lon="11.885863244533539">
        <ele>900.412109375</ele>
        <time>2013-06-30T16:22:05Z</time>
      </trkpt>
      <trkpt lat="47.621291689574718" lon="11.885585216805339">
        <ele>900.892578125</ele>
        <time>2013-06-30T16:22:09Z</time>
      </trkpt>
      <trkpt lat="47.621534513309598" lon="11.885251952335238">
        <ele>901.85400390625</ele>
        <time>2013-06-30T16:22:16Z</time>
      </trkpt>
      <trkpt lat="47.621661582961679" lon="11.884958334267139">
        <ele>901.85400390625</ele>
        <time>2013-06-30T16:22:21Z</time>
      </trkpt>
      <trkpt lat="47.621765099465847" lon="11.884739398956299">
        <ele>902.815185546875</ele>
        <time>2013-06-30T16:22:25Z</time>
      </trkpt>
      <trkpt lat="47.621798543259501" lon="11.884619956836104">
        <ele>904.25732421875</ele>
        <time>2013-06-30T16:22:27Z</time>
      </trkpt>
      <trkpt lat="47.621977915987372" lon="11.884427592158318">
        <ele>906.1796875</ele>
        <time>2013-06-30T16:22:35Z</time>
      </trkpt>
      <trkpt lat="47.622109595686197" lon="11.884028194472194">
        <ele>908.583251953125</ele>
        <time>2013-06-30T16:22:43Z</time>
      </trkpt>
      <trkpt lat="47.622244628146291" lon="11.883931132033467">
        <ele>909.06396484375</ele>
        <time>2013-06-30T16:22:46Z</time>
      </trkpt>
      <trkpt lat="47.622447051107883" lon="11.883699707686901">
        <ele>911.46728515625</ele>
        <time>2013-06-30T16:22:53Z</time>
      </trkpt>
      <trkpt lat="47.622603876516223" lon="11.883504744619131">
        <ele>912.9091796875</ele>
        <time>2013-06-30T16:22:59Z</time>
      </trkpt>
      <trkpt lat="47.622684761881828" lon="11.883473228663206">
        <ele>913.389892578125</ele>
        <time>2013-06-30T16:23:02Z</time>
      </trkpt>
      <trkpt lat="47.622801354154944" lon="11.88360583037138">
        <ele>915.793212890625</ele>
        <time>2013-06-30T16:23:10Z</time>
      </trkpt>
      <trkpt lat="47.6229003444314" lon="11.883627623319626">
        <ele>917.235107421875</ele>
        <time>2013-06-30T16:23:16Z</time>
      </trkpt>
      <trkpt lat="47.622952228412032" lon="11.883603818714619">
        <ele>918.677001953125</ele>
        <time>2013-06-30T16:23:23Z</time>
      </trkpt>
      <trkpt lat="47.623065300285816" lon="11.883622175082564">
        <ele>919.15771484375</ele>
        <time>2013-06-30T16:23:29Z</time>
      </trkpt>
      <trkpt lat="47.623197482898831" lon="11.883598286658525">
        <ele>920.599609375</ele>
        <time>2013-06-30T16:23:35Z</time>
      </trkpt>
      <trkpt lat="47.623388171195984" lon="11.883502313867211">
        <ele>921.080322265625</ele>
        <time>2013-06-30T16:23:41Z</time>
      </trkpt>
      <trkpt lat="47.623487580567598" lon="11.883408520370722">
        <ele>922.04150390625</ele>
        <time>2013-06-30T16:23:44Z</time>
      </trkpt>
      <trkpt lat="47.623755298554897" lon="11.883411454036832">
        <ele>923.0029296875</ele>
        <time>2013-06-30T16:23:52Z</time>
      </trkpt>
      <trkpt lat="47.623774241656065" lon="11.883388822898269">
        <ele>923.0029296875</ele>
        <time>2013-06-30T16:23:53Z</time>
      </trkpt>
      <trkpt lat="47.623801901936531" lon="11.883349595591426">
        <ele>923.964111328125</ele>
        <time>2013-06-30T16:23:55Z</time>
      </trkpt>
      <trkpt lat="47.623786060139537" lon="11.883071819320321">
        <ele>924.445068359375</ele>
        <time>2013-06-30T16:24:02Z</time>
      </trkpt>
      <trkpt lat="47.623762087896466" lon="11.882951203733683">
        <ele>924.92578125</ele>
        <time>2013-06-30T16:24:05Z</time>
      </trkpt>
      <trkpt lat="47.623720010742545" lon="11.882644593715668">
        <ele>926.36767578125</ele>
        <time>2013-06-30T16:24:13Z</time>
      </trkpt>
      <trkpt lat="47.623766278848052" lon="11.882442338392138">
        <ele>927.3291015625</ele>
        <time>2013-06-30T16:24:20Z</time>
      </trkpt>
      <trkpt lat="47.62382235378027" lon="11.882149977609515">
        <ele>928.290283203125</ele>
        <time>2013-06-30T16:24:28Z</time>
      </trkpt>
      <trkpt lat="47.623919080942869" lon="11.88187119551003">
        <ele>929.25146484375</ele>
        <time>2013-06-30T16:24:37Z</time>
      </trkpt>
      <trkpt lat="47.623957972973585" lon="11.881625354290009">
        <ele>930.693603515625</ele>
        <time>2013-06-30T16:24:43Z</time>
      </trkpt>
      <trkpt lat="47.623970294371247" lon="11.881425948813558">
        <ele>931.17431640625</ele>
        <time>2013-06-30T16:24:48Z</time>
      </trkpt>
      <trkpt lat="47.623991081491113" lon="11.881330143660307">
        <ele>931.17431640625</ele>
        <time>2013-06-30T16:24:50Z</time>
      </trkpt>
      <trkpt lat="47.624088143929839" lon="11.88088514842093">
        <ele>932.6162109375</ele>
        <time>2013-06-30T16:25:00Z</time>
      </trkpt>
      <trkpt lat="47.624226361513138" lon="11.880477368831635">
        <ele>934.538818359375</ele>
        <time>2013-06-30T16:25:10Z</time>
      </trkpt>
      <trkpt lat="47.624291572719812" lon="11.880104541778564">
        <ele>933.0966796875</ele>
        <time>2013-06-30T16:25:18Z</time>
      </trkpt>
      <trkpt lat="47.62423918582499" lon="11.879823580384254">
        <ele>932.6162109375</ele>
        <time>2013-06-30T16:25:22Z</time>
      </trkpt>
      <trkpt lat="47.624211022630334" lon="11.879451340064406">
        <ele>930.693603515625</ele>
        <time>2013-06-30T16:25:26Z</time>
      </trkpt>
      <trkpt lat="47.624322753399611" lon="11.878767376765609">
        <ele>929.732177734375</ele>
        <time>2013-06-30T16:25:33Z</time>
      </trkpt>
      <trkpt lat="47.624418474733829" lon="11.87847618944943">
        <ele>927.8095703125</ele>
        <time>2013-06-30T16:25:36Z</time>
      </trkpt>
      <trkpt lat="47.624644283205271" lon="11.878103949129581">
        <ele>926.848388671875</ele>
        <time>2013-06-30T16:25:40Z</time>
      </trkpt>
      <trkpt lat="47.624856010079384" lon="11.87788006849587">
        <ele>923.964111328125</ele>
        <time>2013-06-30T16:25:43Z</time>
      </trkpt>
      <trkpt lat="47.625048458576202" lon="11.877877302467823">
        <ele>923.483642578125</ele>
        <time>2013-06-30T16:25:45Z</time>
      </trkpt>
      <trkpt lat="47.625382645055652" lon="11.877914182841778">
        <ele>921.080322265625</ele>
        <time>2013-06-30T16:25:49Z</time>
      </trkpt>
      <trkpt lat="47.625784976407886" lon="11.877736235037446">
        <ele>920.118896484375</ele>
        <time>2013-06-30T16:25:54Z</time>
      </trkpt>
      <trkpt lat="47.625992931425571" lon="11.877688625827432">
        <ele>920.599609375</ele>
        <time>2013-06-30T16:25:57Z</time>
      </trkpt>
      <trkpt lat="47.626352263614535" lon="11.877393666654825">
        <ele>921.560791015625</ele>
        <time>2013-06-30T16:26:03Z</time>
      </trkpt>
      <trkpt lat="47.626462318003178" lon="11.877282103523612">
        <ele>921.560791015625</ele>
        <time>2013-06-30T16:26:05Z</time>
      </trkpt>
      <trkpt lat="47.626616377383471" lon="11.876926962286234">
        <ele>921.560791015625</ele>
        <time>2013-06-30T16:26:09Z</time>
      </trkpt>
      <trkpt lat="47.626807987689972" lon="11.876477859914303">
        <ele>922.04150390625</ele>
        <time>2013-06-30T16:26:14Z</time>
      </trkpt>
      <trkpt lat="47.627288857474923" lon="11.875977292656898">
        <ele>922.522216796875</ele>
        <time>2013-06-30T16:26:24Z</time>
      </trkpt>
      <trkpt lat="47.627721950411797" lon="11.875307243317366">
        <ele>923.483642578125</ele>
        <time>2013-06-30T16:26:35Z</time>
      </trkpt>
      <trkpt lat="47.627804344519973" lon="11.875191237777472">
        <ele>923.483642578125</ele>
        <time>2013-06-30T16:26:37Z</time>
      </trkpt>
      <trkpt lat="47.627916159108281" lon="11.874993927776814">
        <ele>924.445068359375</ele>
        <time>2013-06-30T16:26:40Z</time>
      </trkpt>
      <trkpt lat="47.627978101372719" lon="11.87454616650939">
        <ele>924.92578125</ele>
        <time>2013-06-30T16:26:45Z</time>
      </trkpt>
      <trkpt lat="47.627833765000105" lon="11.874140650033951">
        <ele>924.92578125</ele>
        <time>2013-06-30T16:26:51Z</time>
      </trkpt>
      <trkpt lat="47.627674760296941" lon="11.873783580958843">
        <ele>925.40625</ele>
        <time>2013-06-30T16:26:57Z</time>
      </trkpt>
      <trkpt lat="47.627667048946023" lon="11.873659277334809">
        <ele>925.40625</ele>
        <time>2013-06-30T16:26:59Z</time>
      </trkpt>
      <trkpt lat="47.627668976783752" lon="11.873481245711446">
        <ele>926.36767578125</ele>
        <time>2013-06-30T16:27:02Z</time>
      </trkpt>
      <trkpt lat="47.627695295959711" lon="11.873347721993923">
        <ele>926.36767578125</ele>
        <time>2013-06-30T16:27:04Z</time>
      </trkpt>
      <trkpt lat="47.627851283177733" lon="11.873121159151196">
        <ele>926.848388671875</ele>
        <time>2013-06-30T16:27:08Z</time>
      </trkpt>
      <trkpt lat="47.628093268722296" lon="11.872960897162557">
        <ele>927.3291015625</ele>
        <time>2013-06-30T16:27:13Z</time>
      </trkpt>
      <trkpt lat="47.62827574275434" lon="11.872720420360565">
        <ele>927.8095703125</ele>
        <time>2013-06-30T16:27:18Z</time>
      </trkpt>
      <trkpt lat="47.628434579819441" lon="11.872059088200331">
        <ele>927.8095703125</ele>
        <time>2013-06-30T16:27:28Z</time>
      </trkpt>
      <trkpt lat="47.628574892878532" lon="11.871556006371975">
        <ele>927.8095703125</ele>
        <time>2013-06-30T16:27:35Z</time>
      </trkpt>
      <trkpt lat="47.628600457683206" lon="11.871484341099858">
        <ele>927.8095703125</ele>
        <time>2013-06-30T16:27:36Z</time>
      </trkpt>
      <trkpt lat="47.628689892590046" lon="11.871068431064487">
        <ele>928.290283203125</ele>
        <time>2013-06-30T16:27:42Z</time>
      </trkpt>
      <trkpt lat="47.628734484314919" lon="11.870733238756657">
        <ele>929.732177734375</ele>
        <time>2013-06-30T16:27:47Z</time>
      </trkpt>
      <trkpt lat="47.628734400495887" lon="11.870605498552322">
        <ele>929.25146484375</ele>
        <time>2013-06-30T16:27:49Z</time>
      </trkpt>
      <trkpt lat="47.628746638074517" lon="11.870169220492244">
        <ele>931.65478515625</ele>
        <time>2013-06-30T16:27:56Z</time>
      </trkpt>
      <trkpt lat="47.628784105181694" lon="11.869989763945341">
        <ele>930.693603515625</ele>
        <time>2013-06-30T16:27:59Z</time>
      </trkpt>
      <trkpt lat="47.628797851502895" lon="11.86978499405086">
        <ele>930.693603515625</ele>
        <time>2013-06-30T16:28:02Z</time>
      </trkpt>
      <trkpt lat="47.628803551197052" lon="11.869164481759071">
        <ele>932.135498046875</ele>
        <time>2013-06-30T16:28:10Z</time>
      </trkpt>
      <trkpt lat="47.628788463771343" lon="11.86880330555141">
        <ele>932.135498046875</ele>
        <time>2013-06-30T16:28:15Z</time>
      </trkpt>
      <trkpt lat="47.628796426579356" lon="11.868596188724041">
        <ele>932.6162109375</ele>
        <time>2013-06-30T16:28:18Z</time>
      </trkpt>
      <trkpt lat="47.628879994153976" lon="11.868259403854609">
        <ele>933.577392578125</ele>
        <time>2013-06-30T16:28:24Z</time>
      </trkpt>
      <trkpt lat="47.628906145691872" lon="11.868075337260962">
        <ele>934.538818359375</ele>
        <time>2013-06-30T16:28:29Z</time>
      </trkpt>
      <trkpt lat="47.62892416678369" lon="11.867888420820236">
        <ele>935.5</ele>
        <time>2013-06-30T16:28:34Z</time>
      </trkpt>
      <trkpt lat="47.628931626677513" lon="11.867845756933093">
        <ele>935.980712890625</ele>
        <time>2013-06-30T16:28:35Z</time>
      </trkpt>
      <trkpt lat="47.628982672467828" lon="11.86762472614646">
        <ele>936.94189453125</ele>
        <time>2013-06-30T16:28:41Z</time>
      </trkpt>
      <trkpt lat="47.629043105989695" lon="11.867406796664">
        <ele>937.422607421875</ele>
        <time>2013-06-30T16:28:45Z</time>
      </trkpt>
      <trkpt lat="47.629123320803046" lon="11.867190543562174">
        <ele>938.384033203125</ele>
        <time>2013-06-30T16:28:50Z</time>
      </trkpt>
      <trkpt lat="47.629179898649454" lon="11.867061629891396">
        <ele>939.34521484375</ele>
        <time>2013-06-30T16:28:54Z</time>
      </trkpt>
      <trkpt lat="47.629267824813724" lon="11.866819057613611">
        <ele>939.34521484375</ele>
        <time>2013-06-30T16:28:59Z</time>
      </trkpt>
      <trkpt lat="47.629404366016388" lon="11.866610767319798">
        <ele>939.825927734375</ele>
        <time>2013-06-30T16:29:04Z</time>
      </trkpt>
      <trkpt lat="47.629574099555612" lon="11.866238443180919">
        <ele>939.825927734375</ele>
        <time>2013-06-30T16:29:11Z</time>
      </trkpt>
      <trkpt lat="47.629814743995667" lon="11.865925211459398">
        <ele>940.787353515625</ele>
        <time>2013-06-30T16:29:19Z</time>
      </trkpt>
      <trkpt lat="47.630054047331214" lon="11.865785401314497">
        <ele>941.748779296875</ele>
        <time>2013-06-30T16:29:26Z</time>
      </trkpt>
      <trkpt lat="47.630278766155243" lon="11.865618182346225">
        <ele>941.748779296875</ele>
        <time>2013-06-30T16:29:33Z</time>
      </trkpt>
      <trkpt lat="47.630432741716504" lon="11.865351302549243">
        <ele>941.748779296875</ele>
        <time>2013-06-30T16:29:39Z</time>
      </trkpt>
      <trkpt lat="47.630585208535194" lon="11.864998256787658">
        <ele>942.2294921875</ele>
        <time>2013-06-30T16:29:46Z</time>
      </trkpt>
      <trkpt lat="47.630693167448044" lon="11.864884849637747">
        <ele>942.710205078125</ele>
        <time>2013-06-30T16:29:49Z</time>
      </trkpt>
      <trkpt lat="47.630899613723159" lon="11.86464412137866">
        <ele>942.2294921875</ele>
        <time>2013-06-30T16:29:55Z</time>
      </trkpt>
      <trkpt lat="47.631014613434672" lon="11.864314544945955">
        <ele>942.2294921875</ele>
        <time>2013-06-30T16:30:00Z</time>
      </trkpt>
      <trkpt lat="47.631037076935172" lon="11.864171298220754">
        <ele>942.2294921875</ele>
        <time>2013-06-30T16:30:02Z</time>
      </trkpt>
      <trkpt lat="47.631047386676073" lon="11.863835351541638">
        <ele>943.190673828125</ele>
        <time>2013-06-30T16:30:08Z</time>
      </trkpt>
      <trkpt lat="47.6310995221138" lon="11.863514827564359">
        <ele>943.190673828125</ele>
        <time>2013-06-30T16:30:14Z</time>
      </trkpt>
      <trkpt lat="47.631221227347851" lon="11.863199584186077">
        <ele>942.710205078125</ele>
        <time>2013-06-30T16:30:19Z</time>
      </trkpt>
      <trkpt lat="47.631373861804605" lon="11.862735645845532">
        <ele>943.67138671875</ele>
        <time>2013-06-30T16:30:27Z</time>
      </trkpt>
      <trkpt lat="47.631498919799924" lon="11.862125778570771">
        <ele>943.67138671875</ele>
        <time>2013-06-30T16:30:34Z</time>
      </trkpt>
      <trkpt lat="47.631499757990241" lon="11.861847415566444">
        <ele>943.67138671875</ele>
        <time>2013-06-30T16:30:38Z</time>
      </trkpt>
      <trkpt lat="47.631452148780227" lon="11.861619679257274">
        <ele>943.67138671875</ele>
        <time>2013-06-30T16:30:42Z</time>
      </trkpt>
      <trkpt lat="47.631401186808944" lon="11.861429661512375">
        <ele>944.632568359375</ele>
        <time>2013-06-30T16:30:46Z</time>
      </trkpt>
      <trkpt lat="47.631370341405272" lon="11.861310554668307">
        <ele>944.632568359375</ele>
        <time>2013-06-30T16:30:48Z</time>
      </trkpt>
      <trkpt lat="47.631365982815623" lon="11.861002100631595">
        <ele>945.11328125</ele>
        <time>2013-06-30T16:30:53Z</time>
      </trkpt>
      <trkpt lat="47.631493974477053" lon="11.860361555591226">
        <ele>946.07470703125</ele>
        <time>2013-06-30T16:31:02Z</time>
      </trkpt>
      <trkpt lat="47.631455333903432" lon="11.859859563410282">
        <ele>947.5166015625</ele>
        <time>2013-06-30T16:31:10Z</time>
      </trkpt>
      <trkpt lat="47.631381824612617" lon="11.859518839046359">
        <ele>947.997314453125</ele>
        <time>2013-06-30T16:31:17Z</time>
      </trkpt>
      <trkpt lat="47.631295155733824" lon="11.859239218756557">
        <ele>948.95849609375</ele>
        <time>2013-06-30T16:31:24Z</time>
      </trkpt>
      <trkpt lat="47.631284426897764" lon="11.859145928174257">
        <ele>949.919921875</ele>
        <time>2013-06-30T16:31:27Z</time>
      </trkpt>
      <trkpt lat="47.631278308108449" lon="11.859127571806312">
        <ele>949.919921875</ele>
        <time>2013-06-30T16:31:28Z</time>
      </trkpt>
      <trkpt lat="47.631299430504441" lon="11.858944930136204">
        <ele>950.881103515625</ele>
        <time>2013-06-30T16:31:35Z</time>
      </trkpt>
      <trkpt lat="47.631458770483732" lon="11.858600601553917">
        <ele>952.8037109375</ele>
        <time>2013-06-30T16:31:42Z</time>
      </trkpt>
      <trkpt lat="47.631628168746829" lon="11.858317963778973">
        <ele>954.245849609375</ele>
        <time>2013-06-30T16:31:49Z</time>
      </trkpt>
      <trkpt lat="47.63171810656786" lon="11.857897192239761">
        <ele>954.726318359375</ele>
        <time>2013-06-30T16:31:56Z</time>
      </trkpt>
      <trkpt lat="47.631718693301082" lon="11.857695188373327">
        <ele>955.20703125</ele>
        <time>2013-06-30T16:32:01Z</time>
      </trkpt>
      <trkpt lat="47.631689356639981" lon="11.857367539778352">
        <ele>956.649169921875</ele>
        <time>2013-06-30T16:32:08Z</time>
      </trkpt>
      <trkpt lat="47.631684243679047" lon="11.85732789337635">
        <ele>956.649169921875</ele>
        <time>2013-06-30T16:32:09Z</time>
      </trkpt>
      <trkpt lat="47.631702348589897" lon="11.857160339131951">
        <ele>957.1298828125</ele>
        <time>2013-06-30T16:32:13Z</time>
      </trkpt>
      <trkpt lat="47.631929414346814" lon="11.856687599793077">
        <ele>958.57177734375</ele>
        <time>2013-06-30T16:32:23Z</time>
      </trkpt>
      <trkpt lat="47.632121024653316" lon="11.856295997276902">
        <ele>960.013671875</ele>
        <time>2013-06-30T16:32:32Z</time>
      </trkpt>
      <trkpt lat="47.632287070155144" lon="11.855976479128003">
        <ele>960.97509765625</ele>
        <time>2013-06-30T16:32:40Z</time>
      </trkpt>
      <trkpt lat="47.632377510890365" lon="11.855651848018169">
        <ele>962.4169921875</ele>
        <time>2013-06-30T16:32:47Z</time>
      </trkpt>
      <trkpt lat="47.63245889917016" lon="11.855367701500654">
        <ele>962.897705078125</ele>
        <time>2013-06-30T16:32:54Z</time>
      </trkpt>
      <trkpt lat="47.63268755748868" lon="11.854914743453264">
        <ele>964.8203125</ele>
        <time>2013-06-30T16:33:05Z</time>
      </trkpt>
      <trkpt lat="47.632912192493677" lon="11.854541497305036">
        <ele>966.26220703125</ele>
        <time>2013-06-30T16:33:15Z</time>
      </trkpt>
      <trkpt lat="47.632949827238917" lon="11.85445474460721">
        <ele>967.2236328125</ele>
        <time>2013-06-30T16:33:17Z</time>
      </trkpt>
      <trkpt lat="47.63311268761754" lon="11.85418501496315">
        <ele>967.2236328125</ele>
        <time>2013-06-30T16:33:24Z</time>
      </trkpt>
      <trkpt lat="47.633210923522711" lon="11.853965157642961">
        <ele>967.7041015625</ele>
        <time>2013-06-30T16:33:29Z</time>
      </trkpt>
      <trkpt lat="47.633149232715368" lon="11.853652345016599">
        <ele>967.7041015625</ele>
        <time>2013-06-30T16:33:34Z</time>
      </trkpt>
      <trkpt lat="47.633105227723718" lon="11.853209612891078">
        <ele>968.184814453125</ele>
        <time>2013-06-30T16:33:42Z</time>
      </trkpt>
      <trkpt lat="47.633225005120039" lon="11.852997969835997">
        <ele>970.107421875</ele>
        <time>2013-06-30T16:33:48Z</time>
      </trkpt>
      <trkpt lat="47.633530022576451" lon="11.852699322625995">
        <ele>972.510986328125</ele>
        <time>2013-06-30T16:34:01Z</time>
      </trkpt>
      <trkpt lat="47.633693553507328" lon="11.852538473904133">
        <ele>973.472412109375</ele>
        <time>2013-06-30T16:34:08Z</time>
      </trkpt>
      <trkpt lat="47.63384560123086" lon="11.852260110899806">
        <ele>974.914306640625</ele>
        <time>2013-06-30T16:34:16Z</time>
      </trkpt>
      <trkpt lat="47.63395506888628" lon="11.851989962160587">
        <ele>976.356201171875</ele>
        <time>2013-06-30T16:34:23Z</time>
      </trkpt>
      <trkpt lat="47.634124802425504" lon="11.851629540324211">
        <ele>977.798095703125</ele>
        <time>2013-06-30T16:34:33Z</time>
      </trkpt>
      <trkpt lat="47.634324375540018" lon="11.851372383534908">
        <ele>979.239990234375</ele>
        <time>2013-06-30T16:34:42Z</time>
      </trkpt>
      <trkpt lat="47.634470053017139" lon="11.851083878427744">
        <ele>980.201416015625</ele>
        <time>2013-06-30T16:34:52Z</time>
      </trkpt>
      <trkpt lat="47.634623274207115" lon="11.850789170712233">
        <ele>981.162841796875</ele>
        <time>2013-06-30T16:35:01Z</time>
      </trkpt>
      <trkpt lat="47.634791415184736" lon="11.850447105243802">
        <ele>982.604736328125</ele>
        <time>2013-06-30T16:35:11Z</time>
      </trkpt>
      <trkpt lat="47.634978080168366" lon="11.85014259070158">
        <ele>984.52734375</ele>
        <time>2013-06-30T16:35:21Z</time>
      </trkpt>
      <trkpt lat="47.635116716846824" lon="11.849812427535653">
        <ele>985.488525390625</ele>
        <time>2013-06-30T16:35:30Z</time>
      </trkpt>
      <trkpt lat="47.635255437344313" lon="11.849453346803784">
        <ele>987.4111328125</ele>
        <time>2013-06-30T16:35:41Z</time>
      </trkpt>
      <trkpt lat="47.635351326316595" lon="11.84929333627224">
        <ele>988.853515625</ele>
        <time>2013-06-30T16:35:47Z</time>
      </trkpt>
      <trkpt lat="47.635525837540627" lon="11.849155789241195">
        <ele>989.814697265625</ele>
        <time>2013-06-30T16:35:54Z</time>
      </trkpt>
      <trkpt lat="47.635594988241792" lon="11.849140366539359">
        <ele>990.29541015625</ele>
        <time>2013-06-30T16:35:57Z</time>
      </trkpt>
      <trkpt lat="47.635780395939946" lon="11.849108766764402">
        <ele>991.7373046875</ele>
        <time>2013-06-30T16:36:04Z</time>
      </trkpt>
      <trkpt lat="47.635974017903209" lon="11.849068952724338">
        <ele>992.218017578125</ele>
        <time>2013-06-30T16:36:11Z</time>
      </trkpt>
      <trkpt lat="47.636165041476488" lon="11.849060235545039">
        <ele>993.659912109375</ele>
        <time>2013-06-30T16:36:18Z</time>
      </trkpt>
      <trkpt lat="47.636369979009032" lon="11.849122513085604">
        <ele>994.62109375</ele>
        <time>2013-06-30T16:36:26Z</time>
      </trkpt>
      <trkpt lat="47.636536778882146" lon="11.849115556105971">
        <ele>996.063232421875</ele>
        <time>2013-06-30T16:36:34Z</time>
      </trkpt>
      <trkpt lat="47.636777423322201" lon="11.849028132855892">
        <ele>996.5439453125</ele>
        <time>2013-06-30T16:36:44Z</time>
      </trkpt>
      <trkpt lat="47.636911449953914" lon="11.848998796194792">
        <ele>997.0244140625</ele>
        <time>2013-06-30T16:36:50Z</time>
      </trkpt>
      <trkpt lat="47.63703927397728" lon="11.849072556942701">
        <ele>998.46630859375</ele>
        <time>2013-06-30T16:36:56Z</time>
      </trkpt>
      <trkpt lat="47.63723524287343" lon="11.849228963255882">
        <ele>999.908447265625</ele>
        <time>2013-06-30T16:37:04Z</time>
      </trkpt>
      <trkpt lat="47.6374267693609" lon="11.849238518625498">
        <ele>1001.350341796875</ele>
        <time>2013-06-30T16:37:12Z</time>
      </trkpt>
      <trkpt lat="47.637526346370578" lon="11.849261233583093">
        <ele>1001.350341796875</ele>
        <time>2013-06-30T16:37:17Z</time>
      </trkpt>
      <trkpt lat="47.637611506506801" lon="11.849276404827833">
        <ele>1001.8310546875</ele>
        <time>2013-06-30T16:37:21Z</time>
      </trkpt>
      <trkpt lat="47.637876542285085" lon="11.849318565800786">
        <ele>1003.27294921875</ele>
        <time>2013-06-30T16:37:31Z</time>
      </trkpt>
      <trkpt lat="47.638054322451353" lon="11.849486120045185">
        <ele>1004.715087890625</ele>
        <time>2013-06-30T16:37:40Z</time>
      </trkpt>
      <trkpt lat="47.638190276920795" lon="11.849588798359036">
        <ele>1006.156982421875</ele>
        <time>2013-06-30T16:37:46Z</time>
      </trkpt>
      <trkpt lat="47.638431256636977" lon="11.849744785577059">
        <ele>1007.59912109375</ele>
        <time>2013-06-30T16:37:56Z</time>
      </trkpt>
      <trkpt lat="47.638602666556835" lon="11.849920889362693">
        <ele>1008.560302734375</ele>
        <time>2013-06-30T16:38:04Z</time>
      </trkpt>
      <trkpt lat="47.638719594106078" lon="11.850050557404757">
        <ele>1008.560302734375</ele>
        <time>2013-06-30T16:38:10Z</time>
      </trkpt>
      <trkpt lat="47.638924280181527" lon="11.850123647600412">
        <ele>1010.002197265625</ele>
        <time>2013-06-30T16:38:19Z</time>
      </trkpt>
      <trkpt lat="47.63911547139287" lon="11.850117025896907">
        <ele>1011.4443359375</ele>
        <time>2013-06-30T16:38:27Z</time>
      </trkpt>
      <trkpt lat="47.639278415590525" lon="11.850090455263853">
        <ele>1011.925048828125</ele>
        <time>2013-06-30T16:38:34Z</time>
      </trkpt>
      <trkpt lat="47.639429206028581" lon="11.85006539337337">
        <ele>1012.405517578125</ele>
        <time>2013-06-30T16:38:40Z</time>
      </trkpt>
      <trkpt lat="47.639650152996182" lon="11.850126162171364">
        <ele>1012.405517578125</ele>
        <time>2013-06-30T16:38:47Z</time>
      </trkpt>
      <trkpt lat="47.639922481030226" lon="11.850206376984715">
        <ele>1012.88623046875</ele>
        <time>2013-06-30T16:38:56Z</time>
      </trkpt>
      <trkpt lat="47.640172177925706" lon="11.850155079737306">
        <ele>1013.366943359375</ele>
        <time>2013-06-30T16:39:05Z</time>
      </trkpt>
      <trkpt lat="47.640396393835545" lon="11.8500482942909">
        <ele>1015.28955078125</ele>
        <time>2013-06-30T16:39:13Z</time>
      </trkpt>
      <trkpt lat="47.640623962506652" lon="11.849999679252505">
        <ele>1016.7314453125</ele>
        <time>2013-06-30T16:39:22Z</time>
      </trkpt>
      <trkpt lat="47.640680372714996" lon="11.849934384226799">
        <ele>1016.7314453125</ele>
        <time>2013-06-30T16:39:28Z</time>
      </trkpt>
      <trkpt lat="47.640671404078603" lon="11.849914351478219">
        <ele>1017.212158203125</ele>
        <time>2013-06-30T16:39:38Z</time>
      </trkpt>
      <trkpt lat="47.640659753233194" lon="11.850007139146328">
        <ele>1015.28955078125</ele>
        <time>2013-06-30T16:40:25Z</time>
      </trkpt>
      <trkpt lat="47.640619687736034" lon="11.850094059482217">
        <ele>1015.770263671875</ele>
        <time>2013-06-30T16:40:36Z</time>
      </trkpt>
      <trkpt lat="47.640602588653564" lon="11.850123647600412">
        <ele>1015.28955078125</ele>
        <time>2013-06-30T16:40:49Z</time>
      </trkpt>
      <trkpt lat="47.640592949464917" lon="11.850132280960679">
        <ele>1015.770263671875</ele>
        <time>2013-06-30T16:41:05Z</time>
      </trkpt>
      <trkpt lat="47.640567719936371" lon="11.850185003131628">
        <ele>1015.770263671875</ele>
        <time>2013-06-30T16:41:22Z</time>
      </trkpt>
      <trkpt lat="47.640538299456239" lon="11.85022808611393">
        <ele>1015.770263671875</ele>
        <time>2013-06-30T16:41:37Z</time>
      </trkpt>
      <trkpt lat="47.640499155968428" lon="11.85029212385416">
        <ele>1015.28955078125</ele>
        <time>2013-06-30T16:41:50Z</time>
      </trkpt>
      <trkpt lat="47.64047434553504" lon="11.850346019491553">
        <ele>1015.28955078125</ele>
        <time>2013-06-30T16:42:01Z</time>
      </trkpt>
      <trkpt lat="47.640493120998144" lon="11.850324729457498">
        <ele>1014.808837890625</ele>
        <time>2013-06-30T16:42:22Z</time>
      </trkpt>
      <trkpt lat="47.640508711338043" lon="11.850318945944309">
        <ele>1015.28955078125</ele>
        <time>2013-06-30T16:42:28Z</time>
      </trkpt>
      <trkpt lat="47.640425059944391" lon="11.850514579564333">
        <ele>1015.28955078125</ele>
        <time>2013-06-30T16:42:35Z</time>
      </trkpt>
      <trkpt lat="47.64043771661818" lon="11.850564116612077">
        <ele>1014.808837890625</ele>
        <time>2013-06-30T16:42:42Z</time>
      </trkpt>
      <trkpt lat="47.640552381053567" lon="11.850481303408742">
        <ele>1015.770263671875</ele>
        <time>2013-06-30T16:42:53Z</time>
      </trkpt>
      <trkpt lat="47.640736196190119" lon="11.850282568484545">
        <ele>1015.28955078125</ele>
        <time>2013-06-30T16:43:40Z</time>
      </trkpt>
      <trkpt lat="47.640650281682611" lon="11.850296817719936">
        <ele>1015.28955078125</ele>
        <time>2013-06-30T16:43:58Z</time>
      </trkpt>
      <trkpt lat="47.640622621402144" lon="11.850280137732625">
        <ele>1015.28955078125</ele>
        <time>2013-06-30T16:44:07Z</time>
      </trkpt>
      <trkpt lat="47.640684228390455" lon="11.850167820230126">
        <ele>1015.770263671875</ele>
        <time>2013-06-30T16:44:57Z</time>
      </trkpt>
      <trkpt lat="47.640714906156063" lon="11.850086767226458">
        <ele>1015.770263671875</ele>
        <time>2013-06-30T16:45:16Z</time>
      </trkpt>
      <trkpt lat="47.640831582248211" lon="11.850037984549999">
        <ele>1015.770263671875</ele>
        <time>2013-06-30T16:45:40Z</time>
      </trkpt>
      <trkpt lat="47.640834515914321" lon="11.8499964941293">
        <ele>1016.250732421875</ele>
        <time>2013-06-30T16:45:53Z</time>
      </trkpt>
      <trkpt lat="47.640843652188778" lon="11.84993346221745">
        <ele>1017.692626953125</ele>
        <time>2013-06-30T16:47:00Z</time>
      </trkpt>
      <trkpt lat="47.640843484550714" lon="11.849922565743327">
        <ele>1018.654052734375</ele>
        <time>2013-06-30T16:47:07Z</time>
      </trkpt>
      <trkpt lat="47.640868127346039" lon="11.84988409280777">
        <ele>1018.17333984375</ele>
        <time>2013-06-30T16:47:11Z</time>
      </trkpt>
      <trkpt lat="47.640922274440527" lon="11.849874202162027">
        <ele>1019.134765625</ele>
        <time>2013-06-30T16:47:15Z</time>
      </trkpt>
      <trkpt lat="47.641074741259217" lon="11.849881745874882">
        <ele>1020.576904296875</ele>
        <time>2013-06-30T16:47:24Z</time>
      </trkpt>
      <trkpt lat="47.641133749857545" lon="11.849900186061859">
        <ele>1021.0576171875</ele>
        <time>2013-06-30T16:47:27Z</time>
      </trkpt>
      <trkpt lat="47.641301974654198" lon="11.849894318729639">
        <ele>1022.49951171875</ele>
        <time>2013-06-30T16:47:35Z</time>
      </trkpt>
      <trkpt lat="47.641322258859873" lon="11.849892223253846">
        <ele>1022.018798828125</ele>
        <time>2013-06-30T16:47:36Z</time>
      </trkpt>
      <trkpt lat="47.64148679561913" lon="11.849907981231809">
        <ele>1022.49951171875</ele>
        <time>2013-06-30T16:47:43Z</time>
      </trkpt>
      <trkpt lat="47.641755100339651" lon="11.84994226321578">
        <ele>1023.94140625</ele>
        <time>2013-06-30T16:47:52Z</time>
      </trkpt>
      <trkpt lat="47.641957439482212" lon="11.84995592571795">
        <ele>1024.90283203125</ele>
        <time>2013-06-30T16:47:59Z</time>
      </trkpt>
      <trkpt lat="47.64220654964447" lon="11.849829694256186">
        <ele>1025.38330078125</ele>
        <time>2013-06-30T16:48:08Z</time>
      </trkpt>
      <trkpt lat="47.642411990091205" lon="11.849538423120975">
        <ele>1026.825439453125</ele>
        <time>2013-06-30T16:48:17Z</time>
      </trkpt>
      <trkpt lat="47.642559427767992" lon="11.849388806149364">
        <ele>1027.30615234375</ele>
        <time>2013-06-30T16:48:24Z</time>
      </trkpt>
      <trkpt lat="47.642691023647785" lon="11.849249163642526">
        <ele>1028.267333984375</ele>
        <time>2013-06-30T16:48:31Z</time>
      </trkpt>
      <trkpt lat="47.642745086923242" lon="11.849048668518662">
        <ele>1029.709228515625</ele>
        <time>2013-06-30T16:48:39Z</time>
      </trkpt>
      <trkpt lat="47.642797976732254" lon="11.848831828683615">
        <ele>1031.1513671875</ele>
        <time>2013-06-30T16:48:46Z</time>
      </trkpt>
      <trkpt lat="47.64281046576798" lon="11.848797965794802">
        <ele>1030.670654296875</ele>
        <time>2013-06-30T16:48:47Z</time>
      </trkpt>
      <trkpt lat="47.642853381112218" lon="11.848699394613504">
        <ele>1031.6318359375</ele>
        <time>2013-06-30T16:48:50Z</time>
      </trkpt>
      <trkpt lat="47.642909623682499" lon="11.848543407395482">
        <ele>1031.6318359375</ele>
        <time>2013-06-30T16:48:55Z</time>
      </trkpt>
      <trkpt lat="47.642921023070812" lon="11.848474591970444">
        <ele>1032.59326171875</ele>
        <time>2013-06-30T16:48:57Z</time>
      </trkpt>
      <trkpt lat="47.642942480742931" lon="11.848296727985144">
        <ele>1032.59326171875</ele>
        <time>2013-06-30T16:49:02Z</time>
      </trkpt>
      <trkpt lat="47.642962262034416" lon="11.848183488473296">
        <ele>1032.59326171875</ele>
        <time>2013-06-30T16:49:06Z</time>
      </trkpt>
      <trkpt lat="47.642957819625735" lon="11.847964217886329">
        <ele>1033.07373046875</ele>
        <time>2013-06-30T16:49:12Z</time>
      </trkpt>
      <trkpt lat="47.642867043614388" lon="11.847698595374823">
        <ele>1034.515869140625</ele>
        <time>2013-06-30T16:49:17Z</time>
      </trkpt>
      <trkpt lat="47.64283737167716" lon="11.84740774333477">
        <ele>1035.47705078125</ele>
        <time>2013-06-30T16:49:24Z</time>
      </trkpt>
      <trkpt lat="47.642866037786007" lon="11.847118064761162">
        <ele>1036.919189453125</ele>
        <time>2013-06-30T16:49:31Z</time>
      </trkpt>
      <trkpt lat="47.643044237047434" lon="11.84665085747838">
        <ele>1037.39990234375</ele>
        <time>2013-06-30T16:49:41Z</time>
      </trkpt>
      <trkpt lat="47.643327713012695" lon="11.846097316592932">
        <ele>1037.880615234375</ele>
        <time>2013-06-30T16:49:54Z</time>
      </trkpt>
      <trkpt lat="47.643662821501493" lon="11.84559591114521">
        <ele>1038.361328125</ele>
        <time>2013-06-30T16:50:07Z</time>
      </trkpt>
      <trkpt lat="47.643946465104818" lon="11.84512191452086">
        <ele>1038.842041015625</ele>
        <time>2013-06-30T16:50:18Z</time>
      </trkpt>
      <trkpt lat="47.6441840082407" lon="11.844555381685495">
        <ele>1039.322509765625</ele>
        <time>2013-06-30T16:50:29Z</time>
      </trkpt>
      <trkpt lat="47.64442590996623" lon="11.843919027596712">
        <ele>1041.2451171875</ele>
        <time>2013-06-30T16:50:41Z</time>
      </trkpt>
      <trkpt lat="47.644634786993265" lon="11.843412006273866">
        <ele>1043.6484375</ele>
        <time>2013-06-30T16:50:53Z</time>
      </trkpt>
      <trkpt lat="47.644721958786249" lon="11.843043118715286">
        <ele>1046.0517578125</ele>
        <time>2013-06-30T16:51:02Z</time>
      </trkpt>
      <trkpt lat="47.644759928807616" lon="11.842768443748355">
        <ele>1045.09033203125</ele>
        <time>2013-06-30T16:51:08Z</time>
      </trkpt>
      <trkpt lat="47.644819775596261" lon="11.842052126303315">
        <ele>1042.687255859375</ele>
        <time>2013-06-30T16:51:17Z</time>
      </trkpt>
      <trkpt lat="47.644824469462037" lon="11.841139085590839">
        <ele>1040.283935546875</ele>
        <time>2013-06-30T16:51:26Z</time>
      </trkpt>
      <trkpt lat="47.644802927970886" lon="11.840267367660999">
        <ele>1037.39990234375</ele>
        <time>2013-06-30T16:51:34Z</time>
      </trkpt>
      <trkpt lat="47.644791780039668" lon="11.840151026844978">
        <ele>1036.919189453125</ele>
        <time>2013-06-30T16:51:35Z</time>
      </trkpt>
      <trkpt lat="47.644808376207948" lon="11.839832849800587">
        <ele>1035.47705078125</ele>
        <time>2013-06-30T16:51:38Z</time>
      </trkpt>
      <trkpt lat="47.644840311259031" lon="11.839752970263362">
        <ele>1034.99658203125</ele>
        <time>2013-06-30T16:51:39Z</time>
      </trkpt>
      <trkpt lat="47.644991688430309" lon="11.839513164013624">
        <ele>1034.03515625</ele>
        <time>2013-06-30T16:51:43Z</time>
      </trkpt>
      <trkpt lat="47.645186483860016" lon="11.839539734646678">
        <ele>1032.112548828125</ele>
        <time>2013-06-30T16:51:48Z</time>
      </trkpt>
      <trkpt lat="47.645408604294062" lon="11.839814409613609">
        <ele>1031.1513671875</ele>
        <time>2013-06-30T16:51:54Z</time>
      </trkpt>
      <trkpt lat="47.645645476877689" lon="11.839986406266689">
        <ele>1029.709228515625</ele>
        <time>2013-06-30T16:52:00Z</time>
      </trkpt>
      <trkpt lat="47.645799871534109" lon="11.840065279975533">
        <ele>1028.748046875</ele>
        <time>2013-06-30T16:52:05Z</time>
      </trkpt>
      <trkpt lat="47.645923001691699" lon="11.840164856985211">
        <ele>1027.78662109375</ele>
        <time>2013-06-30T16:52:09Z</time>
      </trkpt>
      <trkpt lat="47.645970694720745" lon="11.840191259980202">
        <ele>1027.30615234375</ele>
        <time>2013-06-30T16:52:10Z</time>
      </trkpt>
      <trkpt lat="47.646243525668979" lon="11.840277593582869">
        <ele>1025.864013671875</ele>
        <time>2013-06-30T16:52:16Z</time>
      </trkpt>
      <trkpt lat="47.646295744925737" lon="11.840285640209913">
        <ele>1025.38330078125</ele>
        <time>2013-06-30T16:52:17Z</time>
      </trkpt>
      <trkpt lat="47.646414684131742" lon="11.840273067355156">
        <ele>1024.90283203125</ele>
        <time>2013-06-30T16:52:19Z</time>
      </trkpt>
      <trkpt lat="47.646643593907356" lon="11.840219255536795">
        <ele>1022.980224609375</ele>
        <time>2013-06-30T16:52:23Z</time>
      </trkpt>
      <trkpt lat="47.646904857829213" lon="11.840199222788215">
        <ele>1021.0576171875</ele>
        <time>2013-06-30T16:52:27Z</time>
      </trkpt>
      <trkpt lat="47.64716561883688" lon="11.8400255497545">
        <ele>1019.615478515625</ele>
        <time>2013-06-30T16:52:31Z</time>
      </trkpt>
      <trkpt lat="47.647362258285284" lon="11.839786749333143">
        <ele>1018.654052734375</ele>
        <time>2013-06-30T16:52:37Z</time>
      </trkpt>
      <trkpt lat="47.647447837516665" lon="11.839746851474047">
        <ele>1018.17333984375</ele>
        <time>2013-06-30T16:52:39Z</time>
      </trkpt>
      <trkpt lat="47.64760734513402" lon="11.839638976380229">
        <ele>1017.692626953125</ele>
        <time>2013-06-30T16:52:44Z</time>
      </trkpt>
      <trkpt lat="47.647741874679923" lon="11.839506709948182">
        <ele>1016.250732421875</ele>
        <time>2013-06-30T16:52:49Z</time>
      </trkpt>
      <trkpt lat="47.647815383970737" lon="11.839383915066719">
        <ele>1014.808837890625</ele>
        <time>2013-06-30T16:52:52Z</time>
      </trkpt>
      <trkpt lat="47.647914290428162" lon="11.8392916303128">
        <ele>1014.328125</ele>
        <time>2013-06-30T16:52:55Z</time>
      </trkpt>
      <trkpt lat="47.648192988708615" lon="11.839124327525496">
        <ele>1012.405517578125</ele>
        <time>2013-06-30T16:53:00Z</time>
      </trkpt>
      <trkpt lat="47.648285524919629" lon="11.839041095227003">
        <ele>1011.4443359375</ele>
        <time>2013-06-30T16:53:02Z</time>
      </trkpt>
      <trkpt lat="47.648549722507596" lon="11.838885862380266">
        <ele>1010.002197265625</ele>
        <time>2013-06-30T16:53:06Z</time>
      </trkpt>
      <trkpt lat="47.648984910920262" lon="11.838719565421343">
        <ele>1007.59912109375</ele>
        <time>2013-06-30T16:53:11Z</time>
      </trkpt>
      <trkpt lat="47.649274757131934" lon="11.838441956788301">
        <ele>1005.676513671875</ele>
        <time>2013-06-30T16:53:15Z</time>
      </trkpt>
      <trkpt lat="47.64969770796597" lon="11.838174993172288">
        <ele>1005.676513671875</ele>
        <time>2013-06-30T16:53:21Z</time>
      </trkpt>
      <trkpt lat="47.649959558621049" lon="11.837977515533566">
        <ele>1003.753662109375</ele>
        <time>2013-06-30T16:53:25Z</time>
      </trkpt>
      <trkpt lat="47.650477644056082" lon="11.837387178093195">
        <ele>1002.3115234375</ele>
        <time>2013-06-30T16:53:34Z</time>
      </trkpt>
      <trkpt lat="47.650720551609993" lon="11.837138822302222">
        <ele>1001.8310546875</ele>
        <time>2013-06-30T16:53:38Z</time>
      </trkpt>
      <trkpt lat="47.650981228798628" lon="11.836757948622108">
        <ele>1000.86962890625</ele>
        <time>2013-06-30T16:53:43Z</time>
      </trkpt>
      <trkpt lat="47.651228914037347" lon="11.836510682478547">
        <ele>1000.86962890625</ele>
        <time>2013-06-30T16:53:47Z</time>
      </trkpt>
      <trkpt lat="47.651886558160186" lon="11.836298620328307">
        <ele>1002.3115234375</ele>
        <time>2013-06-30T16:53:57Z</time>
      </trkpt>
      <trkpt lat="47.652262067422271" lon="11.836060993373394">
        <ele>1002.792236328125</ele>
        <time>2013-06-30T16:54:04Z</time>
      </trkpt>
      <trkpt lat="47.652739584445953" lon="11.835549613460898">
        <ele>1000.86962890625</ele>
        <time>2013-06-30T16:54:13Z</time>
      </trkpt>
      <trkpt lat="47.652877802029252" lon="11.835446851328015">
        <ele>999.908447265625</ele>
        <time>2013-06-30T16:54:15Z</time>
      </trkpt>
      <trkpt lat="47.653448274359107" lon="11.835161028429866">
        <ele>998.46630859375</ele>
        <time>2013-06-30T16:54:23Z</time>
      </trkpt>
      <trkpt lat="47.653845995664597" lon="11.834834888577461">
        <ele>998.947021484375</ele>
        <time>2013-06-30T16:54:31Z</time>
      </trkpt>
      <trkpt lat="47.653852701187134" lon="11.834831284359097">
        <ele>998.46630859375</ele>
        <time>2013-06-30T16:54:36Z</time>
      </trkpt>
      <trkpt lat="47.653856724500656" lon="11.834850814193487">
        <ele>998.46630859375</ele>
        <time>2013-06-30T16:54:42Z</time>
      </trkpt>
      <trkpt lat="47.653862256556749" lon="11.83487830683589">
        <ele>998.947021484375</ele>
        <time>2013-06-30T16:54:53Z</time>
      </trkpt>
      <trkpt lat="47.653880612924695" lon="11.834888868033886">
        <ele>997.505126953125</ele>
        <time>2013-06-30T16:55:05Z</time>
      </trkpt>
      <trkpt lat="47.653847923502326" lon="11.834825500845909">
        <ele>998.46630859375</ele>
        <time>2013-06-30T16:56:03Z</time>
      </trkpt>
    </trkseg>
  </trk>

</gpx>
